     2.10           OBSERVATION DATA    G (GPS)             RINEX VERSION / TYPE
teqc 2002Apr3 Duncan Agnew 20050511 23:58:28UTC             PGM / RUN BY / DATE
OSX 5.3|G3|cc|OSX 5.3+|G3+                                  COMMENT
BIT 2 OF LLI FLAGS DATA COLLECTED UNDER A/S CONDITION       COMMENT
HPGN-CA 11-04 1990                                          MARKER NAME
7416                                                        MARKER NUMBER
Bob Hagler Caltrans District 11                             OBSERVER / AGENCY
220247416 TRIMBLE 5700 NP 1.24 / SP 1.24                    REC # / TYPE / VERS
12235001 TRM41249.00                                        ANT # / TYPE
 -2294645.0000 -4858067.0000  3425649.0000                  APPROX POSITION XYZ
        1.8900        0.0000        0.0000                  ANTENNA: DELTA H/E/N
     1     1                                                WAVELENGTH FACT L1/2
     7    C1    L1    L2    P1    P2    S1    S2            # / TYPES OF OBSERV
SNR is mapped to RINEX snr flag value [1-9]                 COMMENT
L1: 3 -> 1; 8 -> 5; 40 -> 9                                 COMMENT
L2: 1 -> 1; 5 -> 5; 60 -> 9                                 COMMENT
  2004     6    29    14    25   20.0000000     GPS         TIME OF FIRST OBS
                                                            END OF HEADER
 04  6 29 14 25 20.0000000  0 11G 6G10G16G17G18G21G26G29G30G22G15
  20210666.9844     569521.49659    431475.43958                  20210664.4774
        51.7504         42.0004
  23792776.8524    2162753.98059   1640414.54757                  23792776.4104
        41.5004         26.2504
  24304218.0474    -364694.42259   -286463.21356                  24304214.2114
        38.5004         20.0004
  23571934.4614    1516665.84459   1148033.10457                  23571932.3244
        43.5004         26.0004
  21645990.4304    -602749.08259   -463409.51657                  21645987.3834
        49.2504         37.7504
  21398389.9694     -68836.76259    -57927.69457                  21398385.7344
        50.2504         38.0004
  21881218.6484    -144115.44159   -114393.08257                  21881216.3324
        47.0004         34.2504
  22423676.0084     405928.85259    303349.89257                  22423674.1804
        45.5004         31.7504
  23290456.6174    2072077.55959   1571379.25657                  23290455.1054
        45.0004         30.0004
  24199584.3134   -1007289.38359   -783565.01456                  24199580.9924
        40.5004         24.5004
  24654675.6564    -124985.82059    -97925.08656                  24654674.3594
        40.2504         19.2504
 04  6 29 14 25 30.0000000  0 11G 6G10G16G17G18G21G26G29G30G22G15
  20213061.1174     582103.73449    441279.77848                  20213059.1054
        51.0004         42.2504
  23801330.1804    2207699.72749   1675437.15346                  23801328.9574
        41.5004         24.5004
  24302681.9454    -372768.87949   -292754.97646                  24302677.8284
        37.5004         20.7504
  23577859.4614    1547802.20749   1172295.19046                  23577858.3364
        43.5004         25.5004
  21643527.3204    -615692.08649   -473494.96247                  21643523.9924
        48.7504         37.7504
  21397961.6804     -71088.19949    -59682.07547                  21397957.0704
        51.0004         38.2504
  21880700.3914    -146836.84449   -116513.66847                  21880698.7344
        44.7504         34.0004
  22425363.8444     414798.48849    310261.28947                  22425361.7624
        45.0004         31.7504
  23298627.3754    2115014.79749   1604836.82347                  23298626.0634
        44.5004         29.2504
  24195179.9844   -1030437.17249   -801602.24646                  24195175.8134
        41.2504         25.5004
  24651926.0234    -139437.76249   -109186.32546                  24651924.5234
        39.5004         20.0004
 04  6 29 14 25 40.0000000  0 11G 6G10G16G17G18G21G26G29G30G22G15
  20215459.8444     594708.99649    451102.06448                  20215457.5434
        50.5004         42.7504
  23809879.3524    2252625.14149   1710443.97547                  23809877.7344
        41.5004         26.7504
  24301148.4614    -380822.35949   -299030.35346                  24301145.4104
        38.0004         21.0004
  23583780.3984    1578914.94549   1196538.85846                  23583779.4024
        43.5004         24.2504
  21641066.7274    -628623.06249   -483571.04547                  21641063.6644
        49.0004         37.2504
  21397530.5234     -73354.17649    -61447.76147                  21397526.3134
        50.5004         38.5004
  21880189.1484    -149524.42649   -118607.86947                  21880187.2814
        45.0004         33.5004
  22427057.4304     423698.81349    317196.60347                  22427055.0274
        45.7504         33.0004
  23306793.8594    2157930.22349   1638277.41047                  23306791.8054
        43.5004         29.5004
  24190773.0234   -1053595.00449   -819647.32447                  24190769.4344
        43.7504         26.7504
  24649171.1414    -153915.82449   -120467.89446                  24649170.4064
        39.5004         20.5004
 04  6 29 14 25 50.0000000  0 11G 6G10G16G17G18G21G26G29G30G22G15
  20217862.8054     607337.16849    460942.18548                  20217860.4414
        50.5004         42.5004
  23818424.1414    2297529.94949   1745434.70747                  23818423.1884
        41.2504         26.7504
  24299619.5004    -388854.95749   -305289.56246                  24299616.4104
        38.2504         19.5004
  23589695.7734    1610004.04749   1220764.10547                  23589695.0274
        43.5004         26.5004
  21638608.3364    -641542.23449   -493637.91847                  21638605.0784
        48.0004         37.7504
  21397096.2974     -75634.85549    -63224.92247                  21397092.2624
        50.0004         38.7504
  21879683.7274    -152178.35549   -120675.86447                  21879682.2074
        45.7504         33.0004
  22428757.3054     432629.76649    324155.80047                  22428754.7154
        46.7504         32.2504
  23314956.1484    2200823.60949   1671700.83847                  23314954.0744
        42.5004         28.5004
  24186364.4064   -1076762.91449   -837700.19847                  24186361.1604
        42.5004         27.0004
  24646409.5704    -168420.08249   -131769.94246                  24646409.7934
        40.0004         21.2504
 04  6 29 14 26  0.0000000  0 11G 6G10G16G17G18G21G26G29G30G22G15
  20220270.8284     619991.07849    470802.37148                  20220268.8094
        50.5004         42.2504
  23826966.0394    2342416.88749   1780411.52647                  23826965.7074
        42.0004         27.7504
  24298095.7894    -396863.88349   -311530.36746                  24298091.7894
        40.5004         20.0004
  23595607.3914    1641072.22749   1244973.07347                  23595607.3284
        42.7504         27.5004
  21636152.6334    -654446.72349   -503693.35947                  21636149.3524
        47.7504         38.0004
  21396659.7974     -77927.48449    -65011.39647                  21396656.0314
        50.0004         38.5004
  21879186.1884    -154795.57849   -122715.25047                  21879184.2234
        45.0004         33.0004
  22430462.8594     441594.12149    331141.00747                  22430460.9184
        45.5004         31.7504
  23323114.9844    2243697.51249   1705109.08147                  23323113.3094
        42.0004         28.5004
  24181953.6884   -1099938.14549   -855758.81547                  24181950.6954
        41.5004         25.7504
  24643645.5004    -182947.89149   -143090.22546                  24643645.5354
        41.0004         20.7504
 04  6 29 14 26 10.0000000  0 11G 6G10G16G17G18G21G26G29G30G22G15
  20222682.8524     632667.25049    480679.91248                  20222680.9494
        50.5004         42.5004
  23835503.3054    2387282.46949   1815371.63947                  23835503.2154
        40.7504         26.7504
  24296575.8674    -404852.49649   -317755.17246                  24296571.4144
        39.5004         20.2504
  23601515.2344    1672115.97349   1269162.96746                  23601513.9304
        42.5004         24.2504
  21633699.5234    -667339.91049   -513739.99347                  21633695.6564
        46.5004         38.5004
  21396220.7974     -80235.49249    -66809.84547                  21396216.7974
        49.2504         38.0004
  21878694.3984    -157379.63749   -124728.81447                  21878691.9104
        44.2504         33.0004
  22432174.4144     450588.40249    338149.51647                  22432172.9184
        45.7504         32.0004
  23331269.1254    2286548.48449   1738499.42647                  23331267.9734
        42.2504         28.0004
  24177541.9224   -1123124.05149   -873825.74846                  24177538.6914
        40.5004         22.7504
  24640875.5634    -197502.64549   -154431.65146                  24640875.3404
        40.0004         20.5004
 04  6 29 14 26 20.0000000  0 11G 6G10G16G17G18G21G26G29G30G22G15
  20225099.7344     645366.04349    490575.07048                  20225097.2074
        51.0004         41.7504
  23844037.4304    2432126.78949   1850315.22447                  23844036.2154
        42.5004         26.7504
  24295059.0314    -412820.47349   -323964.01046                  24295056.0634
        38.7504         19.7504
  23607418.6024    1703135.67249   1293334.17447                  23607416.6524
        42.5004         26.0004
  21631247.9534    -680221.50449   -523777.59947                  21631244.6524
        48.0004         39.0004
  21395778.9844     -82558.62949    -68620.08447                  21395774.5904
        49.7504         38.7504
  21878208.4614    -159930.18749   -126716.27547                  21878206.4884
        46.0004         33.2504
  22433892.5164     459613.09049    345181.74847                  22433889.9844
        45.5004         31.5004
  23339418.9144    2329376.64849   1771871.98547                  23339417.9264
        42.5004         28.7504
  24173127.7194   -1146320.31249   -891900.77546                  24173123.7234
        41.5004         22.7504
  24638101.6254    -212084.03349   -165793.73646                  24638100.6214
        40.0004         20.2504
 04  6 29 14 26 30.0000000  0 11G 6G10G16G17G18G21G26G29G30G22G15
  20227520.4454     658087.71549    500488.06448                  20227517.7544
        51.0004         41.5004
  23852567.6334    2476950.05949   1885242.40647                  23852565.7274
        43.7504         27.5004
  24293547.6094    -420767.49249   -330156.57446                  24293543.4534
        39.7504         21.0004
  23613316.4534    1734131.56349   1317486.78047                  23613314.8954
        43.2504         26.0004
  21628799.2344    -693091.21149   -533805.94547                  21628795.3094
        47.0004         38.5004
  21395333.9224     -84896.62149    -70441.89947                  21395329.9344
        47.7504         37.7504
  21877729.7974    -162446.77049   -128677.23747                  21877727.5084
        46.2504         32.7504
  22435615.3364     468668.22749    352237.70447                  22435613.4414
        46.5004         32.0004
  23347564.7894    2372182.08249   1805226.87147                  23347563.7464
        42.0004         29.5004
  24168711.8914   -1169526.59849   -909983.60646                  24168707.3714
        42.0004         24.0004
  24635321.4064    -226692.00849   -177176.58846                  24635320.5744
        40.0004         19.7504
 04  6 29 14 26 40.0000000  0 11G 6G10G16G17G18G21G26G29G30G22G15
  20229945.9144     670834.55949    510420.66148                  20229943.4774
        50.5004         41.7504
  23861093.6484    2521754.34849   1920154.83247                  23861091.6764
        44.0004         27.2504
  24292039.5474    -428691.25849   -336330.89646                  24292035.7664
        40.7504         21.5004
  23619210.2344    1765105.86349   1341622.60146                  23619208.7384
        43.7504         25.0004
  21626352.8914    -705946.68049   -543823.19347                  21626349.3014
        46.5004         38.7504
  21394886.5944     -87247.18749    -72273.52347                  21394882.3794
        48.2504         38.0004
  21877257.4384    -164927.20349   -130610.04447                  21877255.9184
        44.2504         32.5004
  22437344.8364     477756.19949    359319.24447                  22437342.6684
        46.5004         33.0004
  23355705.7194    2414967.05549   1838565.76347                  23355704.9574
        42.5004         28.5004
  24164294.8204   -1192740.53149   -928072.41947                  24164290.7344
        42.2504         25.7504
  24632536.7894    -241324.16849   -188578.23546                  24632536.1724
        39.7504         20.2504
 04  6 29 14 26 50.0000000  0 11G 6G10G16G17G18G21G26G29G30G22G15
  20232375.8834     683603.97349    520370.84948                  20232373.6414
        50.5004         41.7504
  23869615.4924    2566537.03149   1955050.43847                  23869613.6884
        44.2504         27.0004
  24290535.9844    -436594.23449   -342489.04246                  24290531.5984
        40.7504         21.5004
  23625100.1724    1796055.97349   1365739.52847                  23625098.6914
        43.0004         26.0004
  21623908.3054    -718790.52749   -553831.38547                  21623905.4694
        46.5004         38.7504
  21394436.2664     -89612.94949    -74116.97347                  21394432.4264
        48.5004         38.2504
  21876792.2344    -167373.83249   -132516.49547                  21876790.7774
        45.0004         33.0004
  22439079.8984     486874.38749    366424.32047                  22439077.8364
        47.5004         32.2504
  23363842.6954    2457728.79349   1871886.57747                  23363841.7074
        42.0004         27.5004
  24159875.1724   -1215964.67249   -946169.13647                  24159872.0634
        41.2504         26.0004
  24629747.5394    -255983.13349   -200000.68546                  24629746.5634
        39.0004         20.0004
 04  6 29 14 27  0.0000000  0 11G 6G10G16G17G18G21G26G29G30G22G15
  20234810.7664     696399.22349    530341.16948                  20234808.0124
        50.5004         42.0004
  23878133.8444    2611301.33249   1989931.67147                  23878132.3364
        43.5004         27.2504
  24289036.5864    -444473.28949   -348628.55946                  24289032.5664
        39.5004         21.7504
  23630986.0004    1826985.18049   1389840.17946                  23630983.9494
        42.2504         22.7504
  21621467.4064    -731619.53549   -563828.00247                  21621464.2194
        46.7504         38.2504
  21393983.7114     -91990.62949    -75969.71547                  21393979.6804
        49.0004         37.5004
  21876333.9304    -169783.37149   -134394.08147                  21876332.1094
        45.7504         33.0004
  22440821.4384     496026.13349    373555.54247                  22440819.2544
        46.5004         32.0004
  23371976.6484    2500470.41449   1905191.73547                  23371975.0514
        43.5004         27.5004
  24155453.8284   -1239195.81649   -964271.28646                  24155451.2154
        38.7504         24.7504
  24626953.7424    -270665.68449   -211441.69946                  24626952.8164
        40.0004         20.0004
 04  6 29 14 27 10.0000000  0 11G 6G10G16G17G18G21G26G29G30G22G15
  20237250.7274     709222.32049    540333.18148                  20237248.6024
        50.5004         42.0004
  23886648.8204    2656049.05949   2024800.01347                  23886647.5704
        44.5004         26.5004
  24287541.2664    -452326.32849   -354747.80946                  24287537.9534
        40.0004         23.0004
  23636867.8284    1857895.50049   1413926.12946                  23636866.6524
        42.0004         24.5004
  21619029.0634    -744431.56249   -573811.39047                  21619026.2544
        45.5004         38.0004
  21393529.4224     -94378.23049    -77830.18247                  21393525.6024
        47.0004         37.7504
  21875882.8984    -172153.82049   -136241.16747                  21875881.1054
        46.7504         33.5004
  22442569.7664     505213.44549    380714.47747                  22442567.4024
        47.0004         32.7504
  23380106.9454    2543193.84049   1938482.72247                  23380104.9614
        43.0004         28.0004
  24151031.5314   -1262431.81249   -982377.21646                  24151029.1914
        40.5004         23.5004
  24624155.7504    -285369.88349   -222899.51746                  24624153.9844
        40.2504         20.0004
 04  6 29 14 27 20.0000000  0 11G 6G10G16G17G18G21G26G29G30G22G15
  20239696.3204     722072.77749    550346.52448                  20239693.5634
        49.0004         41.7504
  23895161.1254    2700779.59449   2059654.91047                  23895159.3834
        44.5004         28.0004
  24286052.0084    -460153.82049   -360847.14346                  24286048.3014
        40.0004         22.0004
  23642745.7584    1888786.24649   1437996.77946                  23642745.8054
        41.5004         24.2504
  21616594.4304    -757227.25049   -583782.05147                  21616591.1294
        44.7504         38.5004
  21393073.1334     -96776.35549    -79698.85147                  21393069.1524
        46.0004         37.7504
  21875439.5474    -174485.65649   -138058.19647                  21875437.0984
        44.5004         33.0004
  22444324.4064     514435.75849    387900.70147                  22444322.8244
        46.5004         33.0004
  23388233.7734    2585898.27349   1971758.88147                  23388231.8524
        41.2504         29.0004
  24146609.7034   -1285673.17249  -1000487.39446                  24146606.3444
        41.7504         22.2504
  24621353.5234    -300096.24349   -234374.57846                  24621351.7774
        39.7504         20.0004
 04  6 29 14 27 30.0000000  0 11G 6G10G16G17G18G21G26G29G30G22G15
  20242147.4454     734954.55549    560384.26348                  20242145.2194
        50.7504         42.0004
  23903670.5164    2745496.79749   2094499.45147                  23903668.6524
        44.0004         26.0004
  24284568.5944    -467951.73849   -366923.49246                  24284564.4494
        39.2504         22.7504
  23648621.4144    1919661.44149   1462055.37646                  23648620.7154
        40.7504         22.7504
  21614162.9454    -770002.59049   -593736.85647                  21614160.1804
        46.7504         38.5004
  21392615.7194     -99181.05549    -81572.65447                  21392611.3984
        47.7504         38.0004
  21875003.0634    -176774.83649   -139841.96047                  21875001.3014
        46.5004         32.5004
  22446087.3364     523697.03949    395117.27547                  22446084.9964
        47.0004         32.2504
  23396357.3134    2628587.65649   2005023.34647                  23396355.6684
        43.5004         30.0004
  24142187.7424   -1308915.86749  -1018598.61846                  24142182.0314
        42.5004         22.5004
  24618547.2194    -314840.88749   -245863.89546                  24618545.3794
        39.0004         19.5004
 04  6 29 14 27 40.0000000  0 11G 6G10G16G17G18G21G26G29G30G22G15
  20244604.6484     747865.19149    570444.50548                  20244602.0704
        50.7504         41.7504
  23912176.7274    2790198.09849   2129331.67546                  23912174.3324
        44.5004         25.5004
  24283089.9534    -475722.52049   -372978.63046                  24283086.0044
        39.7504         22.7504
  23654492.9064    1950518.63349   1486099.95146                  23654493.2384
        41.0004         24.5004
  21611735.6024    -782759.97349   -603677.67347                  21611732.2234
        47.5004         38.5004
  21392156.2974    -101594.83649    -83453.52547                  21392152.3324
        49.5004         38.0004
  21874575.3524    -179023.66849   -141594.30047                  21874573.7234
        44.7504         33.5004
  22447856.5004     532994.83249    402362.30447                  22447854.3134
        46.5004         31.7504
  23404476.8444    2671259.35249   2038274.00347                  23404475.8914
        42.7504         29.0004
  24137764.2274   -1332162.37949  -1036712.78746                  24137758.5044
        43.5004         23.7504
  24615737.9144    -329606.21149   -257369.36246                  24615735.8754
        38.7504         19.5004
 04  6 29 14 27 50.0000000  0 11G 6G10G16G17G18G21G26G29G30G22G15
  20247066.9694     760804.81649    580527.33148                  20247064.1094
        50.5004         41.7504
  23920679.9144    2834883.46549   2164151.44346                  23920677.3794
        44.0004         25.5004
  24281616.7974    -483466.03149   -379012.52946                  24281612.5944
        40.7504         23.0004
  23660362.2194    1981357.93849   1510130.56846                  23660361.7424
        41.5004         24.7504
  21609311.3674    -795499.23849   -613604.36547                  21609308.0824
        48.0004         39.0004
  21391694.7274    -104017.54749    -85341.34947                  21391691.1644
        49.2504         38.0004
  21874155.2664    -181232.09449   -143315.15547                  21874153.5944
        46.0004         33.2504
  22449632.6884     542329.15649    409635.79247                  22449630.0514
        46.7504         32.5004
  23412593.8754    2713913.47349   2071510.94547                  23412592.7114
        43.2504         28.0004
  24133339.1804   -1355412.52049  -1054829.78646                  24133334.1454
        43.5004         24.5004
  24612923.7974    -344392.19149   -268890.82646                  24612921.9534
        39.0004         20.5004
 04  6 29 14 28  0.0000000  0 11G 6G10G16G17G18G21G26G29G30G22G15
  20249534.6884     773773.76249    590632.98848                  20249532.2894
        50.5004         41.7504
  23929180.7034    2879553.23049   2198959.02246                  23929178.6884
        43.7504         25.2504
  24280148.4534    -491181.86749   -385024.85246                  24280144.8754
        41.0004         24.7504
  23666227.7504    2012179.73849   1534147.48346                  23666226.3634
        41.0004         25.0004
  21606890.3984    -808219.98049   -623516.62347                  21606887.8634
        47.7504         38.0004
  21391232.5394    -106448.80149    -87235.84347                  21391228.7814
        48.0004         38.0004
  21873742.7424    -183399.59849   -145004.09447                  21873741.0084
        46.7504         33.5004
  22451416.1884     551700.61749    416938.23647                  22451413.1764
        47.7504         33.2504
  23420707.6724    2756550.19949   2104734.36347                  23420705.6724
        42.0004         27.0004
  24128914.3674   -1378665.85549  -1072949.25846                  24128909.5314
        42.2504         25.5004
  24610105.8054    -359198.32449   -280428.06346                  24610104.1334
        39.0004         21.0004
 04  6 29 14 28 10.0000000  0 11G 6G10G16G17G18G21G26G29G30G22G15
  20252008.3204     786773.27049    600762.46448                  20252005.7704
        51.0004         41.7504
  23937678.3204    2924208.37549   2233755.21347                  23937676.2154
        44.2504         25.7504
  24278685.4694    -498868.76249   -391014.70646                  24278682.6094
        40.7504         24.2504
  23672089.1024    2042985.03149   1558151.64646                  23672089.0044
        41.2504         22.7504
  21604473.4614    -820921.05549   -633413.56247                  21604470.7304
        46.2504         38.2504
  21390768.4924    -108887.54749    -89136.16647                  21390764.5084
        47.2504         37.7504
  21873338.2974    -185524.98049   -146660.24647                  21873336.5944
        47.2504         33.5004
  22453206.9534     561110.25049    424270.40747                  22453204.0744
        47.0004         33.0004
  23428818.2424    2799170.48049   2137944.97947                  23428815.9024
        44.0004         25.7504
  24124488.5004   -1401921.16049  -1091070.27246                  24124484.1334
        42.0004         24.0004
  24607285.3914    -374023.66449   -291980.32546                  24607282.7274
        40.0004         20.2504
 04  6 29 14 28 20.0000000  0 11G 6G10G16G17G18G21G26G29G30G22G15
  20254487.3914     799801.46549    610914.29648                  20254485.1294
        50.7504         42.0004
  23946173.0234    2968847.00049   2268538.54546                  23946170.7234
        44.5004         25.2504
  24277227.6414    -506528.68449   -396983.46547                  24277224.0474
        41.7504         26.0004
  23677948.7584    2073772.13749   1582141.55846                  23677948.3484
        41.5004         23.0004
  21602060.1484    -833604.31249   -643296.61647                  21602056.7854
        46.5004         38.0004
  21390302.5864    -111335.60549    -91043.76147                  21390298.5434
        47.5004         37.5004
  21872941.8674    -187609.98049   -148284.93047                  21872939.7234
        45.7504         33.7504
  22455004.3444     570556.19549    431630.87347                  22455001.4224
        47.0004         33.2504
  23436925.0634    2841772.49249   2171141.33847                  23436922.1884
        45.2504         27.7504
  24120062.1954   -1425180.28949  -1109194.25946                  24120058.1414
        42.0004         22.7504
  24604460.0314    -388869.98849   -303548.86546                  24604457.9454
        40.0004         20.0004
 04  6 29 14 28 30.0000000  0 11G 6G10G16G17G18G21G26G29G30G22G15
  20256971.8914     812857.28549    621087.65248                  20256969.5594
        51.2504         41.5004
  23954663.4774    3013467.82449   2303308.00046                  23954661.6024
        43.2504         25.5004
  24275775.2584    -514162.68749   -402932.07546                  24275771.8554
        43.0004         25.5004
  23683803.0944    2104539.64849   1606116.19546                  23683803.4694
        41.7504         25.0004
  21599649.6954    -846271.01649   -653166.77147                  21599646.6374
        46.5004         38.0004
  21389834.8444    -113794.16049    -92959.51247                  21389830.8284
        47.5004         37.5004
  21872552.4064    -189655.83249   -149879.11847                  21872550.6294
        47.0004         34.0004
  22456808.5004     580037.30549    439018.74647                  22456805.6374
        46.5004         32.5004
  23445027.7974    2884354.75049   2204322.33347                  23445025.9884
        45.0004         27.0004
  24115634.6174   -1448444.42649  -1127322.17146                  24115630.3954
        41.5004         21.7504
  24601630.8984    -403738.58649   -315134.79846                  24601628.6214
        40.2504         19.5004
 04  6 29 14 28 40.0000000  0 11G 6G10G16G17G18G21G26G29G30G22G15
  20259462.2424     825942.40649    631283.85048                  20259459.2894
        51.2504         41.7504
  23963151.8444    3058072.65249   2338065.05746                  23963149.1094
        43.5004         24.7504
  24274327.8754    -521768.86749   -408858.96246                  24274324.1644
        43.0004         25.2504
  23689654.5164    2135289.58649   1630077.15346                  23689654.7934
        42.0004         24.7504
  21597242.5554    -858919.10949   -663022.42247                  21597239.8324
        48.0004         38.0004
  21389365.2584    -116261.25449    -94881.92047                  21389361.4614
        49.7504         38.0004
  21872170.7194    -191660.55149   -151441.22347                  21872169.0704
        46.0004         33.7504
  22458619.9064     589555.36749    446435.41447                  22458616.9184
        46.2504         32.2504
  23453127.6334    2926919.09849   2237489.35847                  23453126.1884
        43.2504         27.5004
  24111207.5004   -1471711.62949  -1145452.47446                  24111202.4534
        41.0004         22.7504
  24598797.0944    -418627.49249   -326736.53646                  24598795.6914
        39.7504         21.0004
 04  6 29 14 28 50.0000000  0 11G 6G10G16G17G18G21G26G29G30G22G15
  20261958.6644     839061.23449    641506.30948                  20261956.0234
        51.0004         42.0004
  23971637.4064    3102665.58649   2372812.74646                  23971634.9774
        43.7504         25.2504
  24272886.5704    -529342.86349   -414760.78246                  24272883.0274
        42.2504         24.7504
  23695504.1484    2166026.14149   1654027.69646                  23695502.6804
        42.5004         24.5004
  21594840.1804    -871544.38749   -672860.29747                  21594837.2034
        49.2504         38.5004
  21388894.8444    -118732.84049    -96807.83447                  21388891.2734
        49.5004         37.5004
  21871797.9144    -193619.81649   -152967.90547                  21871796.0634
        47.5004         33.5004
  22460438.3054     599114.77349    453884.30347                  22460435.8524
        46.0004         32.5004
  23461224.7814    2969469.78549   2270645.68947                  23461223.4734
        42.5004         27.5004
  24106781.1954   -1494977.48849  -1163581.65347                  24106776.4104
        43.5004         26.0004
  24595961.2344    -433532.52349   -338350.76546                  24595959.8204
        40.2504         21.2504
 04  6 29 14 29  0.0000000  0 11G 6G10G16G17G18G21G26G29G30G22G15
  20264461.2274     852212.23049    651753.84148                  20264458.6134
        51.5004         42.0004
  23980120.3204    3147244.97349   2407549.93547                  23980118.7034
        43.5004         26.0004
  24271451.2344    -536886.26649   -420638.73147                  24271447.8284
        42.5004         26.2504
  23701350.2894    2196747.83249   1677966.65447                  23701348.3674
        42.5004         25.7504
  21592441.6804    -884148.26249   -682681.48947                  21592438.0904
        49.2504         38.2504
  21388423.4454    -121210.44949    -98738.45047                  21388419.4654
        50.5004         37.7504
  21871433.9774    -195535.00849   -154460.26947                  21871431.2974
        47.5004         33.7504
  22462264.9844     608713.94949    461364.19847                  22462262.6094
        47.0004         32.5004
  23469318.8054    3012004.93849   2303789.93047                  23469317.7814
        44.0004         27.0004
  24102353.8914   -1518243.57449  -1181711.09647                  24102350.0784
        44.5004         27.7504
  24593121.2114    -448455.22749   -349978.88346                  24593120.6174
        40.0004         23.7504
 04  6 29 14 29 10.0000000  0 11G 6G10G16G17G18G21G26G29G30G22G15
  20266969.6954     865394.67249    662025.86748                  20266967.1024
        50.5004         42.0004
  23988600.8134    3191810.02049   2442275.88147                  23988599.5204
        43.5004         26.7504
  24270021.4694    -544399.71949   -426493.38247                  24270017.5004
        42.0004         25.7504
  23707193.5554    2227453.91049   1701893.44246                  23707191.6094
        42.5004         23.2504
  21590047.3284    -896731.55549   -692486.64247                  21590044.1804
        50.0004         38.0004
  21387950.6644    -123694.81649   -100674.31947                  21387946.7384
        48.7504         38.0004
  21871077.7584    -197406.83649   -155918.85947                  21871074.7974
        46.7504         34.2504
  22464099.1254     618352.23849    468874.53447                  22464096.8324
        46.7504         32.7504
  23477410.5474    3054523.80149   2336921.50647                  23477408.7074
        45.0004         27.5004
  24097926.2274   -1541510.52749  -1199841.17047                  24097923.0664
        44.0004         27.2504
  24590277.9614    -463396.36749   -361621.36646                  24590277.3054
        39.5004         21.5004
 04  6 29 14 29 20.0000000  0 11G 6G10G16G17G18G21G26G29G30G22G15
  20269484.3524     878609.92649    672323.45848                  20269481.6644
        51.0004         42.0004
  23997079.3364    3236362.05949   2476991.76147                  23997077.2894
        43.0004         26.0004
  24268597.8524    -551881.75849   -432323.55046                  24268593.7894
        43.5004         25.5004
  23713033.4924    2258145.65649   1725809.02246                  23713031.7274
        41.5004         22.7504
  21587656.9774    -909292.84449   -702274.67347                  21587653.3324
        49.7504         38.0004
  21387476.8594    -126184.43749   -102614.28147                  21387472.9064
        48.0004         38.2504
  21870729.9844    -199233.88349   -157342.52747                  21870727.8754
        45.0004         35.2504
  22465941.3674     628030.98049    476416.38647                  22465939.1414
        46.0004         33.0004
  23485499.0004    3097027.64149   2370041.37547                  23485496.8404
        45.2504         28.0004
  24093497.6414   -1564776.91849  -1217970.82846                  24093494.7624
        41.5004         25.5004
  24587431.3754    -478354.55549   -373277.03446                  24587431.1134
        39.7504         22.7504
 04  6 29 14 29 30.0000000  0 11G 6G10G16G17G18G21G26G29G30G22G15
  20272006.3914     891862.63349    682650.24148                  20272003.7774
        51.5004         42.0004
  24005554.8524    3280905.51249   2511700.86646                  24005554.1334
        42.5004         25.2504
  24267180.9304    -559327.80149   -438125.70547                  24267176.9414
        43.5004         26.7504
  23718872.5634    2288827.70749   1749717.11246                  23718870.8364
        43.0004         23.2504
  21585271.5474    -921827.42649   -712041.88047                  21585268.1094
        50.0004         38.0004
  21387002.9694    -128674.91449   -104554.92847                  21386998.9734
        49.0004         38.0004
  21870391.5394    -201011.50849   -158727.68647                  21870390.1524
        46.5004         35.5004
  22467791.6724     637754.71149    483993.34147                  22467789.4734
        46.0004         33.0004
  23493584.6024    3139520.87949   2403153.00447                  23493582.9694
        44.2504         26.5004
  24089071.4064   -1588038.20749  -1236096.43446                  24089068.0124
        42.0004         22.5004
  24584583.5004    -493325.28949   -384942.48446                  24584582.4964
        40.5004         22.7504
 04  6 29 14 29 40.0000000  0 11G 6G10G16G17G18G21G26G29G30G22G15
  20274534.5944     905148.35249    693002.73248                  20274532.2624
        51.7504         42.2504
  24014028.2894    3325435.89549   2546399.85346                  24014027.7584
        41.7504         22.5004
  24265769.7664    -566742.19949   -443903.14847                  24265766.0004
        44.0004         26.2504
  23724707.6564    2319495.66049   1773614.22346                  23724706.3404
        41.5004         22.7504
  21582890.5704    -934339.74649   -721791.73847                  21582887.2194
        50.7504         38.2504
  21386528.2424    -131170.50449   -106499.54547                  21386524.1024
        50.7504         38.0004
  21870061.7344    -202743.95749   -160077.64447                  21870060.3914
        48.0004         36.5004
  22469649.9454     647519.15649    491602.00247                  22469647.3554
        46.5004         33.0004
  23501667.3594    3181999.14849   2436252.94647                  23501666.5944
        43.0004         27.2504
  24084645.1564   -1611298.65649  -1254221.53746                  24084640.9414
        42.5004         22.7504
  24581730.3984    -508312.91049   -396621.17446                  24581730.3324
        41.0004         24.5004
 04  6 29 14 29 50.0000000  0 11G 6G10G16G17G18G21G26G29G30G22G15
  20277069.2974     918468.93449    703382.40048                  20277067.0984
        51.0004         42.5004
  24022501.3134    3369954.89849   2581089.93846                  24022499.6254
        42.0004         23.0004
  24264364.9924    -574123.03549   -449654.44747                  24264361.0274
        43.0004         26.5004
  23730541.6804    2350151.31349   1797501.73346                  23730540.4964
        41.5004         24.2504
  21580514.2034    -946827.98049   -731522.81047                  21580510.8364
        50.0004         38.0004
  21386052.6884    -133669.45349   -108446.77247                  21386048.8134
        51.0004         38.0004
  21869741.0704    -204429.35549   -161390.94847                  21869739.6054
        48.7504         35.7504
  22471516.3134     657326.01649    499243.70447                  22471513.6764
        47.0004         33.2504
  23509747.7584    3224463.99649   2469342.41747                  23509747.5944
        43.0004         26.0004
  24080219.4924   -1634556.41849  -1272344.49146                  24080214.2424
        43.2504         22.7504
  24578876.0314    -523315.62149   -408311.56546                  24578874.9534
        40.0004         22.5004
 04  6 29 14 30  0.0000000  0 11G 6G10G16G17G18G21G26G29G30G22G15
  20279611.2424     931825.62949    713790.21448                  20279608.4534
        51.0004         42.0004
  24030970.1954    3414463.71549   2615772.14346                  24030969.1294
        42.5004         23.5004
  24262967.2814    -581469.09849   -455378.63546                  24262963.4144
        42.2504         25.5004
  23736372.9064    2380795.92249   1821380.61446                  23736372.1414
        42.0004         25.0004
  21578142.9144    -959290.89849   -741234.19147                  21578139.0864
        50.0004         38.0004
  21385576.8754    -136170.61749   -110395.73847                  21385572.6914
        50.0004         38.5004
  21869429.7734    -206066.52349   -162666.65447                  21869427.6604
        48.7504         35.5004
  22473390.0314     667176.59049    506919.46347                  22473388.2704
        46.0004         32.5004
  23517827.2584    3266916.56649   2502422.31447                  23517825.9224
        43.7504         27.0004
  24075794.5394   -1657810.16849  -1290464.25746                  24075790.3554
        44.5004         25.5004
  24576018.2114    -538332.21149   -420012.78046                  24576017.6214
        40.2504         22.5004
 04  6 29 14 30 10.0000000  0 11G 6G10G16G17G18G21G26G29G30G22G15
  20282159.7894     945217.91049    724225.75348                  20282157.1254
        51.7504         41.7504
  24039437.3914    3458961.60549   2650445.76546                  24039436.6724
        42.0004         24.5004
  24261575.9924    -588781.03149   -461076.24247                  24261572.1684
        42.2504         27.0004
  23742202.3674    2411428.83649   1845250.37546                  23742201.8164
        42.2504         23.0004
  21575775.8364    -971729.02749   -750926.23847                  21575771.8954
        50.0004         38.5004
  21385100.3364    -138674.64849   -112346.94047                  21385096.2344
        50.7504         38.5004
  21869127.5314    -207655.93449   -163905.16947                  21869125.2274
        48.5004         35.5004
  22475272.7584     677070.19549    514628.76847                  22475270.7934
        46.0004         32.7504
  23525903.0314    3309356.06349   2535492.02747                  23525902.1134
        45.0004         28.0004
  24071370.6174   -1681060.47349  -1308581.36547                  24071367.2384
        44.5004         27.0004
  24573158.2114    -553363.38749   -431725.38246                  24573157.3444
        40.0004         22.7504
 04  6 29 14 30 20.0000000  0 11G 6G10G16G17G18G21G26G29G30G22G15
  20284714.8914     958646.43449    734689.53948                  20284712.3524
        51.0004         42.0004
  24047902.7274    3503449.16049   2685111.34846                  24047902.5204
        40.7504         22.0004
  24260191.0474    -596058.02749   -466746.66447                  24260187.6684
        42.0004         26.7504
  23748029.4224    2442050.79349   1869111.65946                  23748028.8714
        42.7504         23.2504
  21573413.9064    -984141.62549   -760598.38047                  21573409.9494
        50.0004         38.0004
  21384623.1174    -141180.69549   -114299.70347                  21384619.4144
        49.7504         38.0004
  21868834.3284    -209196.77349   -165105.82447                  21868832.2544
        48.2504         35.2504
  22477163.8674     687007.76249    522372.32747                  22477161.9924
        45.5004         32.0004
  23533976.6724    3351783.22749   2568552.15347                  23533975.4614
        44.2504         28.2504
  24066946.3984   -1704306.58649  -1326695.20647                  24066943.7274
        43.5004         27.5004
  24570296.1414    -568408.38749   -443448.76346                  24570294.5824
        40.7504         22.7504
 04  6 29 14 30 30.0000000  0 11G 6G10G16G17G18G21G26G29G30G22G15
  20287277.9694     972114.59849    745184.21848                  20287275.5124
        52.0004         42.0004
  24056368.1334    3547929.73849   2719771.52646                  24056367.1334
        41.5004         23.2504
  24258813.4844    -603296.62149   -472387.09847                  24258810.0234
        43.0004         27.5004
  23753855.8754    2472665.21549   1892967.00946                  23753854.9344
        42.5004         22.5004
  21571057.3204    -996525.31249   -770248.00747                  21571053.7274
        50.5004         38.2504
  21384146.9144    -143685.35549   -116251.38947                  21384142.7154
        50.7504         39.0004
  21868550.7734    -210685.61349   -166265.95847                  21868548.9844
        48.5004         34.5004
  22479063.7274     696992.49249    530152.63047                  22479062.0744
        45.2504         33.0004
  23542048.4454    3394201.16849   2601605.08346                  23542047.3284
        43.0004         25.2504
  24062524.1484   -1727545.05549  -1344803.10146                  24062521.2854
        43.0004         25.5004
  24567429.7894    -583463.85949   -455180.31746                  24567429.2814
        40.0004         22.5004
 04  6 29 14 30 40.0000000  0 11G 6G10G16G17G18G21G26G29G30G22G15
  20289847.7274     985619.40249    755707.43748                  20289845.2274
        51.7504         42.7504
  24064830.7664    3592400.24649   2754423.79946                  24064829.5204
        42.2504         24.5004
  24257442.8134    -610499.84849   -478000.00947                  24257439.4614
        42.7504         26.2504
  23759679.5394    2503268.98849   1916814.08346                  23759677.7464
        43.2504         23.0004
  21568705.5084   -1008883.03549   -779877.39047                  21568701.7154
        49.0004         37.5004
  21383669.7894    -146191.63749   -118204.33747                  21383665.6564
        49.5004         38.5004
  21868276.8364    -212125.46949   -167387.93247                  21868275.3484
        48.5004         35.5004
  22480972.5164     707021.46149    537967.40347                  22480971.0164
        45.2504         32.5004
  23550117.8834    3436606.96549   2634648.57546                  23550116.0004
        43.0004         25.2504
  24058103.1954   -1750778.93449  -1362907.38746                  24058099.3134
        42.5004         24.5004
  24564562.0634    -598532.87149   -466922.33846                  24564561.8834
        39.5004         22.0004
 04  6 29 14 30 50.0000000  0 11G 6G10G16G17G18G21G26G29G30G22G15
  20292424.0234     999157.87949    766256.88548                  20292421.1564
        51.7504         42.0004
  24073290.4064    3636857.57049   2789065.89747                  24073289.5824
        42.5004         26.0004
  24256078.1724    -617670.53149   -483587.54047                  24256074.9304
        43.0004         27.0004
  23765500.4774    2533859.19949   1940650.58446                  23765498.6604
        44.2504         24.2504
  21566358.4224   -1021217.72749   -789488.82947                  21566355.0204
        50.0004         38.2504
  21383192.3444    -148702.61749   -120160.94747                  21383188.2584
        50.5004         39.0004
  21868011.7734    -213519.15649   -168473.92447                  21868010.1724
        49.0004         36.0004
  22482888.5394     717091.71949    545814.36247                  22482887.1564
        46.0004         32.0004
  23558184.2424    3478997.39549   2667680.04946                  23558182.6524
        42.5004         25.0004
  24053682.1644   -1774010.96549  -1381010.29246                  24053678.2814
        42.5004         25.5004
  24561691.2734    -613618.28149   -478677.14946                  24561691.2304
        39.7504         21.2504
 04  6 29 14 31  0.0000000  0 11G 6G10G16G17G18G21G26G29G30G22G15
  20295006.7894    1012731.20349    776833.50548                  20295004.4024
        50.5004         42.0004
  24081747.7194    3681302.73049   2823698.46746                  24081747.2704
        43.0004         25.2504
  24254720.0784    -624807.64549   -489148.95447                  24254716.8094
        42.0004         26.5004
  23771319.7034    2564436.91049   1964477.36346                  23771317.8714
        44.5004         24.2504
  21564015.8054   -1033528.27049   -799081.47447                  21564012.1214
        48.7504         37.7504
  21382713.6954    -151217.19149   -122120.35247                  21382709.5204
        48.7504         38.7504
  21867755.6644    -214865.52349   -169523.03547                  21867753.7664
        49.0004         35.5004
  22484813.1724     727204.34849    553694.32347                  22484811.4344
        45.5004         32.2504
  23566248.2664    3521373.39549   2700700.27347                  23566247.0234
        43.0004         26.2504
  24049261.3674   -1797240.13349  -1399110.94746                  24049257.8834
        41.0004         24.5004
  24558817.9774    -628719.08249   -490444.04846                  24558817.9574
        39.5004         21.0004
 04  6 29 14 31 10.0000000  0 11G 6G10G16G17G18G21G26G29G30G22G15
  20297597.1804    1026342.71149    787439.86348                  20297594.5824
        51.5004         42.2504
  24090204.4224    3725738.97349   2858324.07446                  24090202.7854
        42.7504         25.2504
  24253369.6884    -631907.71149   -494681.48546                  24253365.6214
        44.0004         25.5004
  23777135.6884    2595005.44949   1988296.99946                  23777135.4884
        42.5004         22.7504
  21561678.2194   -1045811.30149   -808652.66747                  21561674.8054
        46.5004         38.0004
  21382235.0784    -153731.93749   -124079.90647                  21382230.8284
        47.0004         38.7504
  21867508.8054    -216161.18749   -170532.65847                  21867507.2664
        48.2504         36.0004
  22486746.2194     737362.66849    561609.90547                  22486743.6524
        45.5004         32.0004
  23574310.5474    3563738.30549   2733711.87747                  23574308.7504
        43.7504         27.5004
  24044841.7344   -1820463.02049  -1417206.67346                  24044838.6294
        40.5004         25.5004
  24555941.7584    -643831.87949   -502220.24446                  24555941.7544
        38.7504         21.2504
 04  6 29 14 31 20.0000000  0 11G 6G10G16G17G18G21G26G29G30G22G15
  20300194.9924    1039993.31649    798076.69748                  20300192.3834
        51.0004         42.2504
  24098659.0474    3770167.04749   2892943.33947                  24098657.4024
        43.0004         26.5004
  24252025.4224    -638969.85949   -500184.42046                  24252022.2424
        43.5004         25.5004
  23782951.0234    2625565.72349   2012110.18146                  23782950.2934
        41.0004         22.5004
  21559346.4144   -1058065.91849   -818201.70747                  21559342.8134
        46.7504         38.5004
  21381756.6094    -156246.14549   -126039.03247                  21381752.5274
        47.0004         38.5004
  21867272.2344    -217405.14549   -171501.95947                  21867270.1564
        48.5004         35.5004
  22488687.8444     747567.62149    569561.81147                  22488685.8324
        46.0004         32.2504
  23582369.9454    3606092.74649   2766715.33247                  23582368.9884
        42.0004         27.0004
  24040424.7584   -1843678.73049  -1435296.82746                  24040419.9694
        40.5004         22.2504
  24553063.8524    -658955.90249   -514005.14746                  24553063.5124
        40.0004         21.5004
 04  6 29 14 31 30.0000000  0 11G 6G10G16G17G18G21G26G29G30G22G15
  20302799.3674    1053679.60249    808741.33248                  20302796.5204
        51.0004         42.0004
  24107111.7114    3814583.54749   2927553.56847                  24107109.4804
        42.2504         26.5004
  24250688.5394    -645997.41849   -505660.49547                  24250684.9844
        42.7504         26.5004
  23788764.7274    2656114.22349   2035914.16846                  23788764.0474
        41.2504         22.7504
  21557018.9614   -1070295.52349   -827731.26847                  21557015.7934
        48.2504         38.0004
  21381277.4534    -158763.11749   -128000.29747                  21381274.1524
        47.7504         38.5004
  21867044.4144    -218600.73449   -172433.58847                  21867042.5204
        48.0004         34.5004
  22490638.1804     757815.75449    577547.34647                  22490636.3244
        45.5004         32.2504
  23590427.6804    3648433.37549   2799707.99547                  23590425.6804
        42.5004         27.0004
  24036007.9224   -1866890.53949  -1453383.97646                  24036002.9574
        43.2504         22.7504
  24550183.3984    -674094.50049   -525801.50146                  24550182.3404
        38.7504         22.0004
 04  6 29 14 31 40.0000000  0 11G 6G10G16G17G18G21G26G29G30G22G15
  20305410.0864    1067398.84849    819431.64348                  20305407.3594
        51.0004         42.0004
  24115560.9614    3858985.62549   2962152.52246                  24115559.1054
        42.7504         25.0004
  24249356.3914    -652993.04349   -511111.63347                  24249352.9344
        44.5004         27.2504
  23794575.0634    2686648.48849   2059707.10946                  23794573.5514
        41.5004         22.0004
  21554696.3914   -1082502.87949   -837243.49147                  21554692.9614
        48.7504         38.5004
  21380797.6024    -161285.53549   -129965.82947                  21380793.8054
        49.5004         38.5004
  21866825.6724    -219750.60949   -173329.60547                  21866823.6334
        48.2504         34.5004
  22492596.1804     768104.49649    585564.55547                  22492594.7424
        45.7504         32.2504
  23598481.4614    3690757.27749   2832687.64447                  23598479.5824
        42.0004         27.2504
  24031591.3674   -1890101.12949  -1471470.16146                  24031585.7384
        43.7504         23.5004
  24547299.5394    -689250.43749   -537611.26646                  24547298.0084
        39.5004         21.7504
 04  6 29 14 31 50.0000000  0 11G 6G10G16G17G18G21G26G29G30G22G15
  20308030.5864    1081170.63349    830162.90448                  20308028.0824
        51.5004         41.7504
  24124010.8284    3903392.75049   2996755.42546                  24124009.9224
        42.5004         24.5004
  24248034.8364    -659937.18049   -516522.64747                  24248031.5044
        42.7504         26.7504
  23800386.4924    2717187.77349   2083503.93246                  23800384.3444
        42.5004         22.0004
  21552381.3674   -1094668.33249   -846723.05247                  21552377.6484
        48.0004         38.0004
  21380320.3524    -163793.94149   -131920.42647                  21380317.1254
        47.7504         38.5004
  21866619.2664    -220835.20349   -174174.73547                  21866617.2194
        47.7504         34.5004
  22494565.9614     778453.28549    593628.55047                  22494563.8524
        47.0004         33.2504
  23606535.9454    3733083.91849   2865669.44847                  23606533.6844
        43.2504         26.2504
  24027178.3594   -1913290.87149  -1489540.10847                  24027173.5164
        43.7504         26.0004
  24544415.7734    -704404.19949   -549419.37946                  24544414.6024
        40.2504         21.7504
 04  6 29 14 32  0.0000000  0 11G 6G10G16G17G18G21G26G29G30G22G15
  20310664.2504    1095010.32449    840947.06348                  20310661.4924
        50.5004         41.5004
  24132465.3754    3947820.24649   3031374.27646                  24132463.8594
        42.5004         23.7504
  24246726.8524    -666814.39149   -521881.53246                  24246723.3554
        41.5004         25.0004
  23806201.6414    2747747.60949   2107316.81546                  23806199.0354
        41.7504         21.7504
  21550077.2584   -1106776.37149   -856157.88447                  21550073.8874
        47.2504         39.0004
  21379848.3054    -166272.87549   -133852.06247                  21379845.2934
        47.5004         38.2504
  21866428.2034    -221839.06249   -174956.96447                  21866426.4574
        48.5004         34.5004
  22496549.5704     788877.51249    601751.33747                  22496547.4804
        47.7504         33.0004
  23614593.5474    3775428.51249   2898665.21747                  23614591.3674
        43.5004         25.7504
  24022772.3364   -1936444.28949  -1507581.74147                  24022768.3284
        43.7504         27.5004
  24541534.9694    -719540.40249   -561213.81446                  24541534.4614
        39.5004         21.5004
 04  6 29 14 32 10.0000000  0 11G 6G10G16G17G18G21G26G29G30G22G15
  20313304.8204    1108886.01649    851759.27748                  20313301.8324
        51.2504         42.0004
  24140917.2974    3992236.00049   3065983.90846                  24140916.1214
        42.0004         24.7504
  24245424.4614    -673656.58249   -527213.07447                  24245421.2704
        42.5004         26.2504
  23812015.2114    2778296.12149   2131120.80446                  23812011.3364
        41.5004         22.0004
  21547777.7664   -1118858.92249   -865572.85647                  21547774.6684
        47.5004         39.0004
  21379376.3594    -168754.37149   -135785.70247                  21379372.5354
        47.0004         38.0004
  21866246.3284    -222794.02049   -175701.09047                  21866244.8714
        48.2504         34.7504
  22498541.6174     799345.27749    609908.01847                  22498539.5434
        46.7504         33.2504
  23622649.0084    3817759.01249   2931649.99847                  23622646.8164
        44.5004         26.0004
  24018366.8754   -1959593.37149  -1525619.95547                  24018364.2894
        42.0004         27.5004
  24538652.8674    -734691.00449   -573019.45246                  24538651.5234
        40.2504         21.0004
 04  6 29 14 32 20.0000000  0 11G 6G10G16G17G18G21G26G29G30G22G15
  20315938.1334    1122724.61749    862542.60848                  20315935.3284
        51.0004         42.0004
  24149353.3444    4036566.83649   3100527.40946                  24149351.6994
        42.2504         24.5004
  24244115.3284    -680536.81249   -532574.32646                  24244112.2584
        41.5004         25.2504
  23817812.2344    2808760.07449   2154858.93246                  23817808.3524
        42.0004         21.5004
  21545469.5704   -1130989.12149   -875024.94447                  21545466.2114
        48.0004         38.7504
  21378889.6414    -171311.50849   -137778.27447                  21378886.0434
        47.7504         38.0004
  21866060.3914    -223773.16049   -176464.06047                  21866058.7034
        48.0004         35.2504
  22500527.8134     809783.48449    618041.67947                  22500525.7344
        47.0004         32.7504
  23630687.6484    3860002.16849   2964566.76547                  23630685.2974
        43.7504         26.2504
  24013948.2114   -1982811.15649  -1543711.69146                  24013945.5164
        41.0004         25.0004
  24535752.5784    -749929.06249   -584893.28946                  24535751.5864
        39.7504         20.7504
 04  6 29 14 32 30.0000000  0 11G 6G10G16G17G18G21G26G29G30G22G15
  20318572.8834    1136569.84849    873331.09748                  20318569.8554
        51.2504         42.0004
  24157781.3834    4080856.35949   3135038.71546                  24157779.1804
        42.2504         23.5004
  24242807.0944    -687411.31249   -537931.07746                  24242804.3914
        42.5004         24.5004
  23823601.7424    2839183.23849   2178565.29246                  23823598.3244
        43.0004         22.2504
  21543160.3204   -1143123.26249   -884480.12147                  21543157.0944
        48.5004         39.0004
  21378396.9454    -173900.62149   -139795.76647                  21378393.6134
        48.2504         38.0004
  21865877.6644    -224732.64549   -177211.69847                  21865875.3444
        48.5004         35.0004
  22502516.9304     820235.83649    626186.35047                  22502515.1024
        47.7504         33.0004
  23638717.7034    3902201.64549   2997449.44947                  23638715.6214
        45.0004         25.7504
  24009525.9844   -2006053.87549  -1561822.86646                  24009521.8984
        43.0004         24.5004
  24532844.4534    -765210.95349   -596801.22146                  24532843.6414
        38.7504         20.7504
 04  6 29 14 32 40.0000000  0 11G 6G10G16G17G18G21G26G29G30G22G15
  20321217.9384    1150470.36349    884162.67348                  20321215.0594
        51.2504         42.0004
  24166211.0234    4125153.04749   3169555.60346                  24166208.3914
        42.5004         23.0004
  24241508.7664    -694231.53949   -543245.53446                  24241506.6644
        41.7504         25.2504
  23829392.3984    2869614.10549   2202277.65846                  23829389.9414
        43.2504         22.7504
  21540860.2584   -1155212.72349   -893900.47847                  21540856.5434
        48.0004         38.7504
  21377907.2734    -176473.11349   -141800.29947                  21377903.7194
        48.0004         37.5004
  21865708.1484    -225623.84449   -177906.14747                  21865705.9384
        49.5004         34.5004
  22504517.7974     830750.92249    634379.93447                  22504515.9184
        47.0004         32.7504
  23646749.2814    3944405.83249   3030335.81447                  23646747.1844
        44.2504         26.2504
  24005108.0554   -2029272.91449  -1579915.69747                  24005103.0864
        44.2504         26.7504
  24529937.0784    -780488.10949   -608705.43346                  24529936.4024
        36.7504         21.0004
 04  6 29 14 32 50.0000000  0 11G 6G10G16G17G18G21G26G29G30G22G15
  20323873.2584    1164424.54349    895036.05348                  20323870.5084
        50.7504         41.2504
  24174641.2114    4169455.31349   3204076.86246                  24174638.2734
        41.5004         22.0004
  24240221.1024    -700998.89549   -548518.80246                  24240218.9574
        41.5004         24.0004
  23835184.2814    2900051.28549   2225994.87046                  23835182.6994
        42.0004         22.5004
  21538567.6484   -1167259.01649   -903287.19447                  21538564.3754
        48.2504         38.5004
  21377420.7664    -179030.42649   -143793.01447                  21377417.1094
        48.0004         37.5004
  21865550.7894    -226448.24249   -178548.53547                  21865548.7934
        48.7504         34.2504
  22506530.2504     841327.27049    642621.25747                  22506528.7734
        46.5004         33.0004
  23654781.1564    3986613.22349   3063224.65647                  23654778.5864
        44.5004         26.0004
  24000693.7194   -2052469.65649  -1597991.07047                  24000688.7854
        44.2504         27.7504
  24527030.7344    -795762.02049   -620607.22046                  24527029.2734
        38.2504         20.7504
 04  6 29 14 33  0.0000000  0 11G 6G10G16G17G18G21G26G29G30G22G15
  20326536.8674    1178423.24649    905944.13248                  20326534.2274
        51.0004         41.7504
  24183070.9924    4213753.86749   3238595.20346                  24183068.1414
        41.0004         21.7504
  24238942.2194    -707722.59449   -553758.06647                  24238938.9694
        40.7504         26.0004
  23840975.7894    2930485.39549   2249709.82746                  23840973.9844
        40.7504         21.5004
  21536281.4384   -1179271.22749   -912647.35247                  21536278.5314
        48.0004         38.0004
  21376935.2194    -181581.86749   -145781.14547                  21376931.5164
        48.5004         38.0004
  21865405.0234    -227215.04349   -179146.05347                  21865403.4384
        47.5004         34.0004
  22508552.8054     851955.55549    650903.01047                  22508551.0984
        47.0004         33.5004
  23662811.2274    4028814.32049   3096108.60447                  23662809.1844
        44.2504         26.5004
  23996281.7734   -2075653.34449  -1616056.28547                  23996277.7034
        44.0004         27.5004
  24524123.0784    -811041.95749   -632513.67546                  24524121.7074
        37.5004         20.7504
 04  6 29 14 33 10.0000000  0 11G 6G10G16G17G18G21G26G29G30G22G15
  20329208.2894    1192460.14849    916881.97848                  20329205.5704
        50.7504         41.5004
  24191499.3444    4258042.20349   3273105.60646                  24191496.8874
        42.0004         22.0004
  24237669.5474    -714409.02749   -558968.26946                  24237666.3754
        39.7504         24.0004
  23846765.3444    2960910.18049   2273417.36046                  23846764.3244
        41.7504         22.5004
  21534001.0164   -1191255.79349   -921985.95947                  21533997.9804
        48.5004         38.7504
  21376449.4614    -184133.76649   -147769.65447                  21376445.8094
        49.0004         38.5004
  21865268.8524    -227930.44149   -179703.50047                  21865266.8324
        48.0004         34.0004
  22510584.0234     862629.63349    659220.48347                  22510581.9414
        46.2504         33.0004
  23670839.7344    4071002.75049   3128982.69147                  23670837.9574
        44.5004         27.0004
  23991871.2814   -2098830.27749  -1634116.24547                  23991867.1524
        43.5004         27.0004
  24521213.0084    -826334.28149   -644429.70546                  24521211.5394
        38.0004         21.0004
 04  6 29 14 33 20.0000000  0 11G 6G10G16G17G18G21G26G29G30G22G15
  20331886.7734    1206536.11749    927850.26548                  20331883.7234
        51.2504         41.2504
  24199924.6724    4302321.19549   3307608.66146                  24199922.2934
        40.7504         22.5004
  24236404.8524    -721057.16849   -564148.63846                  24236401.4774
        40.0004         24.0004
  23852552.8834    2991326.52749   2297118.43846                  23852552.0704
        41.2504         22.5004
  21531725.9064   -1203211.79749   -931302.31847                  21531722.7504
        49.2504         38.5004
  21375964.1094    -186685.28149   -149757.86147                  21375960.1374
        49.2504         37.7504
  21865143.0084    -228593.55949   -180220.19447                  21865140.8134
        48.5004         34.7504
  22512624.0084     873350.20749    667574.16947                  22512622.1454
        46.2504         33.2504
  23678866.0944    4113179.28949   3161847.53047                  23678863.8634
        45.5004         28.5004
  23987463.1174   -2121999.55549  -1652170.19647                  23987458.0784
        44.0004         28.5004
  24518300.1334    -841638.08249   -656354.72846                  24518299.7624
        36.5004         20.0004
 04  6 29 14 33 30.0000000  0 11G 6G10G16G17G18G21G26G29G30G22G15
  20334572.6724    1220650.17649    938848.23448                  20334569.8164
        51.5004         41.7504
  24208348.7114    4346589.72749   3342103.68646                  24208346.6174
        39.2504         21.7504
  24235146.5314    -727668.04749   -569299.95846                  24235143.4574
        40.7504         24.2504
  23858338.5084    3021733.37149   2320812.04946                  23858337.8554
        38.7504         22.5004
  21529456.0554   -1215140.23049   -940597.19847                  21529453.1414
        49.7504         38.5004
  21375478.3444    -189237.41449   -151746.52847                  21375474.0864
        49.0004         38.2504
  21865026.5474    -229205.26649   -180696.86847                  21865024.2114
        49.0004         34.2504
  22514673.0944     884116.24249    675963.28647                  22514671.1214
        47.0004         33.5004
  23686889.8204    4155342.78949   3194702.18447                  23686887.5704
        46.2504         28.0004
  23983054.8594   -2145162.05149  -1670218.90847                  23983049.7664
        44.0004         26.7504
  24515386.2034    -856954.44149   -668289.54146                  24515384.4304
        38.2504         20.2504
 04  6 29 14 33 40.0000000  0 11G 6G10G16G17G18G21G26G29G30G22G15
  20337265.9694    1234803.68049    949876.94048                  20337263.0394
        51.5004         41.5004
  24216770.5634    4390849.00449   3376591.29746                  24216768.9654
        39.7504         22.0004
  24233895.8984    -734240.23449   -574421.16546                  24233892.6484
        40.5004         22.7504
  23864124.2034    3052132.02749   2344499.29146                  23864123.1884
        38.7504         22.0004
  21527191.5474   -1227039.75049   -949869.54447                  21527188.5984
        49.7504         38.7504
  21374992.9844    -191788.81649   -153734.63747                  21374988.8984
        49.5004         38.5004
  21864920.4694    -229764.22749   -181132.42647                  21864918.1054
        48.2504         34.5004
  22516730.2664     894929.18449    684388.95647                  22516729.0864
        46.7504         34.2504
  23694910.2034    4197494.42249   3227547.61547                  23694908.4774
        46.0004         27.5004
  23978647.8594   -2168316.44549  -1688261.29446                  23978644.0784
        43.7504         25.2504
  24512469.5864    -872282.05549   -680233.07246                  24512467.6804
        37.5004         20.2504
 04  6 29 14 33 50.0000000  0 11G 6G10G16G17G18G21G26G29G30G22G15
  20339966.6954    1248996.37549    960936.17748                  20339963.8874
        50.7504         42.0004
  24225191.1954    4435098.80949   3411071.66546                  24225189.8834
        40.2504         22.0004
  24232652.3834    -740773.99249   -579512.40246                  24232648.3634
        41.2504         22.5004
  23869907.4774    3082522.35549   2368180.06546                  23869905.5634
        38.0004         20.7504
  21524932.7664   -1238910.52049   -959119.50147                  21524929.5044
        48.7504         38.5004
  21374507.5314    -194339.85249   -155722.46747                  21374503.5744
        49.7504         38.5004
  21864824.1804    -230270.71949   -181527.09247                  21864821.4534
        47.7504         34.5004
  22518796.8204     905788.82849    692851.01047                  22518795.2154
        46.5004         33.5004
  23702929.7114    4239633.89149   3260383.53947                  23702927.5474
        45.7504         28.0004
  23974243.5164   -2191462.95349  -1706297.51947                  23974240.0274
        44.0004         26.0004
  24509550.6564    -887621.13749   -692185.64046                  24509548.8284
        37.7504         20.0004
 04  6 29 14 34  0.0000000  0 11G 6G10G16G17G18G21G26G29G30G22G15
  20342675.3054    1263227.93849    972025.69348                  20342672.1764
        51.5004         41.7504
  24233609.6804    4479338.66449   3445544.27646                  24233607.8204
        39.5004         21.5004
  24231415.4064    -747269.46949   -584573.78446                  24231412.0044
        40.5004         23.5004
  23875688.8204    3112903.97749   2391854.02746                  23875687.6564
        40.7504         21.7504
  21522679.1414   -1250752.82849   -968347.25747                  21522676.1054
        50.2504         38.7504
  21374022.4694    -196891.07449   -157710.44347                  21374018.4734
        50.2504         37.7504
  21864737.0234    -230724.75049   -181880.88747                  21864735.1374
        47.7504         34.5004
  22520872.3284     916694.79349    701349.15547                  22520870.5864
        47.0004         34.0004
  23710946.0634    4281760.85549   3293209.73847                  23710944.1094
        45.5004         28.2504
  23969840.7034   -2214601.72349  -1724327.69547                  23969837.4694
        44.0004         29.2504
  24506629.0944    -902971.94549   -704147.29946                  24506627.7854
        36.5004         20.0004
 04  6 29 14 34 10.0000000  0 11G 6G10G16G17G18G21G26G29G30G22G15
  20345390.6254    1277499.38749    983146.30548                  20345387.7814
        51.5004         42.0004
  24242026.5164    4523569.41449   3480009.76546                  24242024.9924
        39.7504         21.2504
  24230187.2114    -753725.79349   -589604.67046                  24230183.5664
        39.7504         22.0004
  23881468.8444    3143277.82049   2415521.97446                  23881467.1374
        40.5004         22.5004
  21520431.2194   -1262565.63749   -977552.03747                  21520428.3164
        50.0004         38.7504
  21373536.6644    -199440.93449   -159697.34147                  21373533.0864
        49.7504         38.5004
  21864661.2114    -231125.43049   -182193.10847                  21864658.8054
        47.2504         34.5004
  22522956.5784     927648.09449    709884.19247                  22522955.2704
        46.7504         33.2504
  23718960.1564    4323876.00449   3326026.69747                  23718958.2194
        46.0004         28.0004
  23965439.2114   -2237731.78949  -1742351.10647                  23965435.8284
        42.5004         28.2504
  24503706.1414    -918333.60249   -716117.31846                  24503704.6604
        38.2504         20.5004
 04  6 29 14 34 20.0000000  0 11G 6G10G16G17G18G21G26G29G30G22G15
  20348114.0474    1291810.91049    994298.13248                  20348111.2114
        51.5004         42.0004
  24250440.9144    4567791.27649   3514468.30546                  24250440.0594
        39.0004         21.7504
  24228966.2274    -760142.60949   -594604.80646                  24228962.3594
        38.5004         21.5004
  23887246.9304    3173644.21549   2439184.02246                  23887245.1604
        40.0004         22.5004
  21518188.8204   -1274348.81649   -986733.73247                  21518185.6644
        50.5004         38.7504
  21373052.0004    -201989.27749   -161683.05947                  21373048.6024
        50.2504         39.0004
  21864595.3444    -231472.36749   -182463.47047                  21864592.5514
        48.5004         33.7504
  22525050.2664     938648.95349    718456.28947                  22525048.5474
        47.0004         33.2504
  23726972.7274    4365979.56349   3358834.64347                  23726970.1684
        45.0004         28.5004
  23961039.1174   -2260852.89849  -1760367.53447                  23961035.3524
        42.5004         26.2504
  24500781.3284    -933705.82449   -728095.74046                  24500779.3164
        39.0004         21.0004
 04  6 29 14 34 30.0000000  0 11G 6G10G16G17G18G21G26G29G30G22G15
  20350845.4384    1306163.64549   1005482.07848                  20350842.5394
        51.5004         41.5004
  24258855.1174    4612005.08249   3548920.60946                  24258854.4264
        38.2504         22.5004
  24227753.0944    -766518.78149   -599573.25046                  24227749.0274
        39.2504         21.5004
  23893025.0634    3204004.23049   2462841.11046                  23893022.5514
        41.2504         22.2504
  21515952.6174   -1286101.23049   -995891.46447                  21515949.0474
        50.0004         38.7504
  21372567.3524    -204535.12149   -163666.84447                  21372563.8054
        50.0004         38.7504
  21864539.3834    -231764.60949   -182691.18047                  21864536.3484
        47.7504         34.0004
  22527152.5164     949698.41849    727066.25947                  22527150.7344
        47.0004         33.7504
  23734982.2584    4408072.43049   3391634.29447                  23734979.9064
        45.5004         26.7504
  23956641.3754   -2283963.86749  -1778376.11147                  23956637.1604
        43.7504         26.2504
  24497853.6484    -949087.60549   -740081.54046                  24497852.6134
        38.7504         21.2504
 04  6 29 14 34 40.0000000  0 11G 6G10G16G17G18G21G26G29G30G22G15
  20353583.7034    1320554.94949   1016696.06548                  20353581.1524
        51.2504         41.7504
  24267266.6334    4656208.22349   3583364.60846                  24267265.5744
        40.2504         22.0004
  24226546.9694    -772856.96949   -604512.12846                  24226542.8634
        39.7504         22.0004
  23898800.7274    3234355.14849   2486491.15546                  23898797.8634
        40.0004         22.5004
  21513721.2894   -1297825.49649  -1005027.23747                  21513718.1374
        50.2504         38.5004
  21372083.1254    -207081.20349   -165650.80447                  21372079.0944
        50.7504         39.0004
  21864494.0634    -232004.62549   -182878.19647                  21864491.5234
        47.7504         33.5004
  22529263.8444     960793.84849    735712.05247                  22529262.3324
        47.5004         33.0004
  23742989.9384    4450151.85249   3424423.43547                  23742987.3634
        45.2504         26.2504
  23952244.6094   -2307067.29349  -1796378.79847                  23952240.6214
        43.5004         27.0004
  24494924.5394    -964481.61749   -752076.83546                  24494923.3134
        39.7504         21.5004
 04  6 29 14 34 50.0000000  0 11G 6G10G16G17G18G21G26G29G30G22G15
  20356329.7344    1334983.56649   1027939.14548                  20356326.9574
        50.2504         41.5004
  24275676.2424    4700399.27349   3617799.14346                  24275675.6254
        39.5004         22.0004
  24225347.3754    -779158.42249   -609422.36446                  24225343.8204
        38.2504         21.5004
  23904573.2734    3264695.77049   2510133.19546                  23904571.7704
        40.2504         22.5004
  21511495.5394   -1309522.81649  -1014142.02247                  21511492.0084
        50.5004         38.5004
  21371598.1414    -209628.78149   -167635.93747                  21371594.1214
        50.2504         39.0004
  21864457.6804    -232193.57849   -183025.44747                  21864455.8444
        48.5004         33.7504
  22531384.4144     971933.96149    744392.65047                  22531381.9804
        47.0004         33.5004
  23750994.4454    4492216.51649   3457201.08347                  23750992.4884
        44.5004         25.7504
  23947849.8054   -2330164.45749  -1814376.57247                  23947846.1844
        43.5004         26.5004
  24491992.3364    -979889.09849   -764082.63846                  24491991.2934
        38.0004         21.0004
 04  6 29 14 35  0.0000000  0 11G 6G10G16G17G18G21G26G29G30G22G15
  20359082.5164    1349450.88749   1039212.39148                  20359080.3014
        50.7504         41.2504
  24284083.5164    4744579.46949   3652225.21946                  24284082.1954
        38.7504         22.5004
  24224156.3674    -785421.73849   -614302.87846                  24224152.2544
        39.0004         21.2504
  23910345.9694    3295027.32049   2533768.12446                  23910343.7814
        40.2504         23.0004
  21509275.0864   -1321191.85949  -1023234.78247                  21509271.7624
        51.0004         38.7504
  21371113.4454    -212176.52749   -169621.18947                  21371109.4734
        51.0004         39.2504
  21864431.6564    -232330.11349   -183131.84147                  21864429.8714
        48.0004         34.0004
  22533512.3444     983120.20749    753109.20847                  22533510.6334
        46.5004         33.5004
  23758996.1414    4534267.54349   3489968.13047                  23758994.2584
        44.7504         26.5004
  23943455.8284   -2353253.97749  -1832368.36947                  23943452.2154
        42.0004         27.5004
  24489058.3054    -995308.82049   -776097.97446                  24489057.0784
        40.2504         21.5004
 04  6 29 14 35 10.0000000  0 11G 6G10G16G17G18G21G26G29G30G22G15
  20361843.4454    1363960.35249   1050518.44948                  20361840.9574
        51.2504         41.5004
  24292489.7974    4788752.31349   3686645.59546                  24292488.0634
        40.5004         25.0004
  24222972.5944    -791643.35949   -619150.92746                  24222968.2194
        39.2504         21.5004
  23916116.5784    3325353.39149   2557398.78846                  23916115.0004
        39.5004         22.7504
  21507060.5004   -1332828.98449  -1032302.67147                  21507057.5004
        51.0004         39.0004
  21370629.3364    -214720.95749   -171603.86347                  21370624.9304
        50.7504         39.0004
  21864416.4614    -232410.73849   -183194.66347                  21864414.2344
        47.5004         33.7504
  22535650.5784     994356.01249    761864.38447                  22535649.3674
        46.5004         34.0004
  23766996.3204    4576308.50049   3522727.27847                  23766994.8244
        44.0004         26.0004
  23939064.4454   -2376332.19149  -1850351.40347                  23939059.7934
        43.2504         25.7504
  24486122.6724   -1010737.10249   -788120.02446                  24486120.8794
        40.5004         21.2504
 04  6 29 14 35 20.0000000  0 11G 6G10G16G17G18G21G26G29G30G22G15
  20364612.8204    1378512.90249   1061858.10548                  20364609.9614
        51.0004         41.0004
  24300894.3594    4832918.52049   3721060.81446                  24300892.6254
        40.7504         22.7504
  24221796.0004    -797822.43449   -623965.80946                  24221792.4264
        38.5004         21.5004
  23921887.1414    3355674.79349   2581025.83846                  23921885.4064
        40.2504         22.7504
  21504852.3134   -1344433.39549  -1041345.06247                  21504849.2854
        50.2504         39.0004
  21370145.7424    -217261.18449   -173583.27047                  21370141.6374
        51.0004         39.0004
  21864411.9224    -232434.45749   -183213.14047                  21864409.5124
        46.7504         33.5004
  22537798.9534    1005642.34049    770658.92447                  22537797.3014
        47.2504         33.7504
  23774994.7114    4618339.92249   3555479.02247                  23774993.2854
        43.5004         25.7504
  23934675.0084   -2399398.23849  -1868324.95847                  23934670.0904
        44.5004         27.0004
  24483184.7194   -1026173.22749   -800148.13146                  24483183.1954
        40.2504         21.5004
 04  6 29 14 35 30.0000000  0 11G 6G10G16G17G18G21G26G29G30G22G15
  20367389.9924    1393106.50449   1073229.73348                  20367387.2774
        51.5004         41.0004
  24309297.4694    4877076.03149   3755469.21747                  24309295.8524
        41.5004         25.7504
  24220628.0004    -803960.92249   -628748.99546                  24220624.6484
        39.0004         21.5004
  23927655.2664    3385989.57849   2604647.73546                  23927654.2704
        39.7504         22.7504
  21502649.8134   -1356007.06249  -1050363.50847                  21502646.8554
        51.0004         39.2504
  21369662.8594    -219799.19549   -175560.94647                  21369658.8834
        50.5004         39.0004
  21864417.9924    -232403.10549   -183188.71347                  21864415.4024
        47.0004         34.0004
  22539955.6484    1016977.09849    779491.19547                  22539954.1254
        46.2504         33.5004
  23782991.1094    4660359.81349   3588221.78647                  23782989.3444
        43.5004         27.7504
  23930287.7344   -2422454.02049  -1886290.49947                  23930283.1994
        43.7504         27.0004
  24480245.3284   -1041619.19549   -812183.92946                  24480244.1914
        39.5004         22.0004
 04  6 29 14 35 40.0000000  0 11G 6G10G16G17G18G21G26G29G30G22G15
  20370174.6174    1407739.60249   1084632.14448                  20370171.7854
        50.7504         41.2504
  24317698.7274    4921223.13749   3789869.55647                  24317697.1254
        42.0004         27.0004
  24219467.3594    -810060.30949   -633501.78546                  24219464.3134
        38.2504         21.5004
  23933422.5554    3416296.15249   2628263.22546                  23933421.7624
        40.7504         22.2504
  21500453.2274   -1367551.53949  -1059359.19247                  21500450.1214
        51.0004         39.2504
  21369179.8054    -222336.62149   -177538.14847                  21369176.1414
        50.7504         39.0004
  21864434.1644    -232318.38349   -183122.70447                  21864431.9414
        48.0004         35.0004
  22542121.0634    1028358.69549    788359.96247                  22542119.5824
        46.5004         33.5004
  23790984.1804    4702366.46949   3620954.22647                  23790983.4454
        44.0004         27.5004
  23925901.9454   -2445501.15649  -1904249.31947                  23925898.3754
        44.0004         27.7504
  24477304.0164   -1057076.61349   -824228.66246                  24477302.6334
        40.2504         21.7504
 04  6 29 14 35 50.0000000  0 11G 6G10G16G17G18G21G26G29G30G22G15
  20372967.2504    1422415.03549   1096067.53548                  20372964.6484
        51.2504         41.5004
  24326097.8444    4965362.68849   3824263.94547                  24326096.7424
        42.5004         25.7504
  24218314.4224    -816117.70749   -638221.80446                  24218311.4614
        38.0004         22.0004
  23939189.1174    3446597.34049   2651874.52346                  23939187.7114
        41.5004         23.0004
  21498262.3204   -1379063.99649  -1068329.93448                  21498259.1994
        50.5004         39.5004
  21368697.7194    -224870.58649   -179512.66647                  21368693.9774
        50.0004         39.2504
  21864460.8054    -232177.35249   -183012.84047                  21864458.9574
        47.2504         34.0004
  22544296.6484    1039790.03549    797267.47947                  22544294.9734
        46.7504         33.5004
  23798976.4924    4744362.67249   3653678.53347                  23798974.3054
        44.2504         27.5004
  23921519.0004   -2468536.69149  -1922199.00047                  23921514.8164
        41.7504         26.0004
  24474360.7274   -1072542.61749   -836280.05446                  24474359.7034
        39.2504         21.7504
 04  6 29 14 36  0.0000000  0 11G 6G10G16G17G18G21G26G29G30G22G15
  20375767.6414    1437132.37549   1107535.58248                  20375765.1254
        50.7504         41.5004
  24334495.8524    5009494.13749   3858652.07547                  24334494.5634
        42.7504         27.5004
  24217169.1484    -822133.58249   -642909.53846                  24217166.3634
        38.5004         21.0004
  23944953.9614    3476892.74249   2675481.29646                  23944952.7384
        40.7504         23.0004
  21496077.5944   -1390544.83649  -1077276.03047                  21496074.5204
        50.5004         39.0004
  21368215.8284    -227401.51249   -181484.82147                  21368212.6914
        50.5004         38.7504
  21864497.9694    -231980.29349   -182859.26547                  21864496.9184
        46.7504         34.5004
  22546481.4384    1051270.69149    806213.45547                  22546479.6644
        46.2504         33.2504
  23806965.8914    4786347.77049   3686394.15947                  23806964.1644
        43.5004         26.5004
  23917136.8834   -2491561.03149  -1940140.04747                  23917132.6884
        44.5004         27.7504
  24471415.7974   -1088017.62949   -848338.47946                  24471414.4614
        40.5004         22.2504
 04  6 29 14 36 10.0000000  0 11G 6G10G16G17G18G21G26G29G30G22G15
  20378575.8914    1451889.41449   1119034.56848                  20378573.5634
        50.7504         41.5004
  24342891.8364    5053615.12549   3893032.06047                  24342890.7234
        43.0004         27.0004
  24216032.8834    -828110.07849   -647566.53746                  24216029.2894
        40.0004         22.5004
  23950717.5634    3507180.05549   2699081.78846                  23950716.6054
        41.5004         24.7504
  21493898.2584   -1401996.20349  -1086199.17647                  21493894.9384
        50.7504         38.7504
  21367734.4614    -229931.96949   -183456.60547                  21367731.0944
        50.0004         39.0004
  21864545.9774    -231729.45749   -182663.80447                  21864544.6644
        47.5004         34.5004
  22548674.7194    1062798.34049    815196.02847                  22548673.4804
        46.0004         33.5004
  23814952.9304    4828319.51249   3719099.43147                  23814951.3244
        44.2504         26.7504
  23912756.6564   -2514576.31249  -1958074.02046                  23912752.4104
        44.0004         25.0004
  24468469.1644   -1103503.93049   -860405.75346                  24468467.3594
        40.0004         22.5004
 04  6 29 14 36 20.0000000  0 11G 6G10G16G17G18G21G26G29G30G22G15
  20381392.3524    1466690.27749   1130567.69948                  20381389.7034
        51.2504         41.2504
  24351286.7424    5097729.73049   3927407.06547                  24351284.9574
        43.7504         26.5004
  24214903.5784    -834043.07049   -652189.64846                  24214900.7034
        40.2504         22.5004
  23956480.3834    3537463.48449   2722679.21846                  23956478.2734
        42.0004         24.2504
  21491726.0084   -1413413.99249  -1095096.15347                  21491722.7814
        50.0004         39.0004
  21367253.8674    -232457.46949   -185424.53147                  21367250.3874
        49.7504         38.7504
  21864604.8834    -231420.67249   -182423.18347                  21864603.2854
        48.0004         34.5004
  22550878.0554    1074377.18049    824218.50447                  22550876.6844
        46.2504         32.5004
  23822937.8674    4870281.85549   3751797.37147                  23822935.9694
        43.2504         26.0004
  23908380.0164   -2537578.37549  -1975997.75047                  23908375.2034
        43.5004         27.0004
  24465520.3204   -1118997.35949   -872478.51446                  24465519.5664
        39.7504         24.0004
 04  6 29 14 36 30.0000000  0 11G 6G10G16G17G18G21G26G29G30G22G15
  20384217.8204    1481536.72349   1142136.34448                  20384215.0634
        51.0004         41.5004
  24359680.5004    5141839.48849   3961778.26547                  24359679.6024
        42.0004         27.0004
  24213783.7584    -839930.84449   -656777.53246                  24213780.5864
        40.0004         22.5004
  23962243.1334    3567744.68049   2746274.98246                  23962240.5204
        41.7504         24.0004
  21489559.8594   -1424796.49649  -1103965.63547                  21489556.4064
        50.7504         39.0004
  21366774.4534    -234976.29349   -187387.25147                  21366770.8794
        50.2504         39.2504
  21864675.0864    -231052.11349   -182136.00947                  21864673.2704
        48.0004         34.5004
  22553091.8984    1086008.90649    833282.18547                  22553090.5784
        46.2504         33.0004
  23830921.5234    4912236.38749   3784489.19147                  23830919.4844
        43.5004         26.0004
  23904006.0474   -2560565.52349  -1993909.80646                  23904001.8794
        42.0004         25.5004
  24462571.8134   -1134496.30949   -884555.58646                  24462570.3714
        39.2504         22.7504
 04  6 29 14 36 40.0000000  0 11G 6G10G16G17G18G21G26G29G30G22G15
  20387051.2274    1496428.20749   1153740.09548                  20387048.8554
        50.7504         41.5004
  24368072.8134    5185943.87949   3996145.28947                  24368071.9384
        41.2504         26.5004
  24212671.5314    -845773.84449   -661330.49746                  24212668.2384
        39.5004         22.7504
  23968004.4144    3598023.16849   2769868.57346                  23968002.4654
        40.0004         23.0004
  21487400.4924   -1436144.17649  -1112807.97947                  21487396.8594
        51.0004         38.7504
  21366296.5084    -237488.92249   -189345.13947                  21366293.0554
        50.2504         38.7504
  21864756.8284    -230624.26649   -181802.62047                  21864755.1914
        47.0004         34.2504
  22555315.2974    1097693.00049    842386.66047                  22555314.0124
        46.7504         33.5004
  23838904.0394    4954182.51649   3817174.51046                  23838901.9614
        42.7504         25.5004
  23899634.1724   -2583538.17649  -2011810.57247                  23899631.5434
        41.7504         28.2504
  24459620.6414   -1150001.31649   -896637.42946                  24459619.7934
        41.2504         24.2504
 04  6 29 14 36 50.0000000  0 11G 6G10G16G17G18G21G26G29G30G22G15
  20389893.2504    1511361.16849   1165376.17248                  20389890.4304
        50.7504         41.5004
  24376464.4224    5230039.19549   4030505.24447                  24376462.7074
        41.5004         26.5004
  24211567.5164    -851575.59449   -665851.38146                  24211564.6094
        40.2504         22.5004
  23973765.9614    3628295.39149   2793457.28246                  23973763.8634
        40.0004         22.0004
  21485247.2114   -1447460.64149  -1121625.99747                  21485243.7704
        50.5004         39.0004
  21365818.8914    -239999.03549   -191301.06947                  21365815.0164
        50.5004         38.7504
  21864848.3054    -230140.58249   -181425.71447                  21864847.2464
        47.0004         35.0004
  22557547.4694    1109425.83649    851529.13947                  22557546.0554
        47.0004         32.7504
  23846882.8444    4996116.53549   3849850.29947                  23846881.5394
        43.0004         25.7504
  23895264.5634   -2606499.86749  -2029702.82147                  23895261.8754
        44.0004         29.0004
  24456669.2344   -1165515.94149   -908726.71546                  24456667.6254
        41.0004         22.7504
 04  6 29 14 37  0.0000000  0 11G 6G10G16G17G18G21G26G29G30G22G15
  20392742.9694    1526337.72349   1177046.22348                  20392740.4774
        51.2504         41.2504
  24384853.5864    5274127.45349   4064859.68547                  24384852.6454
        42.0004         26.7504
  24210471.2894    -857334.02749   -670338.47446                  24210468.7544
        39.5004         22.0004
  23979525.5784    3658563.30949   2817042.68446                  23979523.8794
        42.2504         22.5004
  21483099.6414   -1458743.76649  -1130418.03547                  21483096.8014
        51.2504         39.0004
  21365342.1644    -242504.53949   -193253.41547                  21365338.3324
        50.5004         38.7504
  21864951.7814    -229599.04749   -181003.75247                  21864950.0314
        48.5004         34.5004
  22559789.8284    1121209.53549    860711.23247                  22559788.1644
        46.5004         32.5004
  23854861.0234    5038040.38749   3882518.22146                  23854859.3244
        42.5004         23.7504
  23890898.0554   -2629448.47349  -2047584.84147                  23890895.2274
        43.5004         28.5004
  24453715.1174   -1181038.13349   -920821.86346                  24453714.0514
        40.7504         25.2504
 04  6 29 14 37 10.0000000  0 11G 6G10G16G17G18G21G26G29G30G22G15
  20395601.2734    1541356.52349   1188749.17648                  20395598.3874
        51.2504         41.0004
  24393241.7344    5318207.16849   4099207.48947                  24393240.9844
        41.7504         26.0004
  24209383.8834    -863050.39549   -674792.77246                  24209380.4494
        40.0004         22.5004
  23985283.7034    3688825.56649   2840623.64046                  23985282.0004
        42.2504         22.0004
  21480958.9064   -1469994.99649  -1139185.22647                  21480955.4104
        51.0004         39.0004
  21364865.9224    -245006.89549   -195203.30347                  21364861.7274
        50.5004         39.0004
  21865065.0944    -229000.92649   -180537.68047                  21865063.3984
        47.5004         33.5004
  22562041.7504    1133042.77349    869931.90947                  22562039.9964
        46.0004         33.0004
  23862836.9144    5079952.63349   3915177.10246                  23862835.4494
        43.5004         25.0004
  23886533.7814   -2652385.35549  -2065457.73047                  23886530.2664
        41.5004         27.0004
  24450759.2034   -1196569.27749   -932924.07046                  24450758.2464
        40.0004         23.0004
 04  6 29 14 37 20.0000000  0 11G 6G10G16G17G18G21G26G29G30G22G15
  20398466.7344    1556416.61349   1200484.30148                  20398464.0474
        51.0004         41.2504
  24401628.3284    5362277.51249   4133548.00446                  24401627.1094
        43.2504         24.5004
  24208304.1024    -868725.56649   -679214.96746                  24208300.4024
        39.2504         22.5004
  23991041.2274    3719081.35949   2864199.58446                  23991038.9844
        41.7504         22.7504
  21478823.8284   -1481214.99649  -1147928.07647                  21478820.6174
        50.0004         39.2504
  21364390.2344    -247506.83249   -197151.30147                  21364386.4224
        50.7504         39.0004
  21865189.7114    -228347.03549   -180028.13947                  21865188.0634
        47.7504         34.0004
  22564303.0084    1144924.68449    879190.55047                  22564301.3164
        46.0004         32.7504
  23870809.6724    5121852.27749   3947826.13046                  23870808.4064
        43.5004         25.0004
  23882170.2734   -2675311.22349  -2083322.03647                  23882167.2934
        42.2504         26.5004
  24447802.1564   -1212110.16449   -945033.80446                  24447800.8554
        40.7504         23.5004
 04  6 29 14 37 30.0000000  0 11G 6G10G16G17G18G21G26G29G30G22G15
  20401341.0394    1571520.43449   1212253.50648                  20401338.4104
        51.2504         41.5004
  24410013.5784    5406340.73849   4167882.99746                  24410011.9024
        41.5004         24.2504
  24207232.2974    -874357.00849   -683603.17546                  24207228.9384
        40.5004         22.7504
  23996798.2344    3749333.20749   2887772.42546                  23996796.1644
        40.2504         21.5004
  21476694.9844   -1492401.29749  -1156644.66848                  21476692.0274
        51.0004         39.5004
  21363915.4144    -250001.89549   -199095.50547                  21363911.4924
        51.0004         39.0004
  21865325.4454    -227634.78949   -179473.13647                  21865323.4344
        48.2504         34.5004
  22566573.7504    1156857.62149    888488.93247                  22566572.1334
        46.2504         32.5004
  23878781.1414    5163741.66449   3980467.26046                  23878779.9884
        43.0004         24.2504
  23877809.9924   -2698223.63349  -2101175.81747                  23877807.1024
        43.5004         26.0004
  24444843.4064   -1227658.42649   -957149.31046                  24444842.3484
        41.0004         22.7504
 04  6 29 14 37 40.0000000  0 11G 6G10G16G17G18G21G26G29G30G22G15
  20404223.5234    1586667.84449   1224056.68048                  20404220.9264
        51.0004         41.5004
  24418396.9534    5450396.56349   4202212.16246                  24418394.9844
        41.0004         22.7504
  24206169.1644    -879944.93049   -687957.39546                  24206165.2344
        41.2504         22.5004
  24002553.6334    3779580.84049   2911341.99646                  24002551.4384
        40.2504         21.5004
  21474573.0944   -1503554.07449  -1165335.14348                  21474569.3484
        51.0004         39.5004
  21363441.8364    -252492.39549   -201036.16447                  21363438.0664
        50.7504         38.7504
  21865472.0234    -226864.36349   -178872.82947                  21865470.8914
        48.7504         35.5004
  22568853.5634    1168841.44949    897826.99147                  22568853.0984
        47.0004         33.0004
  23886750.0004    5205620.53549   4013100.14546                  23886748.7814
        42.5004         24.5004
  23873452.4924   -2721122.66449  -2119019.23547                  23873449.1054
        44.0004         27.7504
  24441883.4454   -1243214.18049   -969270.64746                  24441881.9454
        40.7504         25.2504
 04  6 29 14 37 50.0000000  0 11G 6G10G16G17G18G21G26G29G30G22G15
  20407114.3054    1601860.52349   1235895.12748                  20407112.2114
        50.7504         41.5004
  24426779.5084    5494446.50849   4236536.79246                  24426777.6294
        40.2504         22.7504
  24205113.8134    -885487.76649   -692276.45846                  24205110.9064
        40.0004         22.0004
  24008308.8914    3809825.86749   2934909.54946                  24008306.1724
        41.5004         21.5004
  21472457.2034   -1514671.83649  -1173998.32648                  21472453.8204
        50.7504         39.5004
  21362968.8674    -254976.95349   -202972.17547                  21362964.9304
        50.5004         38.7504
  21865630.0784    -226034.14849   -178225.90147                  21865629.0354
        48.2504         35.0004
  22571144.7734    1180877.80149    907205.97347                  22571143.2234
        46.0004         32.0004
  23894718.5634    5247490.21549   4045725.78846                  23894716.2934
        42.5004         24.0004
  23869098.3524   -2744006.77049  -2136850.99747                  23869094.0744
        42.7504         27.0004
  24438921.7974   -1258775.96149   -981396.67546                  24438920.3954
        40.7504         23.0004
 04  6 29 14 38  0.0000000  0 11G 6G10G16G17G18G21G26G29G30G22G15
  20410014.0084    1617098.48449   1247768.86048                  20410011.7464
        50.7504         42.0004
  24435160.7424    5538490.57849   4270856.78146                  24435159.3914
        40.0004         22.2504
  24204068.0234    -890985.38749   -696560.29846                  24204064.8794
        39.2504         22.7504
  24014064.0944    3840068.25449   2958475.04246                  24014061.2074
        41.0004         20.0004
  21470348.1174   -1525754.54749  -1182634.20448                  21470344.6414
        50.7504         39.7504
  21362496.9614    -257455.25849   -204903.32248                  21362493.4884
        49.5004         39.5004
  21865799.0474    -225144.05549   -177532.31047                  21865797.8754
        47.2504         34.5004
  22573445.1644    1192966.64549    916625.83847                  22573443.4694
        45.5004         32.2504
  23902683.9924    5289350.79349   4078344.42146                  23902682.8134
        42.2504         25.0004
  23864746.2814   -2766875.82449  -2154671.05247                  23864742.5474
        43.5004         27.0004
  24435959.0634   -1274343.66849   -993527.32246                  24435958.1174
        39.5004         22.7504
 04  6 29 14 38 10.0000000  0 11G 6G10G16G17G18G21G26G29G30G22G15
  20412921.5004    1632376.70349   1259673.97748                  20412918.9614
        50.5004         41.5004
  24443540.2274    5582523.62149   4305168.20446                  24443538.2814
        40.7504         22.5004
  24203028.6804    -896442.64849   -700812.71846                  24203026.3444
        40.0004         24.5004
  24019817.9064    3870303.18449   2982034.69946                  24019814.6024
        41.5004         20.0004
  21468244.7974   -1536807.06249  -1191246.55548                  21468241.6334
        50.7504         40.0004
  21362025.8284    -259932.22749   -206833.43047                  21362022.0744
        50.0004         38.7504
  21865979.1414    -224199.00849   -176795.92747                  21865976.8634
        48.0004         34.2504
  22575754.0944    1205103.03949    926082.76847                  22575752.8634
        45.5004         31.5004
  23910647.3984    5331197.12149   4110951.98146                  23910645.7234
        42.2504         24.7504
  23860396.1024   -2789734.72349  -2172483.14147                  23860392.7814
        44.5004         27.7504
  24432994.9224   -1289922.27049  -1005666.46846                  24432993.4494
        40.2504         23.7504
 04  6 29 14 38 20.0000000  0 11G 6G10G16G17G18G21G26G29G30G22G15
  20415837.2424    1647698.66049   1271613.15348                  20415834.7584
        51.0004         41.2504
  24451917.6334    5626548.99649   4339473.64946                  24451916.2854
        40.7504         22.0004
  24201998.8284    -901856.18049   -705031.08546                  24201996.1804
        39.2504         23.5004
  24025570.0004    3900533.83649   3005591.07746                  24025567.7974
        42.5004         21.5004
  21466147.9224   -1547825.91849  -1199832.66448                  21466144.8244
        50.5004         40.0004
  21361555.2894    -262404.52349   -208759.89947                  21361551.2114
        50.0004         39.2504
  21866169.6414    -223195.43449   -176013.92447                  21866167.4614
        48.2504         34.0004
  22578073.1484    1217290.38349    935579.38647                  22578071.6844
        46.0004         32.5004
  23918607.9844    5373032.51249   4143550.96246                  23918606.9264
        42.7504         23.0004
  23856048.9774   -2812580.03149  -2190284.67347                  23856044.9654
        43.7504         28.5004
  24430029.1484   -1305508.41449  -1017811.52146                  24430026.9184
        41.2504         22.7504
 04  6 29 14 38 30.0000000  0 11G 6G10G16G17G18G21G26G29G30G22G15
  20418761.7734    1663066.10949   1283587.78148                  20418759.1764
        51.5004         41.5004
  24460294.5394    5670568.27749   4373774.39546                  24460292.6214
        41.5004         21.5004
  24200977.4694    -907224.23849   -709213.95846                  24200974.8014
        40.2504         21.5004
  24031322.3674    3930762.23449   3029145.61346                  24031320.6524
        42.2504         21.5004
  21464057.8524   -1558809.34449  -1208391.17447                  21464054.6174
        51.0004         39.0004
  21361085.9614    -264870.60249   -210681.51247                  21361082.2584
        50.0004         39.0004
  21866372.4224    -222131.72349   -175185.05247                  21866370.7774
        48.5004         34.5004
  22580402.6884    1229530.41049    945117.05547                  22580401.1414
        45.7504         32.0004
  23926567.6724    5414858.56649   4176142.66347                  23926565.7774
        43.0004         25.7504
  23851704.2034   -2835409.99649  -2208074.24247                  23851700.3324
        41.0004         27.2504
  24427062.1954   -1321100.36349  -1029961.03746                  24427060.0744
        41.0004         23.2504
 04  6 29 14 38 40.0000000  0 11G 6G10G16G17G18G21G26G29G30G22G15
  20421694.6334    1678479.29749   1295598.05348                  20421692.2194
        51.0004         41.5004
  24468669.9534    5714581.79349   4408070.59446                  24468667.9654
        40.0004         21.5004
  24199965.1334    -912546.45749   -713361.12946                  24199962.1134
        41.0004         22.0004
  24037075.4534    3960988.36749   3052698.38946                  24037072.6024
        42.5004         21.2504
  21461974.5944   -1569757.12149  -1216921.90247                  21461971.0634
        50.5004         39.2504
  21360618.0084    -267329.90249   -212597.84547                  21360614.2154
        50.0004         39.0004
  21866586.1644    -221007.39549   -174308.96147                  21866584.6914
        48.0004         34.0004
  22582741.6174    1241823.36349    954695.98247                  22582739.8874
        45.7504         33.0004
  23934524.8674    5456675.46149   4208727.22946                  23934523.4144
        42.5004         24.5004
  23847362.9304   -2858224.28549  -2225851.56947                  23847358.5634
        42.5004         27.2504
  24424094.4144   -1336697.85249  -1042114.95746                  24424091.5434
        42.2504         22.7504
 04  6 29 14 38 50.0000000  0 11G 6G10G16G17G18G21G26G29G30G22G15
  20424636.0234    1693936.04349   1307642.26448                  20424633.0824
        51.0004         41.5004
  24477042.9534    5758587.18049   4442360.48646                  24477042.3094
        40.5004         20.5004
  24198960.6254    -917824.94149   -717474.25146                  24198957.8324
        41.0004         22.7504
  24042825.4614    3991210.28949   3076247.99546                  24042823.6334
        42.0004         21.2504
  21459897.8444   -1580671.27749  -1225426.43547                  21459894.2194
        50.5004         38.7504
  21360150.7664    -269784.64849   -214510.62447                  21360147.0664
        50.0004         39.0004
  21866811.9304    -219824.53549   -173387.24347                  21866810.0594
        48.2504         34.2504
  22585091.3754    1254167.23049    964314.57447                  22585089.3984
        46.2504         32.5004
  23942480.0084    5498480.97349   4241302.94646                  23942478.3874
        40.7504         22.7504
  23843024.4614   -2881024.93749  -2243618.32747                  23843019.7424
        44.0004         27.0004
  24421124.3524   -1352303.02049  -1054274.76846                  24421121.8164
        41.7504         22.7504
 04  6 29 14 39  0.0000000  0 11G 6G10G16G17G18G21G26G29G30G22G15
  20427585.8054    1709437.87949   1319721.62448                  20427583.4964
        51.5004         42.2504
  24485416.4064    5802585.80549   4476645.10646                  24485414.7194
        41.2504         22.2504
  24197964.5164    -923058.32849   -721552.22146                  24197961.6094
        40.7504         24.0004
  24048575.7274    4021429.33649   3099795.25946                  24048574.2464
        41.0004         21.0004
  21457827.2974   -1591550.43049  -1233903.67947                  21457824.0394
        50.0004         39.0004
  21359684.6644    -272233.44149   -216418.77947                  21359681.1214
        49.7504         38.5004
  21867048.2344    -218581.73449   -172418.82547                  21867046.1024
        48.5004         34.2504
  22587449.9774    1266563.19549    973973.79147                  22587448.1804
        47.0004         32.7504
  23950433.1954    5540276.36349   4273870.76346                  23950431.9774
        39.7504         22.7504
  23838688.3364   -2903810.46949  -2261373.28647                  23838684.0124
        44.7504         27.2504
  24418153.6564   -1367914.53549  -1066439.57146                  24418151.6524
        42.0004         22.0004
 04  6 29 14 39 10.0010000  0 11G 6G10G16G17G18G21G26G29G30G22G15
  20430544.3724    1724984.85549   1331836.13848                  20430541.6734
        50.7504         41.7504
  24493788.5214    5846580.70749   4510926.81246                  24493787.1574
        41.5004         22.0004
  24196977.1464    -928248.36349   -725596.40546                  24196973.9704
        41.5004         22.0004
  24054326.7314    4051647.24249   3123341.69346                  24054324.2434
        40.5004         20.0004
  21455763.4194   -1602397.03549  -1242355.57747                  21455760.2164
        51.5004         39.0004
  21359219.7554    -274677.89149   -218323.54247                  21359216.2674
        49.7504         38.5004
  21867295.7004    -217280.12949   -171404.59847                  21867293.0364
        48.7504         33.0004
  22589818.5444    1279011.33649    983673.62147                  22589817.4274
        46.5004         33.0004
  23958384.9744    5582064.45749   4306432.91746                  23958383.5174
        40.5004         22.7504
  23834354.4894   -2926584.50849  -2279119.28647                  23834350.3604
        43.5004         26.7504
  24415180.8494   -1383535.28149  -1078611.56746                  24415178.8414
        42.5004         24.5004
 04  6 29 14 39 20.0010000  0 11G 6G10G16G17G18G21G26G29G30G22G15
  20433510.6534    1740573.57049   1343983.18248                  20433508.0914
        51.0004         41.7504
  24502157.7554    5890562.46949   4545198.31846                  24502156.3534
        41.2504         24.0004
  24195998.1304    -933394.62149   -729606.47046                  24195994.1384
        41.2504         22.5004
  24060075.8414    4081857.35949   3146882.01646                  24060072.9384
        39.7504         20.7504
  21453705.7164   -1613209.45749  -1250780.83748                  21453702.5994
        50.7504         39.5004
  21358755.4504    -277118.02749   -220224.94647                  21358751.6384
        50.0004         39.0004
  21867554.6384    -215920.45349   -170345.11947                  21867551.4664
        47.5004         33.7504
  22592196.7164    1291508.58649    993411.74247                  22592195.3924
        46.7504         32.0004
  23966334.0994    5623836.03149   4338982.17246                  23966332.3104
        41.2504         22.2504
  23830024.2004   -2949342.93049  -2296853.09047                  23830019.3134
        43.0004         27.0004
  24412207.2944   -1399162.64149  -1090788.76346                  24412205.2784
        41.5004         22.0004
 04  6 29 14 39 30.0010000  0 11G 6G10G16G17G18G21G26G29G30G22G15
  20436485.9744    1756208.05149   1356165.89148                  20436483.4814
        51.5004         41.7504
  24510526.1854    5934538.04349   4579464.93546                  24510524.7944
        40.5004         25.2504
  24195027.8104    -938494.91049   -733580.72046                  24195023.8844
        41.7504         23.2504
  24065823.7944    4112065.44949   3170420.77646                  24065821.3254
        41.2504         21.0004
  21451654.9664   -1623985.94149  -1259178.08747                  21451651.9194
        50.5004         39.0004
  21358292.4194    -279551.40249   -222121.07747                  21358288.6344
        50.0004         38.7504
  21867825.0284    -214499.91849   -169238.20047                  21867822.6574
        47.2504         33.5004
  22594584.9814    1304058.82049   1003191.13647                  22594583.7514
        46.5004         32.7504
  23974281.3174    5665598.05149   4371524.00046                  23974279.6574
        41.2504         24.2504
  23825695.9034   -2972085.38749  -2314574.48747                  23825691.6924
        44.0004         27.5004
  24409232.4584   -1414795.59049  -1102970.23146                  24409230.4114
        41.5004         22.7504
 04  6 29 14 39 40.0010000  0 11G 6G10G16G17G18G21G26G29G30G22G15
  20439468.9584    1771884.68849   1368381.44248                  20439466.7594
        51.2504         41.7504
  24518892.5444    5978503.60949   4613723.79746                  24518892.0324
        41.2504         23.5004
  24194065.3804    -943552.77749   -737521.88846                  24194061.8174
        42.7504         24.5004
  24071570.8644    4142267.78149   3193955.03446                  24071568.8134
        41.0004         20.5004
  21449610.7164   -1634730.24649  -1267550.26647                  21449607.3334
        50.0004         38.5004
  21357829.3804    -281981.75849   -224014.86047                  21357826.2514
        50.0004         39.0004
  21868106.0214    -213022.18749   -168086.71747                  21868103.9034
        48.0004         33.5004
  22596982.5674    1316658.31349   1013008.91847                  22596981.3724
        45.7504         32.0004
  23982226.0604    5707346.60949   4404055.31547                  23982224.5914
        41.5004         25.7504
  23821370.5834   -2994815.42249  -2332286.16347                  23821366.9234
        44.2504         27.5004
  24406255.7244   -1430437.75449  -1115158.92146                  24406253.8174
        42.0004         23.5004
 04  6 29 14 39 50.0010000  0 11G 6G10G16G17G18G21G26G29G30G22G15
  20442461.2714    1787607.96149   1380633.33348                  20442458.5674
        51.7504         42.0004
  24527257.6614    6022463.64849   4647978.33946                  24527257.0094
        41.7504         24.2504
  24193111.8804    -948563.68749   -741426.49646                  24193108.3884
        43.5004         25.0004
  24077318.1384    4172468.85549   3217488.33746                  24077315.9154
        40.7504         21.2504
  21447573.1064   -1645437.83649  -1275893.82347                  21447569.5994
        50.0004         38.5004
  21357368.5364    -284404.61349   -225902.79847                  21357365.2594
        49.7504         38.7504
  21868399.2164    -211482.56249   -166887.02547                  21868396.6264
        48.5004         34.0004
  22599390.4194    1329311.71949   1022868.70947                  22599389.1424
        45.7504         32.5004
  23990168.7634    5749086.14549   4436579.59646                  23990167.4544
        41.5004         24.7504
  23817048.8024   -3017528.56249  -2349984.70747                  23817044.6614
        42.5004         27.5004
  24403277.8494   -1446084.66849  -1127351.29746                  24403276.2284
        41.2504         22.2504
 04  6 29 14 40  0.0010000  0 11G 6G10G16G17G18G21G26G29G30G22G15
  20445462.1924    1803377.77349   1392921.50548                  20445459.3844
        51.0004         41.5004
  24535622.4814    6066417.95349   4682228.42946                  24535621.0014
        42.5004         24.5004
  24192166.9034    -953527.72749   -745294.59846                  24192163.5714
        42.5004         24.7504
  24083064.3104    4202668.62149   3241020.58946                  24083062.1574
        39.7504         20.7504
  21445542.7784   -1656108.80149  -1284208.86447                  21445539.2784
        50.5004         38.5004
  21356908.9504    -286820.03949   -227784.94347                  21356905.3684
        50.2504         39.2504
  21868703.8804    -209881.14849   -165639.17447                  21868701.2434
        48.0004         33.5004
  22601808.4894    1342018.74249   1032770.28147                  22601806.8414
        46.7504         32.5004
  23998110.2714    5790816.39549   4469096.66046                  23998108.7164
        41.5004         25.5004
  23812729.6694   -3040224.81649  -2367670.12047                  23812725.1034
        42.0004         26.2504
  24400299.5444   -1461736.43749  -1139547.48846                  24400298.0094
        41.5004         24.2504
 04  6 29 14 40 10.0010000  0 11G 6G10G16G17G18G21G26G29G30G22G15
  20448471.4744    1819192.27749   1405244.48348                  20448468.7634
        51.5004         41.0004
  24543984.7394    6110364.45749   4716472.40847                  24543984.3104
        43.5004         27.2504
  24191231.0444    -958446.89549   -749127.72946                  24191227.8134
        43.2504         23.0004
  24088810.7244    4232864.96949   3264550.22346                  24088808.6614
        40.2504         20.2504
  21443518.3644   -1666745.10249  -1292496.87947                  21443514.6104
        50.2504         39.0004
  21356450.7004    -289230.00049   -229662.83447                  21356446.9784
        50.2504         38.7504
  21869020.0364    -208219.97349   -164344.72447                  21869017.4814
        47.7504         33.5004
  22604236.5134    1354777.58649   1042712.22547                  22604234.4894
        46.2504         32.0004
  24006049.3964    5832535.27349   4501604.86446                  24006047.6384
        42.2504         24.7504
  23808413.5134   -3062906.09849  -2385343.82647                  23808409.2824
        43.5004         27.0004
  24397320.1924   -1477395.08249  -1151749.01146                  24397318.6924
        42.0004         22.7504
 04  6 29 14 40 20.0010000  0 11G 6G10G16G17G18G21G26G29G30G22G15
  20451489.3254    1835050.48449   1417601.51548                  20451486.8494
        51.5004         41.2504
  24552345.7314    6154302.37549   4750709.75347                  24552344.7714
        42.7504         27.2504
  24190303.3104    -963321.94549   -752926.46246                  24190299.9854
        43.0004         23.5004
  24094556.4354    4263057.28149   3288076.62646                  24094554.3134
        41.5004         21.5004
  21441500.3804   -1677347.49649  -1300758.46847                  21441497.3964
        50.5004         38.7504
  21355993.0284    -291635.26649   -231537.05847                  21355989.1694
        50.5004         39.0004
  21869346.7714    -206499.69949   -163004.26447                  21869344.8494
        47.0004         33.2504
  22606674.1144    1367587.25449   1052693.78947                  22606672.1924
        46.0004         32.2504
  24013985.4274    5874241.91049   4534103.53047                  24013984.0134
        42.0004         26.2504
  23804099.7314   -3085573.09849  -2403006.40347                  23804096.6654
        43.5004         28.5004
  24394338.2634   -1493061.30549  -1163956.37846                  24394337.8884
        40.2504         23.7504
 04  6 29 14 40 30.0010000  0 11G 6G10G16G17G18G21G26G29G30G22G15
  20454515.1614    1850952.07049   1429992.36948                  20454512.6574
        51.0004         41.5004
  24560705.1924    6198231.02349   4784939.85647                  24560704.7284
        43.0004         27.5004
  24189384.0674    -968153.32449   -756691.16547                  24189380.3804
        43.2504         26.0004
  24100300.8254    4293244.93849   3311599.44146                  24100298.6734
        40.5004         21.5004
  21439489.2634   -1687916.50449  -1308994.06647                  21439486.0324
        50.7504         39.2504
  21355536.0524    -294036.39149   -233408.07447                  21355532.2164
        50.5004         39.0004
  21869685.5524    -204720.68049   -161618.01047                  21869683.1464
        46.7504         33.0004
  22609120.8884    1380447.40649   1062714.68247                  22609119.0284
        46.5004         32.2504
  24021919.7394    5915935.73049   4566592.20647                  24021918.2204
        42.2504         26.5004
  23799789.2314   -3108226.31249  -2420658.23247                  23799786.3064
        43.5004         29.2504
  24391355.5524   -1508735.62149  -1176170.13646                  24391354.9934
        40.7504         21.5004
 04  6 29 14 40 40.0010000  0 11G 6G10G16G17G18G21G26G29G30G22G15
  20457549.9584    1866898.17649   1442417.89848                  20457547.0674
        51.0004         41.7504
  24569062.7634    6242151.57449   4819163.58547                  24569062.4424
        42.0004         26.2504
  24188472.6924    -972939.81649   -760420.87146                  24188469.5134
        43.5004         25.5004
  24106044.6304    4323429.20749   3335119.67446                  24106042.3564
        40.5004         22.2504
  21437484.7004   -1698450.91049  -1317202.68747                  21437481.4074
        50.5004         39.0004
  21355080.0914    -296432.11349   -235274.87447                  21355076.0244
        50.0004         39.0004
  21870035.2314    -202881.81249   -160185.12547                  21870032.6924
        46.7504         33.5004
  22611578.2084    1393359.14849   1072775.78247                  22611576.1734
        46.2504         32.0004
  24029850.9744    5957617.75449   4599071.70547                  24029849.7984
        42.5004         25.7504
  23795481.6924   -3130864.54349  -2438298.39647                  23795477.8844
        42.0004         27.0004
  24388371.5524   -1524416.93749  -1188389.34746                  24388370.6884
        40.7504         22.0004
 04  6 29 14 40 50.0010000  0 11G 6G10G16G17G18G21G26G29G30G22G15
  20460592.9744    1882889.77749   1454878.88548                  20460589.8134
        51.0004         40.7504
  24577419.4504    6286064.88749   4853381.72147                  24577418.6574
        40.5004         26.5004
  24187570.4664    -977680.35549   -764114.80046                  24187567.3884
        42.2504         25.0004
  24111788.6614    4353611.02349   3358637.92346                  24111786.4274
        41.0004         22.2504
  21435487.0754   -1708949.65649  -1325383.53047                  21435483.7714
        50.5004         39.2504
  21354625.3564    -298821.53949   -237136.75047                  21354621.6104
        50.5004         39.2504
  21870396.9114    -200981.94949   -158704.73147                  21870394.1034
        48.0004         33.2504
  22614045.3804    1406323.43849   1082877.81247                  22614043.2984
        45.0004         31.2504
  24037780.7864    5999288.88749   4631542.69047                  24037780.3374
        42.0004         26.7504
  23791176.4664   -3153486.72749  -2455926.09247                  23791171.6224
        43.7504         26.7504
  24385386.3024   -1540104.27349  -1200613.18446                  24385384.9664
        41.2504         21.5004
 04  6 29 14 41  0.0010000  0 11G 6G10G16G17G18G21G26G29G30G22G15
  20463644.4664    1898925.95749   1467374.60148                  20463641.6104
        51.2504         41.0004
  24585773.9584    6329970.05549   4887593.46646                  24585773.8724
        40.7504         25.5004
  24186677.5214    -982375.81649   -767773.57946                  24186673.7904
        43.0004         25.0004
  24117530.4584    4383789.50449   3382153.64246                  24117529.8454
        40.0004         22.7504
  21433495.7714   -1719413.73049  -1333537.34747                  21433492.4424
        50.5004         39.0004
  21354171.7164    -301205.47749   -238994.36947                  21354168.0054
        50.7504         38.7504
  21870769.7554    -199022.02749   -157177.51347                  21870766.8684
        47.7504         33.7504
  22616522.3724    1419339.43849   1093020.14647                  22616520.4114
        46.2504         32.0004
  24045708.3174    6040948.13349   4664004.46946                  24045707.9274
        42.0004         25.5004
  23786874.4894   -3176093.77049  -2473541.96647                  23786870.5284
        43.2504         27.2504
  24382399.4034   -1555798.53949  -1212842.48746                  24382398.2284
        41.0004         21.5004
 04  6 29 14 41 10.0010000  0 11G 6G10G16G17G18G21G26G29G30G22G15
  20466704.9354    1915008.39849   1479906.37448                  20466701.8104
        51.5004         41.5004
  24594127.8414    6373868.60549   4921800.07647                  24594127.8724
        40.7504         25.7504
  24185792.2244    -987024.56249   -771395.96146                  24185788.8564
        43.2504         24.7504
  24123273.2944    4413966.34849   3405668.01546                  24123272.6924
        39.0004         23.2504
  21431511.5674   -1729841.32449  -1341662.73947                  21431508.1494
        50.5004         39.2504
  21353719.5754    -303582.34449   -240846.47547                  21353715.7084
        50.7504         38.7504
  21871154.3644    -197000.35249   -155602.18847                  21871152.3604
        47.2504         33.2504
  22619009.5284    1432408.87149   1103204.13347                  22619007.2204
        46.2504         31.7504
  24053633.8964    6082597.12549   4696458.19547                  24053632.5484
        42.5004         25.7504
  23782575.5914   -3198683.83649  -2491144.60247                  23782572.1494
        42.7504         28.2504
  24379412.0214   -1571498.02349  -1225075.81146                  24379410.9504
        40.5004         22.0004
 04  6 29 14 41 20.0010000  0 11G 6G10G16G17G18G21G26G29G30G22G15
  20469773.8564    1931136.57849   1492473.77148                  20469771.5014
        51.5004         41.7504
  24602480.0444    6417759.93049   4956001.11346                  24602479.9114
        41.5004         25.0004
  24184916.3104    -991627.12149   -774982.39146                  24184913.2864
        42.0004         25.5004
  24129015.9584    4444141.00449   3429180.74146                  24129015.3884
        40.2504         22.0004
  21429533.9664   -1740233.04749  -1349760.17547                  21429530.6384
        50.5004         38.7504
  21353268.3884    -305952.57849   -242693.41447                  21353264.6534
        51.0004         38.5004
  21871551.0134    -194917.28549   -153979.00947                  21871549.2904
        47.5004         34.0004
  22621505.9274    1445531.05149   1113429.18947                  22621503.7864
        46.0004         32.5004
  24061557.3174    6124235.05549   4728903.34746                  24061556.0444
        42.0004         25.0004
  23778279.6534   -3221257.52049  -2508734.42847                  23778276.8134
        42.2504         28.0004
  24376423.8884   -1587203.32849  -1237313.70446                  24376422.2594
        39.7504         22.5004
 04  6 29 14 41 30.0010000  0 11G 6G10G16G17G18G21G26G29G30G22G15
  20472851.9034    1947310.77349   1505077.02748                  20472848.9784
        51.5004         42.2504
  24610831.0134    6461644.16849   4990196.60846                  24610830.7204
        40.0004         23.5004
  24184049.5214    -996183.10949   -778532.48346                  24184046.5174
        41.7504         23.5004
  24134757.0914    4474313.69949   3452691.90146                  24134757.1814
        40.0004         23.2504
  21427563.6304   -1750588.52049  -1357829.37448                  21427560.4234
        51.2504         39.7504
  21352818.7394    -308315.92649   -244534.98648                  21352814.6534
        51.0004         39.5004
  21871959.1224    -192772.54749   -152307.78747                  21871956.7984
        47.7504         33.7504
  22624013.6144    1458706.32049   1123695.63947                  22624010.9504
        46.0004         31.7504
  24069478.9974    6165862.19549   4761340.03146                  24069477.5324
        42.0004         24.0004
  23773987.4034   -3243814.51249  -2526311.30847                  23773983.6264
        43.0004         26.7504
  24373433.8564   -1602914.18449  -1249555.91846                  24373432.7124
        40.5004         22.2504
 04  6 29 14 41 40.0010000  0 11G 6G10G16G17G18G21G26G29G30G22G15
  20475938.4034    1963530.74249   1517715.97348                  20475935.6774
        51.5004         42.0004
  24619180.2944    6505521.03149   5024386.31946                  24619180.4194
        39.0004         22.5004
  24183191.5444   -1000692.74649   -782046.54146                  24183187.7864
        42.2504         25.0004
  24140499.3414    4504484.38749   3476201.48846                  24140497.9384
        40.2504         22.5004
  21425599.6064   -1760908.11749  -1365870.61147                  21425596.3724
        51.0004         39.0004
  21352370.3964    -310672.71549   -246371.44747                  21352366.3414
        50.5004         39.2504
  21872379.1064    -190566.33249   -150588.65147                  21872376.5054
        47.7504         33.0004
  22626530.6304    1471934.42649   1134003.22247                  22626528.6614
        46.0004         31.7504
  24077398.1694    6207478.14149   4793768.02346                  24077396.9744
        42.5004         24.5004
  23769698.4034   -3266354.85549  -2543875.19847                  23769693.4464
        41.7504         27.2504
  24370443.6924   -1618630.79349  -1261802.55746                  24370441.9194
        41.5004         22.0004
 04  6 29 14 41 50.0010000  0 11G 6G10G16G17G18G21G26G29G30G22G15
  20479034.1464    1979798.80149   1530392.37148                  20479031.0874
        51.5004         42.0004
  24627528.3334    6549392.68449   5058572.03646                  24627528.5604
        37.5004         21.5004
  24182342.7004   -1005153.82849   -785522.71146                  24182339.4384
        41.5004         25.0004
  24146240.8334    4534655.01249   3499711.04246                  24146237.9074
        41.2504         24.2504
  21423643.3254   -1771189.51249  -1373882.08847                  21423639.2394
        51.2504         39.2504
  21351923.3174    -313020.71549   -248201.05448                  21351919.4744
        51.0004         39.5004
  21872810.9424    -188296.43749   -148819.90247                  21872808.0634
        48.2504         33.2504
  22629058.3254    1485217.55149   1144353.72747                  22629055.9704
        45.5004         31.0004
  24085315.6384    6249084.98849   4826188.95746                  24085314.5174
        43.5004         24.5004
  23765412.5994   -3288876.35249  -2561424.44247                  23765408.2514
        44.0004         27.5004
  24367451.8964   -1634351.00849  -1274052.02946                  24367450.7474
        41.5004         22.0004
 04  6 29 14 42  0.0010000  0 11G 6G10G16G17G18G21G26G29G30G22G15
  20482138.5914    1996112.27749   1543104.17148                  20482136.0874
        52.0004         42.5004
  24635876.4974    6593256.52349   5092751.62046                  24635876.0214
        38.2504         22.0004
  24181502.3724   -1009568.81249   -788962.94346                  24181499.6614
        42.2504         22.5004
  24151981.3104    4564823.16049   3523218.71546                  24151978.3374
        42.0004         24.7504
  21421693.5524   -1781435.06649  -1381865.62847                  21421689.9854
        51.0004         39.2504
  21351477.5444    -315362.34049   -250025.70448                  21351473.9814
        51.2504         39.5004
  21873254.7864    -185965.29749   -147003.42947                  21873252.3604
        47.5004         33.5004
  22631595.9354    1498553.13349   1154745.08147                  22631593.8884
        46.2504         31.5004
  24093230.4424    6290680.15649   4858600.73146                  24093229.7474
        42.5004         25.2504
  23761129.9974   -3311381.50049  -2578960.88647                  23761126.2824
        42.7504         27.5004
  24364458.7004   -1650077.32849  -1286306.33646                  24364458.1924
        41.5004         22.2504
 04  6 29 14 42 10.0010000  0 11G 6G10G16G17G18G21G26G29G30G22G15
  20485251.9114    2012472.98049   1555852.76248                  20485249.3454
        51.0004         42.0004
  24644220.4034    6637114.19549   5126926.37846                  24644222.2984
        36.5004         21.5004
  24180671.1534   -1013935.89849   -792365.89246                  24180667.9784
        42.7504         22.5004
  24157721.5914    4594990.66449   3546725.82846                  24157719.6034
        39.7504         23.2504
  21419751.0604   -1791643.17649  -1389819.99047                  21419747.7634
        50.0004         39.2504
  21351033.8884    -317695.91849   -251844.06947                  21351029.9584
        50.7504         39.0004
  21873709.8964    -183571.14849   -145137.85947                  21873707.7284
        47.5004         33.7504
  22634144.1144    1511942.91049   1165178.67047                  22634141.8844
        46.2504         31.7504
  24101143.9744    6332265.32049   4891004.77046                  24101143.3644
        43.7504         23.2504
  23756850.1854   -3333868.47349  -2596483.18247                  23756847.0994
        42.2504         27.0004
  24361465.8804   -1665807.98849  -1298563.95746                  24361464.2084
        42.0004         22.2504
 04  6 29 14 42 20.0010000  0 11G 6G10G16G17G18G21G26G29G30G22G15
  20488374.0604    2028880.55949   1568637.88148                  20488371.4234
        51.5004         42.2504
  24652566.3334    6680965.24249   5161095.92546                  24652566.2434
        38.0004         21.0004
  24179849.1464   -1018255.49649   -795731.79546                  24179846.0444
        42.5004         22.5004
  24163462.4034    4625157.08649   3570232.07046                  24163460.2004
        40.0004         24.5004
  21417815.4744   -1801814.11349  -1397745.39347                  21417812.2244
        50.0004         39.0004
  21350590.8964    -320021.89149   -253656.51748                  21350587.3454
        50.5004         39.7504
  21874177.8104    -181114.27749   -143223.39647                  21874175.2244
        47.7504         34.0004
  22636702.5134    1525386.64549   1175654.31847                  22636699.9544
        46.5004         31.7504
  24109055.9584    6373839.94549   4923400.58047                  24109054.8374
        44.5004         26.0004
  23752574.5754   -3356337.64849  -2613991.61347                  23752571.1654
        43.7504         27.5004
  24358471.7394   -1681543.39849  -1310825.26946                  24358469.7044
        41.5004         21.5004
 04  6 29 14 42 30.0010000  0 11G 6G10G16G17G18G21G26G29G30G22G15
  20491505.4974    2045335.74249   1581460.10348                  20491502.6574
        51.0004         41.7504
  24660910.0284    6724810.24549   5195260.92746                  24660910.1534
        38.5004         21.0004
  24179036.2944   -1022526.94549   -799060.18146                  24179033.2354
        43.0004         22.7504
  24169202.9504    4655323.12549   3593738.06746                  24169200.7594
        40.7504         24.5004
  21415887.2314   -1811947.18049  -1405641.28047                  21415884.0244
        51.0004         39.2504
  21350149.9504    -322339.45749   -255462.40647                  21350146.6344
        50.5004         39.0004
  21874657.1534    -178593.96149   -141259.52447                  21874654.9934
        47.7504         33.5004
  22639270.8964    1538884.92249   1186172.44247                  22639268.8334
        46.5004         31.5004
  24116964.9894    6415404.57849   4955788.58146                  24116963.7474
        44.5004         25.5004
  23748303.0214   -3378788.23049  -2631485.54147                  23748298.6104
        42.5004         28.0004
  24355476.5284   -1697282.89549  -1323089.81846                  24355474.5564
        40.7504         21.5004
 04  6 29 14 42 40.0010000  0 11G 6G10G16G17G18G21G26G29G30G22G15
  20494645.3804    2061835.58249   1594317.11948                  20494642.6854
        51.0004         41.5004
  24669251.0524    6768646.28949   5229418.74846                  24669251.2164
        37.5004         20.0004
  24178232.4584   -1026753.01249   -802353.24146                  24178228.7514
        42.0004         22.5004
  24174942.4744    4685485.94949   3617241.52046                  24174940.4744
        41.5004         23.5004
  21413965.6224   -1822045.30149  -1413509.95347                  21413962.5714
        50.7504         39.0004
  21349710.0134    -324651.51649   -257264.01947                  21349706.2714
        50.7504         38.7504
  21875148.6464    -176013.04749   -139248.42447                  21875145.6884
        48.0004         34.0004
  22641849.4974    1552434.71549   1196730.72247                  22641847.4894
        46.2504         31.7504
  24124872.3024    6456956.20749   4988166.48246                  24124870.7354
        45.0004         25.2504
  23744033.4354   -3401223.03949  -2648967.19747                  23744029.6814
        42.0004         26.0004
  24352479.4744   -1713029.34849  -1335359.76046                  24352477.9854
        40.7504         21.2504
 04  6 29 14 42 50.0010000  0 11G 6G10G16G17G18G21G26G29G30G22G15
  20497793.8644    2078381.92649   1607210.37248                  20497791.4744
        51.5004         42.0004
  24677590.9354    6812475.09449   5263571.10946                  24677591.7434
        37.0004         19.2504
  24177436.9814   -1030931.86749   -805609.48646                  24177433.3884
        41.5004         22.5004
  24180682.3724    4715647.20749   3640743.79746                  24180680.4744
        41.5004         25.0004
  21412051.3334   -1832106.65649  -1421349.96648                  21412047.9814
        50.5004         39.5004
  21349271.7164    -326956.21549   -259059.88247                  21349267.8804
        51.0004         38.5004
  21875651.7634    -173369.65649   -137188.62347                  21875649.1464
        48.5004         34.2504
  22644438.2004    1566038.06349   1207330.73447                  22644435.5754
        46.2504         31.7504
  24132777.3884    6498496.65249   5020535.64446                  24132775.8604
        45.0004         25.5004
  23739767.3724   -3423640.30149  -2666435.17547                  23739763.9744
        43.0004         27.0004
  24349482.4894   -1728780.94949  -1347633.69946                  24349480.4234
        40.2504         21.2504
 04  6 29 14 43  0.0010000  0 11G 6G10G16G17G18G21G26G29G30G22G15
  20500951.8724    2094977.50849   1620141.99648                  20500949.0404
        51.7504         42.7504
  24685930.5994    6856299.41049   5297719.79646                  24685931.1924
        36.2504         18.2504
  24176651.3644   -1035060.66049   -808826.77846                  24176648.0054
        42.0004         22.0004
  24186422.2864    4745809.86349   3664247.11546                  24186420.3644
        40.0004         24.7504
  21410144.2944   -1842128.37949  -1429159.10748                  21410140.5174
        51.2504         39.7504
  21348835.0134    -329250.86349   -260847.91647                  21348830.6574
        51.0004         38.2504
  21876166.8884    -170660.96549   -135077.95347                  21876164.8104
        48.5004         34.7504
  22647037.3804    1579697.51649   1217974.45047                  22647034.9384
        45.7504         31.0004
  24140680.6534    6540028.58649   5052898.16047                  24140679.0094
        45.5004         26.2504
  23735505.9584   -3446037.12149  -2683887.25047                  23735501.4704
        44.2504         27.0004
  24346484.0054   -1744534.95749  -1359909.60946                  24346482.1034
        39.5004         21.5004
 04  6 29 14 43 10.0010000  0 11G 6G10G16G17G18G21G26G29G30G22G15
  20504118.3724    2111617.27349   1633108.04648                  20504115.8844
        52.0004         42.0004
  24694268.9504    6900114.02349   5331861.08146                  24694268.4704
        38.2504         18.2504
  24175874.3564   -1039144.44149   -812008.88346                  24175870.6184
        42.0004         22.7504
  24192160.4274    4775968.75849   3687747.62046                  24192158.9504
        39.5004         22.5004
  21408243.8024   -1852115.52049  -1436941.28348                  21408240.0214
        51.2504         39.7504
  21348399.2084    -331540.41849   -262631.99147                  21348395.5634
        50.5004         38.7504
  21876694.0214    -167891.96949   -132920.28847                  21876691.5564
        48.5004         34.0004
  22649646.3174    1593408.21549   1228658.10847                  22649644.6304
        46.0004         31.0004
  24148581.0604    6581546.80549   5085250.01747                  24148579.4354
        44.5004         26.0004
  23731246.8414   -3468418.63349  -2701327.40447                  23731242.3134
        42.2504         28.2504
  24343484.7004   -1760296.44949  -1372191.21646                  24343482.4234
        39.5004         22.0004
 04  6 29 14 43 20.0010000  0 11G 6G10G16G17G18G21G26G29G30G22G15
  20507293.7554    2128304.66449   1646111.20648                  20507291.6734
        51.2504         42.0004
  24702604.3334    6943922.21149   5365997.20846                  24702604.8994
        39.5004         19.5004
  24175106.3724   -1043179.81649   -815153.38946                  24175102.7984
        41.5004         21.7504
  24197899.6924    4806127.28949   3711247.71146                  24197897.9234
        39.0004         23.0004
  21406350.4894   -1862064.66849  -1444693.86347                  21406346.4464
        50.7504         39.2504
  21347964.6534    -333821.55149   -264409.49347                  21347961.0054
        49.7504         38.7504
  21877232.7714    -165059.27349   -130713.00347                  21877230.2634
        48.0004         34.7504
  22652265.8564    1607173.47349   1239384.28947                  22652263.7784
        46.0004         30.7504
  24156479.8174    6623054.55149   5117593.68846                  24156478.6534
        44.0004         25.2504
  23726991.5284   -3490781.25049  -2718752.80847                  23726987.7984
        42.0004         29.2504
  24340484.8414   -1776061.98449  -1384476.03446                  24340482.5564
        39.7504         20.5004
 04  6 29 14 43 30.0010000  0 11G 6G10G16G17G18G21G26G29G30G22G15
  20510478.0284    2145037.69149   1659149.93248                  20510475.8214
        51.7504         42.2504
  24710939.6534    6987721.91849   5400126.88446                  24710939.7634
        39.0004         19.2504
  24174347.6304   -1047168.72349   -818261.61346                  24174343.5914
        41.7504         22.0004
  24203638.1464    4836283.54749   3734746.07046                  24203637.4744
        38.2504         24.5004
  21404463.8494   -1871977.83649  -1452418.40447                  21404460.2594
        50.7504         39.0004
  21347532.0214    -336096.23849   -266181.97147                  21347528.4034
        50.0004         39.0004
  21877784.1464    -162164.80149   -128457.56047                  21877781.6884
        48.0004         35.2504
  22654895.0054    1620991.20349   1250151.35547                  22654892.4744
        45.0004         31.2504
  24164376.2784    6664549.73049   5149927.56746                  24164374.6574
        43.7504         25.0004
  23722739.0604   -3513126.95749  -2736165.00247                  23722735.9624
        42.0004         29.0004
  24337483.3414   -1791833.66849  -1396765.64146                  24337481.2314
        40.2504         21.0004
 04  6 29 14 43 40.0010000  0 11G 6G10G16G17G18G21G26G29G30G22G15
  20513671.3644    2161819.46549   1672226.63548                  20513668.7674
        52.0004         42.0004
  24719273.8334    7031516.21149   5434252.28646                  24719273.4274
        39.5004         19.0004
  24173597.9194   -1051108.06649   -821331.24246                  24173593.8644
        41.5004         22.0004
  24209376.9424    4866440.54749   3758245.02646                  24209375.2864
        39.5004         22.5004
  21402585.0054   -1881851.90649  -1460112.49747                  21402581.0284
        50.5004         39.2504
  21347100.8564    -338361.44149   -267947.07047                  21347097.2634
        50.0004         38.7504
  21878346.5914    -159205.39849   -126151.53747                  21878344.7714
        48.2504         35.2504
  22657535.0524    1634864.62949   1260961.80147                  22657532.4194
        45.5004         31.0004
  24172270.2394    6706035.31349   5182253.99346                  24172269.1344
        43.7504         24.7504
  23718490.4974   -3535452.59849  -2753561.56747                  23718487.1854
        44.0004         27.7504
  24334481.8024   -1807608.32049  -1409057.56146                  24334479.5484
        40.5004         21.5004
 04  6 29 14 43 50.0010000  0 11G 6G10G16G17G18G21G26G29G30G22G15
  20516873.9974    2178649.12949   1685340.65548                  20516871.6344
        51.0004         42.2504
  24727606.4504    7075304.23449   5468372.81646                  24727605.5874
        40.0004         19.5004
  24172857.4744   -1054998.52049   -824362.79246                  24172853.4424
        42.0004         22.5004
  24215115.8024    4896597.51249   3781743.98146                  24215114.2714
        40.0004         22.7504
  21400713.3104   -1891687.65649  -1467776.71247                  21400709.3684
        51.0004         38.7504
  21346671.5994    -340617.86349   -269705.31247                  21346668.0754
        50.0004         38.5004
  21878922.1304    -156181.87149   -123795.52547                  21878920.3764
        48.7504         34.7504
  22660185.5054    1648792.77749   1271814.89947                  22660182.8804
        46.0004         31.5004
  24180162.9814    6747510.46549   5214572.24546                  24180161.3374
        44.0004         25.2504
  23714245.5674   -3557758.92649  -2770943.12847                  23714240.5604
        43.0004         27.2504
  24331479.5214   -1823386.73849  -1421352.44746                  24331477.2164
        41.2504         22.7504
 04  6 29 14 44  0.0010000  0 11G 6G10G16G17G18G21G26G29G30G22G15
  20520085.2084    2195523.90249   1698489.81448                  20520082.4704
        51.5004         41.7504
  24735937.0214    7119083.13749   5502486.27146                  24735936.7164
        38.2504         20.2504
  24172125.3884   -1058842.97349   -827358.44646                  24172122.5094
        41.5004         20.7504
  24220853.8644    4926751.73849   3805240.74646                  24220852.1774
        39.5004         22.5004
  21398848.4114   -1901487.85949  -1475413.24347                  21398844.4384
        50.5004         38.7504
  21346243.5054    -342868.35249   -271458.95247                  21346239.4424
        50.2504         38.7504
  21879508.9584    -153096.86749   -121391.64447                  21879506.7714
        48.5004         35.0004
  22662845.7164    1662772.96149   1282708.53147                  22662843.3334
        45.7504         31.7504
  24188052.9894    6788972.26249   5246880.15446                  24188051.3174
        44.2504         24.5004
  23710004.3254   -3580048.57449  -2788311.72047                  23709999.0404
        44.5004         28.0004
  24328475.5834   -1839171.75449  -1433652.37346                  24328473.9114
        40.7504         22.0004
 04  6 29 14 44 10.0010000  0 11G 6G10G16G17G18G21G26G29G30G22G15
  20523305.3494    2212445.01649   1711675.09248                  20523302.8294
        51.5004         42.0004
  24744267.1304    7162853.93449   5536593.32146                  24744265.9034
        39.5004         19.0004
  24171403.2474   -1062640.15649   -830317.32046                  24171400.1304
        40.7504         21.5004
  24226591.1854    4956904.25049   3828736.18046                  24226590.3564
        39.0004         22.5004
  21396990.4664   -1911251.28149  -1483021.08548                  21396986.3374
        50.7504         39.5004
  21345816.4744    -345111.71949   -273207.01947                  21345812.7944
        49.5004         39.0004
  21880108.3804    -149949.30149   -118938.98047                  21880106.1534
        48.7504         34.5004
  22665516.6464    1676806.25449   1293643.56047                  22665514.2354
        46.0004         31.7504
  24195941.2554    6830421.71549   5279178.38746                  24195938.8494
        43.7504         25.2504
  23705766.5914   -3602320.46949  -2805666.41947                  23705762.3064
        42.2504         28.2504
  24325470.5604   -1854962.25449  -1445956.66146                  24325469.0014
        42.0004         22.2504
 04  6 29 14 44 20.0010000  0 11G 6G10G16G17G18G21G26G29G30G22G15
  20526534.2314    2229414.03949   1724897.69148                  20526531.8214
        51.5004         42.0004
  24752595.1144    7206618.23849   5570695.36146                  24752593.8964
        40.0004         19.2504
  24170690.3494   -1066388.39549   -833238.02946                  24170686.4384
        41.0004         20.5004
  24232328.7314    4987056.81349   3852231.58546                  24232327.5134
        39.0004         21.2504
  21395139.5284   -1920976.28549  -1490599.01047                  21395135.7164
        51.0004         38.7504
  21345391.2634    -347346.16849   -274948.14747                  21345387.1734
        49.7504         39.0004
  21880719.6854    -146737.29749   -116436.12947                  21880717.4814
        47.7504         34.5004
  22668197.6534    1690894.37149   1304621.33047                  22668195.1694
        46.0004         32.2504
  24203826.3964    6871860.46149   5311468.32447                  24203824.4194
        43.5004         25.7504
  23701531.4814   -3624572.87549  -2823005.91847                  23701528.0174
        42.7504         27.7504
  24322465.0914   -1870756.57849  -1458263.90546                  24322464.0364
        41.7504         21.7504
 04  6 29 14 44 30.0010000  0 11G 6G10G16G17G18G21G26G29G30G22G15
  20529772.2714    2246430.00849   1738156.88948                  20529769.9154
        50.7504         41.7504
  24760922.4814    7250374.86349   5604791.46546                  24760920.5174
        40.0004         19.5004
  24169986.1924   -1070088.72749   -836121.44546                  24169982.1264
        42.0004         21.2504
  24238067.3024    5017208.46149   3875726.42946                  24238064.8924
        39.0004         20.5004
  21393296.2714   -1930663.94149  -1498147.83147                  21393292.6964
        51.0004         38.5004
  21344967.7864    -349572.89549   -276683.27247                  21344963.8884
        49.7504         39.0004
  21881342.7084    -143461.99649   -113883.93747                  21881340.9384
        48.0004         35.2504
  22670888.8254    1705036.32049   1315641.04047                  22670886.1224
        46.0004         31.7504
  24211708.9974    6913287.30949   5343748.96247                  24211708.0994
        43.0004         26.0004
  23697300.4194   -3646806.77749  -2840331.01447                  23697296.4894
        43.5004         28.5004
  24319458.3644   -1886555.73449  -1470574.94146                  24319457.1534
        41.7504         22.7504
 04  6 29 14 44 40.0010000  0 11G 6G10G16G17G18G21G26G29G30G22G15
  20533018.5054    2263489.68849   1751450.12948                  20533016.2124
        50.5004         42.0004
  24769246.4974    7294120.62949   5638879.10846                  24769244.9894
        41.0004         21.0004
  24169290.4194   -1073744.30149   -838969.92146                  24169286.4624
        41.5004         22.0004
  24243803.9584    5047355.87949   3899217.86046                  24243801.3414
        38.2504         21.2504
  21391459.6614   -1940317.36749  -1505669.98547                  21391455.8964
        50.5004         39.0004
  21344545.1384    -351795.01249   -278414.78247                  21344540.4894
        49.5004         38.7504
  21881977.2784    -140126.48449   -111284.83647                  21881975.6614
        47.7504         35.0004
  22673589.4744    1719228.87549   1326700.15347                  22673586.7714
        46.5004         31.0004
  24219590.0134    6954699.05549   5376017.80847                  24219588.5524
        42.5004         26.5004
  23693071.9194   -3669025.31649  -2857644.18947                  23693067.0954
        42.2504         27.2504
  24316450.2634   -1902362.93449  -1482892.18546                  24316448.7354
        41.2504         22.7504
 04  6 29 14 44 50.0010000  0 11G 6G10G16G17G18G21G26G29G30G22G15
  20536273.8964    2280596.67249   1764780.24748                  20536271.8064
        50.0004         41.7504
  24777569.5674    7337858.87549   5672960.77946                  24777568.2124
        40.2504         21.2504
  24168603.4584   -1077351.57449   -841780.78246                  24168600.3454
        42.0004         21.5004
  24249539.7714    5077502.62949   3922708.80146                  24249537.9894
        36.0004         19.7504
  21389629.2864   -1949933.09449  -1513162.73948                  21389625.8064
        50.5004         39.5004
  21344123.3104    -354009.12949   -280140.06847                  21344119.2204
        49.5004         38.7504
  21882624.5524    -136727.27049   -108636.09047                  21882622.8964
        48.0004         35.5004
  22676300.5054    1733475.43849   1337801.36147                  22676297.8064
        46.2504         31.0004
  24227467.9114    6996099.04749   5408277.58647                  24227467.3254
        43.5004         25.7504
  23688847.8414   -3691224.94149  -2874942.58947                  23688843.8294
        41.2504         27.5004
  24313441.8174   -1918174.69949  -1495213.05646                  24313440.3604
        41.2504         22.5004
 04  6 29 14 45  0.0010000  0 11G 6G10G16G17G18G21G26G29G30G22G15
  20539538.3174    2297752.93449   1778148.75248                  20539536.2744
        49.7504         42.0004
  24785891.7714    7381591.74249   5707038.33546                  24785890.3374
        40.2504         21.5004
  24167927.0994   -1080908.45349   -844552.35846                  24167923.4034
        41.2504         21.7504
  24255277.3104    5107650.75849   3946200.77146                  24255274.9354
        37.2504         19.5004
  21387807.1064   -1959508.91849  -1520624.42948                  21387803.3764
        51.2504         39.5004
  21343704.2004    -356213.16049   -281857.49847                  21343699.6304
        49.0004         39.0004
  21883283.5914    -133262.10249   -105935.95847                  21883282.1534
        48.0004         35.0004
  22679022.1064    1747778.05549   1348946.26947                  22679019.2084
        45.2504         31.2504
  24235343.9114    7037489.17649   5440529.58847                  24235343.5094
        43.2504         26.2504
  23684627.7164   -3713403.55149  -2892224.59147                  23684624.7394
        43.5004         29.2504
  24310432.7084   -1933988.89849  -1507535.77246                  24310430.3534
        41.2504         22.2504
 04  6 29 14 45 10.0010000  0 11G 6G10G16G17G18G21G26G29G30G22G15
  20542812.3724    2314955.61349   1791553.44048                  20542810.0324
        49.2504         41.7504
  24794211.9114    7425316.14849   5741109.25746                  24794210.6344
        40.0004         21.0004
  24167259.5284   -1084417.85549   -847286.98946                  24167255.7864
        42.0004         21.5004
  24261014.8494    5137797.33649   3969691.62046                  24261011.8454
        36.7504         19.7504
  21385991.9194   -1969047.77049  -1528057.28948                  21385988.4894
        50.5004         39.7504
  21343285.9974    -358410.04349   -283569.35348                  21343281.4234
        48.5004         39.5004
  21883955.3104    -129734.01249   -103186.80347                  21883953.0634
        47.5004         35.2504
  22681753.9194    1762133.97749   1360132.68447                  22681751.2634
        45.7504         31.7504
  24243218.4974    7078866.49249   5472771.65247                  24243216.8214
        43.0004         26.2504
  23680410.2164   -3735563.89849  -2909492.36747                  23680407.4664
        40.7504         28.7504
  24307421.8414   -1949808.46549  -1519862.67446                  24307420.0094
        41.0004         22.7504
 04  6 29 14 45 20.0010000  0 11G 6G10G16G17G18G21G26G29G30G22G15
  20546095.1224    2332207.19149   1804996.22648                  20546092.8534
        49.2504         42.0004
  24802531.6694    7469034.53949   5775175.46646                  24802530.2084
        40.0004         20.5004
  24166600.5834   -1087877.23049   -849982.57846                  24166597.1734
        42.7504         21.7504
  24266749.7394    5167944.89548   3993183.29646                  24266749.1464
        35.0004         19.0004
  21384184.5524   -1978547.15649  -1535459.40648                  21384181.1464
        50.5004         39.7504
  21342869.8494    -360597.11349   -285273.55948                  21342865.8214
        49.0004         39.7504
  21884639.3414    -126140.35949   -100386.54547                  21884637.0214
        48.2504         34.2504
  22684496.2714    1776545.57049   1371362.50247                  22684494.0054
        46.2504         31.5004
  24251090.3724    7120233.30549   5505005.54247                  24251088.5174
        43.0004         26.2504
  23676197.2394   -3757703.58249  -2926744.02747                  23676193.3804
        42.7504         27.7504
  24304411.3254   -1965630.91449  -1532191.85246                  24304409.5604
        41.7504         23.0004
 04  6 29 14 45 30.0010000  0 11G 6G10G16G17G18G21G26G29G30G22G15
  20549386.9424    2349505.48449   1818475.41348                  20549384.6264
        49.0004         42.0004
  24810849.2554    7512744.60549   5809235.31846                  24810848.5404
        39.2504         20.2504
  24165951.6614   -1091288.75849   -852640.98746                  24165948.1464
        41.5004         22.0004
  24272487.1304    5198091.32448   4016673.96946                  24272487.4314
        35.7504         18.2504
  21382383.8104   -1988009.22349  -1542832.44648                  21382379.8684
        50.7504         39.7504
  21342454.9354    -362776.51649   -286971.79747                  21342451.2244
        48.5004         39.0004
  21885334.7554    -122483.28549    -97536.88847                  21885332.6964
        48.5004         35.0004
  22687249.2864    1791010.66849   1382633.99647                  22687246.6814
        46.5004         32.0004
  24258959.4664    7161587.43449   5537229.48246                  24258958.5404
        43.0004         24.2504
  23671988.6464   -3779824.70349  -2943981.30747                  23671982.6924
        43.7504         29.2504
  24301399.4974   -1981458.39149  -1544524.94546                  24301397.5444
        42.7504         22.7504
 04  6 29 14 45 40.0010000  0 11G 6G10G16G17G18G21G26G29G30G22G15
  20552687.6534    2366852.02049   1831992.18448                  20552685.5404
        49.0004         42.0004
  24819165.8334    7556447.91849   5843289.77746                  24819164.4464
        39.0004         20.7504
  24165311.9354   -1094650.80949   -855260.76246                  24165307.9854
        41.5004         20.7504
  24278225.1224    5228238.15649   4040164.92246                  24278224.1384
        37.2504         19.7504
  21380590.8724   -1997432.42649  -1550175.19748                  21380587.0994
        50.5004         40.2504
  21342042.1464    -364946.74249   -288662.88248                  21342038.2864
        47.5004         39.5004
  21886042.9504    -118761.23049    -94636.57047                  21886041.1734
        47.0004         35.0004
  22690011.9744    1805530.79349   1393948.37047                  22690009.1614
        46.2504         31.5004
  24266826.7944    7202930.38349   5569444.76746                  24266825.2714
        42.5004         25.5004
  23667782.1924   -3801925.58249  -2961202.78447                  23667777.0874
        41.2504         28.0004
  24298387.6534   -1997289.41849  -1556860.75646                  24298385.2514
        40.0004         22.5004
 04  6 29 14 45 50.0010000  0 11G 6G10G16G17G18G21G26G29G30G22G15
  20555997.0364    2384242.83249   1845543.47948                  20555994.7204
        49.2504         41.5004
  24827479.5134    7600140.24249   5877335.74146                  24827479.2314
        36.5004         22.0004
  24164680.6854   -1097967.37149   -857845.10746                  24164677.3134
        40.5004         21.0004
  24283960.9504    5258381.35249   4063653.13146                  24283960.2714
        39.5004         19.5004
  21378804.0994   -2006820.87549  -1557490.86748                  21378800.4424
        50.7504         40.0004
  21341630.1534    -367112.00449   -290350.08747                  21341626.0914
        48.7504         39.2504
  21886763.1694    -114978.27749    -91688.80647                  21886760.9354
        47.5004         35.0004
  22692785.3964    1820101.91449   1405302.49347                  22692781.6534
        46.5004         31.0004
  24274691.0674    7244257.80149   5601647.96046                  24274689.6424
        42.0004         25.5004
  23663578.7784   -3824010.33649  -2978411.65347                  23663575.7784
        40.5004         28.5004
  24295373.1224   -2013128.09149  -1569202.52246                  24295370.9934
        41.7504         22.5004
 04  6 29 14 46  0.0010000  0 11G 6G10G16G17G18G21G26G29G30G22G15
  20559315.6614    2401681.50849   1859132.05748                  20559313.0054
        48.2504         42.0004
  24835793.3104    7643825.26649   5911375.98046                  24835792.3924
        37.5004         21.5004
  24164059.1464   -1101234.81249   -860391.17146                  24164055.0404
        41.2504         22.0004
  24289696.7714    5288524.50449   4087141.28046                  24289696.3334
        38.7504         19.5004
  21377024.8884   -2016170.83249  -1564776.54548                  21377020.9234
        50.5004         39.7504
  21341219.8024    -369268.47349   -292030.46148                  21341215.5244
        48.5004         39.5004
  21887495.5834    -111130.59849    -88690.63047                  21887493.1964
        47.7504         35.0004
  22695568.5284    1834727.52749   1416699.07347                  22695565.4424
        46.7504         31.2504
  24282552.8804    7285573.38749   5633841.87747                  24282551.8884
        41.5004         25.7504
  23659381.1614   -3846075.15249  -2995604.99547                  23659377.1104
        42.7504         29.7504
  24292358.0054   -2028970.63349  -1581547.40346                  24292356.0244
        41.2504         22.5004
 04  6 29 14 46 10.0010000  0 11G 6G10G16G17G18G21G26G29G30G22G15
  20562643.7164    2419170.96949   1872760.20648                  20562641.3764
        48.2504         41.7504
  24844105.1224    7687505.74248   5945412.65346                  24844104.6144
        35.7504         21.5004
  24163446.6304   -1104450.25049   -862896.73446                  24163442.8494
        41.2504         21.0004
  24295433.2314    5318670.47349   4110631.65146                  24295432.3684
        39.2504         19.0004
  21375253.4354   -2025479.32849  -1572029.90948                  21375250.0994
        51.2504         40.0004
  21340811.8174    -371413.28549   -293701.73547                  21340807.3924
        48.0004         38.7504
  21888240.6854    -107215.28149    -85639.71147                  21888238.1884
        48.2504         34.5004
  22698362.4664    1849410.68049   1428140.48347                  22698359.8564
        45.2504         30.7504
  24290413.7244    7326879.82849   5666028.72446                  24290411.9274
        41.5004         25.2504
  23655186.7864   -3868117.07049  -3012780.49047                  23655182.6264
        42.5004         30.7504
  24289342.4664   -2044814.25449  -1593893.08046                  24289341.1224
        40.7504         22.7504
 04  6 29 14 46 20.0010000  0 11G 6G10G16G17G18G21G26G29G30G22G15
  20565981.3104    2436709.96949   1886426.94848                  20565978.8604
        48.5004         41.7504
  24852415.6064    7731180.46548   5979444.85046                  24852415.5834
        35.0004         21.2504
  24162844.9274   -1107614.85549   -865362.62246                  24162840.8644
        42.5004         21.7504
  24301169.4584    5348818.27049   4134123.39746                  24301168.9814
        37.5004         18.5004
  21373489.7554   -2034747.57449  -1579251.91548                  21373486.2434
        51.2504         39.7504
  21340405.5674    -373547.51649   -295364.76047                  21340401.2554
        48.0004         39.0004
  21888997.8804    -103233.56249    -82537.06747                  21888995.6854
        48.0004         34.7504
  22701167.4814    1864150.17649   1439625.80347                  22701165.4354
        45.2504         31.5004
  24298271.6384    7368176.00849   5698207.55547                  24298270.3134
        41.7504         25.7504
  23650996.3964   -3890137.21949  -3029939.04247                  23650991.9234
        42.0004         28.7504
  24286327.4034   -2060660.07449  -1606240.42546                  24286325.4974
        40.5004         22.5004
 04  6 29 14 46 30.0010000  0 11G 6G10G16G17G18G21G26G29G30G22G15
  20569327.3334    2454294.55549   1900129.21848                  20569325.0404
        49.0004         42.0004
  24860725.0214    7774845.33249   6013469.33546                  24860724.3174
        36.2504         21.0004
  24162251.8254   -1110732.60249   -867792.05546                  24162248.0954
        43.0004         22.5004
  24306906.6304    5378963.74248   4157613.38746                  24306905.3644
        35.7504         18.5004
  21371732.9274   -2043979.50849  -1586445.62148                  21371729.6854
        50.7504         40.2504
  21340000.4194    -375675.19549   -297022.69947                  21339996.2864
        49.0004         39.0004
  21889768.1614     -99189.27049    -79385.67147                  21889765.7674
        48.7504         35.2504
  22703981.3174    1878941.87949   1451151.81447                  22703980.2474
        46.2504         32.0004
  24306127.4354    7409457.66849   5730375.04546                  24306126.6924
        42.2504         25.5004
  23646809.3414   -3912139.62549  -3047083.75947                  23646804.3454
        42.7504         28.5004
  24283310.9584   -2076512.16049  -1618592.70346                  24283308.9784
        40.2504         21.5004
 04  6 29 14 46 40.0010000  0 11G 6G10G16G17G18G21G26G29G30G22G15
  20572682.7554    2471925.26249   1913867.43748                  20572680.1814
        49.7504         42.0004
  24869032.8964    7818500.70749   6047486.49546                  24869031.4624
        37.5004         22.0004
  24161667.3254   -1113802.93449   -870184.50146                  24161663.0134
        43.0004         21.2504
  24312643.2784    5409107.37949   4181101.83346                  24312640.9154
        37.7504         19.0004
  21369983.0914   -2053174.74649  -1593610.73748                  21369980.1884
        50.7504         40.0004
  21339596.9114    -377796.09049   -298675.33847                  21339592.5914
        49.2504         38.7504
  21890549.4504     -95081.94949    -76185.16347                  21890547.2284
        48.7504         35.5004
  22706806.8174    1893786.37149   1462718.95547                  22706804.3214
        46.5004         31.7504
  24313980.4424    7450725.25049   5762531.61147                  24313979.5954
        42.2504         26.2504
  23642625.4274   -3934123.78149  -3064214.27247                  23642621.1654
        42.2504         27.2504
  24280292.7084   -2092370.05549  -1630949.48546                  24280291.2244
        40.0004         21.7504
 04  6 29 14 46 50.0010000  0 11G 6G10G16G17G18G21G26G29G30G22G15
  20576046.6854    2489603.80149   1927642.91448                  20576044.3294
        50.0004         41.7504
  24877338.9664    7862148.25849   6081497.48946                  24877337.8884
        38.7504         21.0004
  24161092.4114   -1116824.10949   -872538.66846                  24161087.7674
        42.0004         21.7504
  24318379.7394    5439250.95349   4204590.38246                  24318376.9234
        39.2504         18.5004
  21368240.8414   -2062331.48849  -1600745.85648                  21368237.3804
        51.0004         40.2504
  21339194.9664    -379908.21949   -300321.16047                  21339190.6144
        50.0004         38.7504
  21891342.9274     -90909.76649    -72934.10847                  21891340.9974
        48.7504         34.7504
  22709641.6614    1908685.32849   1474328.51947                  22709638.9114
        46.2504         32.0004
  24321831.6534    7491980.45749   5794678.50547                  24321830.2354
        41.7504         26.2504
  23638446.2554   -3956087.77349  -3081329.05547                  23638441.5754
        42.0004         28.5004
  24277274.6614   -2108231.94549  -1643309.37246                  24277272.9194
        40.0004         22.0004
 04  6 29 14 47  0.0010000  0 11G 6G10G16G17G18G21G26G29G30G22G15
  20579419.8884    2507330.98449   1941456.31048                  20579417.5094
        49.5004         41.5004
  24885643.7554    7905788.85249   6115503.09946                  24885642.1464
        39.0004         21.2504
  24160526.6614   -1119795.18049   -874853.81646                  24160522.3964
        42.0004         22.5004
  24324114.9034    5469395.39849   4228079.50046                  24324113.9234
        40.5004         20.5004
  21366505.5604   -2071448.88349  -1607850.31948                  21366502.2594
        50.5004         40.0004
  21338795.0134    -382010.76249   -301959.50347                  21338790.5794
        49.2504         38.7504
  21892149.4584     -86671.91849    -69631.88447                  21892147.5214
        48.2504         35.0004
  22712487.6384    1923639.61349   1485981.20547                  22712485.0444
        45.7504         31.2504
  24329679.9424    7533223.91449   5826816.22446                  24329678.4234
        42.0004         25.5004
  23634270.6304   -3978030.80149  -3098427.51747                  23634267.0404
        43.5004         30.0004
  24274255.7554   -2124097.09449  -1655671.84246                  24274254.3534
        40.7504         22.0004
 04  6 29 14 47 10.0010000  0 11G 6G10G16G17G18G21G26G29G30G22G15
  20582801.7784    2525103.05549   1955304.67648                  20582799.6654
        50.5004         41.5004
  24893944.8644    7949418.58649   6149500.25846                  24893944.4234
        38.5004         21.2504
  24159970.2784   -1122719.97749   -877132.85646                  24159965.8454
        42.0004         22.5004
  24329851.1384    5499536.73049   4251566.32446                  24329849.6494
        40.2504         20.5004
  21364777.5674   -2080530.64849  -1614927.01248                  21364774.0714
        50.5004         39.7504
  21338395.8804    -384107.53149   -303593.33647                  21338391.4664
        49.2504         39.0004
  21892967.8884     -82372.14149    -66281.39947                  21892965.8684
        47.7504         35.5004
  22715343.3964    1938645.39149   1497674.02147                  22715341.0054
        45.5004         31.2504
  24337525.1774    7574451.76249   5858941.77546                  24337523.9464
        41.5004         25.2504
  23630097.9424   -3999956.58249  -3115512.52247                  23630095.0404
        41.0004         29.2504
  24271235.0364   -2139969.19549  -1668039.67546                  24271234.0834
        40.7504         22.7504
 04  6 29 14 47 20.0010000  0 11G 6G10G16G17G18G21G26G29G30G22G15
  20586192.8334    2542922.79749   1969190.17348                  20586190.8564
        50.5004         41.7504
  24902246.8414    7993040.17649   6183491.08146                  24902245.2204
        40.0004         21.2504
  24159423.4814   -1125595.62149   -879373.64546                  24159419.1924
        42.0004         22.2504
  24335586.5524    5529678.05549   4275052.99046                  24335585.9274
        41.0004         22.0004
  21363056.3964   -2089573.97749  -1621973.76348                  21363053.4194
        49.5004         40.0004
  21337998.4424    -386195.74649   -305220.51947                  21337994.2984
        50.0004         38.7504
  21893798.7474     -78007.54349    -62880.42047                  21893796.0134
        48.0004         35.0004
  22718209.0914    1953705.53549   1509409.19647                  22718207.3604
        47.0004         32.2504
  24345367.7554    7615666.73049   5891057.34046                  24345366.4814
        40.0004         24.0004
  23625929.3414   -4021862.28949  -3132581.86647                  23625926.3134
        42.5004         29.5004
  24268214.0054   -2155845.43049  -1680410.73046                  24268213.1964
        40.2504         22.5004
 04  6 29 14 47 30.0010000  0 11G 6G10G16G17G18G21G26G29G30G22G15
  20589592.5834    2560788.12949   1983111.21248                  20589590.2554
        51.0004         41.5004
  24910545.7244    8036651.45749   6217473.89546                  24910544.2634
        40.0004         21.5004
  24158885.2634   -1128424.19549   -881577.72446                  24158881.2984
        41.5004         22.2504
  24341321.7314    5559817.09449   4298537.92246                  24341321.6104
        40.0004         21.2504
  21361342.7314   -2098580.99249  -1628992.21148                  21361339.1064
        50.7504         39.5004
  21337602.2554    -388277.36749   -306842.56047                  21337597.9784
        50.7504         39.0004
  21894641.1534     -73580.14849    -59430.50247                  21894638.9274
        48.5004         35.2504
  22721084.8104    1968817.85949   1521185.02247                  22721083.1104
        46.5004         31.7504
  24353208.0754    7656866.60549   5923161.14246                  24353206.7744
        41.7504         22.5004
  23621764.4744   -4043749.81649  -3149637.09447                  23621760.5174
        43.0004         28.0004
  24265191.7084   -2171727.92249  -1692786.69346                  24265190.7594
        39.5004         22.0004
 04  6 29 14 47 40.0010000  0 11G 6G10G16G17G18G21G26G29G30G22G15
  20593001.8414    2578702.60949   1997070.52348                  20592999.1424
        50.2504         41.7504
  24918843.3724    8080255.89849   6251451.35646                  24918841.8924
        41.7504         21.7504
  24158356.2944   -1131202.15649   -883742.38646                  24158353.0444
        42.0004         22.5004
  24347057.5214    5589957.54749   4322024.01646                  24347057.5284
        40.5004         21.5004
  21359636.2944   -2107548.13349  -1635979.58148                  21359632.7044
        51.0004         40.0004
  21337208.1614    -390348.83649   -308456.69047                  21337204.0244
        50.0004         38.5004
  21895496.0994     -69086.37149    -55928.85547                  21895494.1574
        48.0004         35.2504
  22723971.3104    1983985.96149   1533004.32247                  22723969.3494
        45.2504         32.5004
  24361045.5914    7698054.90249   5955255.90346                  24361045.2044
        41.2504         25.0004
  23617602.7634   -4065615.74649  -3166675.48747                  23617599.0404
        41.2504         28.0004
  24262168.9274   -2187613.09049  -1705164.75446                  24262167.9234
        40.5004         22.5004
 04  6 29 14 47 50.0010000  0 11G 6G10G16G17G18G21G26G29G30G22G15
  20596420.2084    2596666.19149   2011068.10348                  20596417.6964
        50.5004         42.0004
  24927139.7314    8123853.33649   6285423.34546                  24927138.0564
        41.7504         22.2504
  24157837.5364   -1133929.54349   -885867.62646                  24157833.7554
        43.0004         22.5004
  24352793.9664    5620099.18849   4345510.91546                  24352793.5214
        41.5004         22.5004
  21357937.4114   -2116475.40249  -1642935.89848                  21357934.0214
        50.7504         39.7504
  21336815.7944    -392410.31249   -310063.03147                  21336811.4854
        49.7504         38.7504
  21896363.8254     -64526.32449    -52375.57247                  21896361.7204
        48.0004         35.5004
  22726868.5364    1999209.65649   1544866.92447                  22726866.0994
        46.0004         32.0004
  24368881.9424    7739231.42649   5987341.47346                  24368880.4584
        42.0004         23.5004
  23613446.7004   -4087460.05949  -3183697.03047                  23613443.0174
        41.2504         28.7504
  24259145.7394   -2203501.10549  -1717544.97846                  24259144.5994
        39.5004         22.7504
 04  6 29 14 48  0.0010000  0 11G 6G10G16G17G18G21G26G29G30G22G15
  20599848.3964    2614680.03149   2025104.85248                  20599845.3134
        50.7504         42.0004
  24935435.2084    8167444.95349   6319390.83146                  24935433.3964
        41.5004         22.0004
  24157328.1534   -1136605.04749   -887952.43646                  24157324.6574
        43.0004         23.5004
  24358529.8884    5650243.29749   4368999.82346                  24358528.8564
        42.5004         22.2504
  21356246.3494   -2125361.50449  -1649860.12748                  21356243.0014
        50.5004         39.7504
  21336425.4354    -394460.52349   -311660.59947                  21336421.6384
        50.7504         38.7504
  21897244.2474     -59898.66449    -48769.59647                  21897242.9784
        48.2504         35.2504
  22729776.2244    2014490.34049   1556773.96747                  22729773.7634
        46.0004         32.5004
  24376715.2314    7780397.24249   6019418.70346                  24376713.9274
        41.2504         23.0004
  23609294.2244   -4109281.36749  -3200700.62047                  23609291.0674
        41.0004         29.2504
  24256121.6924   -2219390.67649  -1729926.48346                  24256121.0834
        40.5004         22.5004
 04  6 29 14 48 10.0010000  0 11G 6G10G16G17G18G21G26G29G30G22G15
  20603285.0834    2632741.82049   2039178.98348                  20603282.3024
        50.0004         41.7504
  24943729.0674    8211028.27349   6353351.76746                  24943727.1064
        42.5004         22.5004
  24156828.5914   -1139231.06649   -889998.64646                  24156824.8374
        43.5004         22.2504
  24364265.9894    5680387.56349   4392488.89846                  24364264.9934
        40.7504         21.7504
  21354562.8414   -2134208.88349  -1656754.18248                  21354558.9664
        50.7504         39.7504
  21336037.4744    -396501.85249   -313251.24547                  21336033.0994
        49.7504         38.2504
  21898137.7084     -55205.78949    -45112.80847                  21898135.7004
        48.5004         36.0004
  22732694.3804    2029825.36349   1568723.30647                  22732692.3534
        46.0004         32.2504
  24384546.2394    7821549.89149   6051485.69646                  24384545.1654
        43.0004         24.0004
  23605145.7944   -4131082.14849  -3217688.17847                  23605142.5444
        42.0004         29.5004
  24253097.5524   -2235284.28149  -1742311.04946                  24253095.9354
        40.2504         24.0004
 04  6 29 14 48 20.0010000  0 11G 6G10G16G17G18G21G26G29G30G22G15
  20606731.5674    2650852.09049   2053290.89648                  20606728.7714
        49.5004         41.7504
  24952021.0054    8254603.78949   6387306.70746                  24952018.9424
        43.0004         22.5004
  24156338.3724   -1141807.03549   -892005.87746                  24156334.7944
        41.5004         24.0004
  24370001.7784    5710532.48849   4415978.39046                  24370001.3844
        40.0004         21.0004
  21352886.5914   -2143016.93049  -1663617.59648                  21352883.1224
        50.0004         39.7504
  21335650.7084    -398533.83649   -314834.61147                  21335646.3764
        49.7504         38.7504
  21899043.0444     -50447.13749    -41404.77347                  21899041.3644
        49.0004         36.0004
  22735622.7314    2045215.39549   1580715.55847                  22735620.4814
        45.7504         31.7504
  24392375.3884    7862689.76649   6083542.72746                  24392373.6184
        41.2504         24.5004
  23601001.5444   -4152861.75849  -3234659.31247                  23600995.9704
        42.5004         29.5004
  24250072.6304   -2251181.33649  -1754698.34446                  24250071.1654
        40.5004         22.5004
 04  6 29 14 48 30.0010000  0 10G 6G16G17G18G21G26G29G30G22G15
  20610187.1534    2669012.37149   2067441.76748                  20610184.3454
        49.5004         41.7504
  24155858.1854   -1144331.37549   -893972.91446                  24155854.8964
        42.0004         24.2504
  24375739.1144    5740679.64549   4439469.68646                  24375738.1344
        40.5004         22.5004
  21351218.4664   -2151784.12549  -1670449.17748                  21351215.0094
        50.0004         39.5004
  21335266.1534    -400555.08649   -316409.60947                  21335261.7944
        49.5004         38.5004
  21899961.4664     -45621.09849    -37644.21047                  21899959.5134
        47.0004         35.5004
  22738562.4194    2060661.98049   1592751.86547                  22738559.7714
        44.2504         32.5004
  24400201.8724    7903818.44549   6115591.00846                  24400200.4424
        38.5004         24.7504
  23596861.2554   -4174618.61749  -3251612.74847                  23596855.5404
        41.5004         30.0004
  24247046.5994   -2267080.30149  -1767087.16346                  24247045.2554
        40.7504         22.0004
 04  6 29 14 48 40.0010000  0 10G 6G16G17G18G21G26G29G30G22G15
  20613652.2314    2687221.69549   2081630.85548                  20613649.7674
        50.0004         42.0004
  24155387.2394   -1146805.02349   -895900.44546                  24155384.5564
        41.5004         25.0004
  24381476.7314    5770828.08649   4462961.94546                  24381476.4854
        40.7504         23.0004
  21349557.6694   -2160511.23449  -1677249.51748                  21349553.9354
        50.2504         39.5004
  21334883.4584    -402566.13749   -317976.67147                  21334879.2244
        49.5004         38.0004
  21900892.5674     -40728.39849    -33831.73147                  21900890.2204
        47.7504         35.0004
  22741512.6064    2076164.14849   1604831.46647                  22741510.0244
        45.5004         31.5004
  24408025.9584    7944934.86349   6147629.80146                  24408024.6814
        41.7504         23.5004
  23592724.7004   -4196353.54349  -3268549.02647                  23592721.3884
        40.7504         29.0004
  24244020.6384   -2282982.09449  -1779478.08646                  24244019.1184
        40.7504         22.0004
 04  6 29 14 48 50.0010000  0 10G 6G16G17G18G21G26G29G30G22G15
  20617126.7784    2705479.63749   2095857.82148                  20617124.0174
        50.0004         41.5004
  24154926.5214   -1149228.32449   -897788.71846                  24154923.7984
        42.7504         23.2504
  24387213.5444    5800977.46149   4486454.96246                  24387214.4664
        39.7504         22.7504
  21347904.3494   -2169198.82049  -1684019.06248                  21347900.8024
        51.5004         40.0004
  21334502.7864    -404567.40249   -319536.09047                  21334498.1734
        48.7504         38.5004
  21901836.0994     -35769.66449    -29967.77847                  21901833.7164
        47.2504         34.7504
  22744472.4584    2091721.54749   1616954.10647                  22744470.4854
        45.2504         31.2504
  24415847.4504    7986038.43849   6179658.49946                  24415846.3604
        41.0004         22.7504
  23588593.0524   -4218066.91849  -3285468.49347                  23588590.3334
        41.7504         31.0004
  24240993.6224   -2298887.12549  -1791871.63146                  24240992.2634
        41.0004         21.2504
 04  6 29 14 49  0.0010000  0 10G 6G16G17G18G21G26G29G30G22G15
  20620610.5214    2723786.15649   2110122.63348                  20620607.6424
        49.7504         41.5004
  24154474.9584   -1151601.37949   -899637.86746                  24154471.5754
        42.0004         25.0004
  24392950.6774    5831127.76649   4509948.62446                  24392951.5714
        40.0004         21.5004
  21346258.6304   -2177846.85949  -1690757.79648                  21346255.1304
        50.0004         39.5004
  21334123.5674    -406559.01649   -321088.00547                  21334119.2284
        48.5004         38.7504
  21902792.2864     -30744.79349    -26052.28547                  21902790.0214
        48.0004         35.0004
  22747443.8104    2107333.94949   1629119.61247                  22747441.1734
        45.7504         31.5004
  24423667.0524    8027129.07449   6211677.21946                  24423665.0054
        38.5004         22.0004
  23584465.2244   -4239758.73049  -3302371.18547                  23584460.5284
        42.0004         29.7504
  24237966.3174   -2314795.44549  -1804267.68346                  24237964.9784
        40.5004         21.5004
 04  6 29 14 49 10.0010000  0 10G 6G16G17G18G21G26G29G30G22G15
  20624103.0834    2742141.96149   2124425.86248                  20624100.5674
        48.7504         41.5004
  24154032.7864   -1153923.39149   -901447.21346                  24154030.0564
        41.5004         24.2504
  24398689.2164    5861279.48449   4533443.43546                  24398688.1774
        41.5004         22.5004
  21344620.8334   -2186454.69549  -1697465.19848                  21344617.2944
        51.0004         39.7504
  21333746.5284    -408540.33649   -322631.88947                  21333742.2244
        48.2504         39.0004
  21903761.3644     -25653.09849    -22084.73347                  21903759.2634
        47.7504         35.7504
  22750424.9424    2123002.14149   1641328.60247                  22750423.2284
        44.5004         31.2504
  24431483.8494    8068207.31649   6243686.19846                  24431482.1104
        40.0004         21.7504
  23580341.9894   -4261428.24249  -3319256.55447                  23580335.8414
        43.0004         29.2504
  24234938.5364   -2330706.42649  -1816665.81846                  24234937.1464
        40.7504         22.0004
 04  6 29 14 49 20.0010000  0 10G 6G16G17G18G21G26G29G30G22G15
  20627606.3494    2760548.16449   2138768.36148                  20627603.2474
        49.0004         42.0004
  24153601.3644   -1156193.29349   -903215.97447                  24153597.9584
        40.0004         27.0004
  24404427.2784    5891433.82049   4556940.34146                  24404426.4464
        41.2504         22.7504
  21342990.8174   -2195021.16449  -1704140.36348                  21342987.0484
        50.7504         39.5004
  21333371.6064    -410510.25449   -324166.89447                  21333367.6344
        48.2504         39.0004
  21904742.9894     -20493.39849    -18064.18747                  21904740.9384
        47.5004         35.0004
  22753417.7714    2138727.18849   1653581.86847                  22753415.3724
        44.5004         32.0004
  24439298.4584    8109274.13749   6275686.31546                  24439297.2164
        40.2504         22.5004
  23576222.4584   -4283074.41049  -3336123.67047                  23576218.4384
        41.7504         28.7504
  24231910.7634   -2346618.87949  -1829065.13146                  24231909.6574
        40.0004         22.5004
 04  6 29 14 49 30.0010000  0 10G 6G16G17G18G21G26G29G30G22G15
  20631117.3564    2779002.07449   2153148.02448                  20631114.7714
        48.5004         41.7504
  24153178.5754   -1158413.62949   -904946.10846                  24153175.4384
        38.7504         25.2504
  24410165.0134    5921588.19549   4580437.24446                  24410165.2824
        39.7504         22.0004
  21341367.8254   -2203548.88349  -1710785.32548                  21341364.5634
        50.5004         40.0004
  21332998.5914    -412471.35249   -325695.02947                  21332994.5794
        48.0004         39.2504
  21905737.3254     -15268.30949    -13992.68147                  21905735.0634
        47.2504         35.2504
  22756420.0444    2154506.44949   1665877.40347                  22756418.2434
        45.0004         31.5004
  24447110.6064    8150326.84049   6307675.40846                  24447109.4114
        40.2504         21.5004
  23572107.3964   -4304699.72749  -3352974.53547                  23572104.3294
        42.2504         30.5004
  24228882.0364   -2362535.52749  -1841467.71846                  24228880.7354
        40.7504         22.7504
 04  6 29 14 49 40.0010000  0 10G 6G16G17G18G21G26G29G30G22G15
  20634638.4814    2797504.78549   2167565.72148                  20634635.7904
        49.7504         41.5004
  24152765.2944   -1160583.51249   -906636.89946                  24152762.5444
        37.2504         24.7504
  24415902.9194    5951743.68049   4603934.95246                  24415903.5444
        39.5004         22.7504
  21339752.4664   -2212036.90649  -1717399.38048                  21339749.0604
        51.2504         39.5004
  21332627.4194    -414422.71949   -327215.55447                  21332623.2944
        48.7504         39.2504
  21906744.1064      -9976.83249     -9869.44947                  21906742.2714
        47.5004         35.0004
  22759433.5914    2170340.80149   1678215.85847                  22759430.7904
        45.0004         32.2504
  24454920.3804    8191366.39549   6339654.28046                  24454918.2124
        39.0004         21.7504
  23567996.3564   -4326303.22749  -3369808.43747                  23567992.7984
        41.0004         29.5004
  24225852.3254   -2378455.32849  -1853872.70446                  24225851.4354
        42.0004         22.7504
 04  6 29 14 49 50.0010000  0 10G 6G16G17G18G21G26G29G30G22G15
  20638168.8644    2816055.42249   2182020.74848                  20638165.4034
        49.7504         42.0004
  24152361.6854   -1162703.66049   -908288.96146                  24152358.4814
        37.5004         24.5004
  24421642.1304    5981899.33249   4627432.86246                  24421641.9974
        40.0004         22.5004
  21338144.6614   -2220485.92249  -1723983.01948                  21338141.1924
        51.0004         40.0004
  21332257.6384    -416365.03549   -328729.05648                  21332253.7634
        48.0004         39.7504
  21907763.2634      -4619.65649     -5695.02247                  21907761.3924
        47.7504         35.2504
  22762456.7314    2186229.52349   1690596.68647                  22762454.5284
        45.5004         32.0004
  24462727.9354    8232391.83249   6371622.09746                  24462725.2244
        40.2504         22.2504
  23563889.1534   -4347885.53149  -3386625.77747                  23563885.4664
        40.7504         28.7504
  24222822.1304   -2394379.06249  -1866280.80046                  24222821.1964
        41.7504         23.2504
 04  6 29 14 50  0.0010000  0 10G 6G16G17G18G21G26G29G30G22G15
  20641708.0754    2834656.50849   2196515.10948                  20641705.1574
        50.0004         41.7504
  24151968.5674   -1164771.57849   -909900.33347                  24151965.3454
        37.5004         26.5004
  24427380.9354    6012057.76649   4650932.96646                  24427381.0524
        40.0004         22.5004
  21336544.8104   -2228893.52349  -1730534.38748                  21336541.7044
        51.0004         40.0004
  21331889.8024    -418295.98449   -330233.68647                  21331885.9384
        47.7504         39.2504
  21908795.8104        805.72749     -1467.45147                  21908793.8724
        47.0004         35.2504
  22765491.2554    2202175.14549   1703021.85047                  22765488.7084
        44.5004         32.0004
  24470531.6924    8273405.53949   6403580.85046                  24470530.1734
        40.5004         21.5004
  23559787.2314   -4369444.16049  -3403424.68347                  23559783.2124
        42.5004         30.5004
  24219792.1304   -2410304.29749  -1878690.05846                  24219790.7124
        42.5004         25.0004
 04  6 29 14 50 10.0010000  0 10G 6G16G17G18G21G26G29G30G22G15
  20645257.5834    2853308.39149   2211049.04248                  20645254.2284
        48.0004         41.2504
  24151585.1144   -1166786.84849   -911470.68447                  24151581.6924
        37.0004         26.7504
  24433120.2554    6042219.22349   4674435.33746                  24433120.5794
        39.2504         21.5004
  21334952.9194   -2237259.26649  -1737053.15248                  21334949.7124
        51.2504         40.5004
  21331524.6064    -420214.93049   -331728.97948                  21331521.2084
        46.5004         39.7504
  21909841.3254       6299.61749      2813.50847                  21909839.4784
        48.0004         35.2504
  22768536.3724    2218177.80149   1715491.44247                  22768534.3844
        44.2504         32.2504
  24478334.7944    8314407.76649   6435530.65646                  24478332.6964
        40.0004         22.5004
  23555689.5674   -4390978.64549  -3420204.83147                  23555685.4544
        42.0004         30.0004
  24216761.9034   -2426230.65249  -1891100.20746                  24216760.1694
        43.0004         25.2504
 04  6 29 14 50 20.0010000  0 10G 6G16G17G18G21G26G29G30G22G15
  20648817.0444    2872013.00849   2225624.07848                  20648814.1534
        50.0004         41.7504
  24151211.8174   -1168747.36749   -912998.34046                  24151209.3254
        36.5004         24.5004
  24438860.9194    6072385.84049   4697941.74846                  24438861.1144
        40.0004         21.5004
  21333369.4584   -2245581.15649  -1743537.72948                  21333366.0914
        50.7504         40.0004
  21331162.7634    -422119.94549   -333213.40348                  21331158.6464
        48.5004         39.5004
  21910900.4354      11864.09849      7149.46747                  21910898.0674
        48.0004         34.7504
  22771593.3104    2234239.64149   1728007.15847                  22771591.0054
        45.2504         31.7504
  24486134.9814    8355400.47749   6467472.98946                  24486133.2434
        40.5004         22.2504
  23551596.1694   -4412487.04349  -3436964.60047                  23551592.3254
        42.2504         29.5004
  24213731.1144   -2442156.09449  -1903509.58446                  24213729.5674
        43.0004         25.0004
 04  6 29 14 50 30.0010000  0 10G 6G16G17G18G21G26G29G30G22G15
  20652386.0444    2890769.31349   2240239.36648                  20652383.5284
        49.7504         41.7504
  24150848.7164   -1170654.25849   -914484.22747                  24150845.9744
        36.5004         27.0004
  24444601.8964    6102556.55949   4721451.36646                  24444602.4314
        39.5004         21.5004
  21331794.1224   -2253860.23449  -1749988.96048                  21331790.5404
        51.7504         39.7504
  21330802.3494    -424012.03949   -334687.76048                  21330798.4464
        47.7504         39.7504
  21911972.0604      17498.22749     11539.70747                  21911969.9384
        45.5004         35.0004
  22774660.6774    2250359.64549   1740568.20447                  22774658.8604
        44.2504         32.0004
  24493933.3804    8396382.47349   6499406.98646                  24493932.3454
        40.0004         21.5004
  23547508.4194   -4433970.24649  -3453704.76447                  23547504.0714
        43.2504         30.5004
  24210700.0364   -2458081.71549  -1915919.17646                  24210699.1184
        42.7504         23.7504
 04  6 29 14 50 40.0010000  0 10G 6G16G17G18G21G26G29G30G22G15
  20655965.0444    2909575.71949   2254893.71248                  20655962.2164
        49.5004         42.0004
  24150495.6064   -1172509.14849   -915929.65247                  24150493.4384
        37.0004         26.5004
  24450344.7714    6132729.57849   4744962.83446                  24450344.2634
        37.2504         21.2504
  21330226.2944   -2262098.30549  -1756408.23648                  21330222.9424
        51.0004         40.0004
  21330444.5284    -425893.00049   -336153.45547                  21330440.7474
        48.0004         39.0004
  21913057.5134      23200.20349     15982.81547                  21913055.5364
        46.5004         35.0004
  22777739.2314    2266535.98849   1753173.12447                  22777737.2084
        44.2504         31.7504
  24501729.8024    8437352.00449   6531331.33046                  24501728.0914
        40.7504         22.5004
  23543424.1614   -4455430.01249  -3470426.66147                  23543420.5564
        41.5004         30.0004
  24207669.3804   -2474009.25049  -1928330.17446                  24207668.1264
        43.0004         23.0004
 04  6 29 14 50 50.0010000  0 10G 6G16G17G18G21G26G29G30G22G15
  20659552.9974    2928431.65649   2269586.64348                  20659550.3724
        51.0004         42.0004
  24150152.4974   -1174312.45749   -917334.78747                  24150150.0404
        36.5004         25.7504
  24456086.2474    6162904.62149   4768475.77246                  24456086.5444
        36.0004         20.2504
  21328666.2634   -2270295.55949  -1762795.69648                  21328663.1184
        50.7504         40.0004
  21330088.6924    -427763.16049   -337610.72548                  21330085.0244
        48.7504         39.5004
  21914155.8964      28969.74649     20478.55847                  21914152.9504
        49.0004         35.5004
  22780827.5364    2282768.28149   1765821.68447                  22780825.5244
        45.7504         31.0004
  24509523.3104    8478308.53549   6563245.49546                  24509521.5094
        41.0004         21.7504
  23539345.0214   -4476866.60949  -3487130.43447                  23539341.5604
        41.7504         29.0004
  24204638.0444   -2489939.02049  -1940742.98146                  24204636.7164
        42.5004         24.0004
 04  6 29 14 51  0.0010000  0 10G 6G16G17G18G21G26G29G30G22G15
  20663150.5914    2947337.07049   2284318.13148                  20663148.2864
        51.0004         41.5004
  24149819.2944   -1176064.43449   -918699.95746                  24149816.4664
        37.0004         25.0004
  24461828.1144    6193081.47349   4791990.20946                  24461829.1924
        37.0004         19.5004
  21327114.2004   -2278452.27749  -1769151.58448                  21327110.7434
        51.7504         40.5004
  21329734.6224    -429622.77749   -339059.77348                  21329731.0714
        48.5004         39.5004
  21915266.0364      34806.67249     25026.82847                  21915264.1694
        48.2504         35.7504
  22783927.3964    2299056.31349   1778513.65847                  22783925.0094
        45.2504         31.2504
  24517314.0364    8519251.75049   6595149.25746                  24517312.5674
        41.2504         22.0004
  23535270.2474   -4498280.26649  -3503816.41647                  23535265.6384
        43.2504         28.2504
  24201606.3174   -2505871.39149  -1953157.78546                  24201604.3764
        43.2504         25.2504
 04  6 29 14 51 10.0010000  0 10G 6G16G17G18G21G26G29G30G22G15
  20666757.5914    2966291.33249   2299087.68748                  20666755.0754
        51.0004         41.7504
  24149495.6534   -1177765.43449   -920025.40146                  24149493.0134
        36.2504         25.2504
  24467572.2164    6223259.79749   4815505.75246                  24467571.7164
        39.7504         21.7504
  21325569.6464   -2286568.87949  -1775476.20248                  21325566.2354
        51.5004         40.5004
  21329382.4814    -431472.47349   -340501.08448                  21329378.8724
        49.2504         39.5004
  21916389.4584      40710.63349     29627.32147                  21916387.2944
        48.0004         36.0004
  22787037.3724    2315399.53149   1791248.62847                  22787034.6814
        46.2504         31.5004
  24525103.0994    8560181.14849   6627042.30246                  24525100.9234
        42.5004         21.2504
  23531199.4584   -4519671.27049  -3520484.75247                  23531194.6064
        43.0004         29.0004
  24198573.6224   -2521806.63349  -1965574.85446                  24198572.0994
        43.2504         24.0004
 04  6 29 14 51 20.0010000  0 10G 6G16G17G18G21G26G29G30G22G15
  20670374.1144    2985296.42649   2313896.85348                  20670371.2634
        51.2504         42.0004
  24149181.4974   -1179413.57849   -921309.65246                  24149178.9194
        36.7504         25.0004
  24473315.4424    6253441.23849   4839023.74146                  24473314.5954
        40.0004         21.0004
  21324033.1534   -2294643.58249  -1781768.18248                  21324029.5914
        51.7504         40.0004
  21329032.7554    -433310.07849   -341932.99247                  21329029.2434
        49.7504         39.0004
  21917526.1694      46683.43049     34281.43547                  21917523.9584
        48.0004         36.0004
  22790157.9034    2331799.91049   1804028.14347                  22790155.3564
        46.5004         31.5004
  24532889.6774    8601098.39549   6658925.88946                  24532887.0674
        42.7504         22.2504
  23527133.9194   -4541037.82049  -3537133.99847                  23527130.2864
        42.5004         30.0004
  24195540.9354   -2537742.99249  -1977992.78346                  24195539.2204
        42.5004         23.2504
 04  6 29 14 51 30.0010000  0 10G 6G16G17G18G21G26G29G30G22G15
  20674000.3494    3004353.63749   2328746.62448                  20673997.7284
        51.0004         41.7504
  24148878.4504   -1181007.57449   -922551.74247                  24148875.5364
        37.2504         25.7504
  24479058.2864    6283627.18849   4862545.26846                  24479058.1884
        39.0004         20.5004
  21322504.8724   -2302675.00049  -1788026.42748                  21322501.3064
        51.0004         40.2504
  21328685.8414    -435134.28149   -343354.45047                  21328681.9384
        50.0004         39.0004
  21918676.1224      52726.35549     38990.21547                  21918674.0834
        48.2504         36.0004
  22793290.1224    2348258.66449   1816853.13547                  22793287.8174
        46.0004         32.0004
  24540674.3334    8642004.76649   6690800.98046                  24540671.6964
        42.7504         21.2504
  23523072.3564   -4562378.56249  -3553763.12847                  23523069.9974
        43.0004         30.0004
  24192508.0524   -2553679.18449  -1990410.54646                  24192506.3994
        42.5004         24.0004
 04  6 29 14 51 40.0010000  0 10G 6G16G17G18G21G26G29G30G22G15
  20677635.8104    3023458.49649   2343633.53048                  20677633.4584
        50.5004         41.5004
  24148584.1694   -1182551.71149   -923754.95146                  24148581.8064
        39.0004         24.2504
  24484802.9584    6313813.35549   4886066.90346                  24484802.2784
        38.2504         20.2504
  21320983.7784   -2310667.44149  -1794254.29348                  21320980.6494
        51.0004         40.2504
  21328340.5444    -436949.45749   -344768.87347                  21328336.6034
        50.5004         39.2504
  21919838.6614      58835.12949     43750.30447                  21919836.5604
        47.2504         35.5004
  22796432.5444    2364771.40249   1829720.21247                  22796430.3644
        44.7504         31.7504
  24548454.9894    8682895.80949   6722664.09346                  24548452.4424
        43.5004         22.0004
  23519015.6464   -4583697.80549  -3570375.49447                  23519011.5364
        43.0004         29.2504
  24189475.1774   -2569619.40249  -2002831.49246                  24189472.8844
        42.5004         23.7504
 04  6 29 14 51 50.0010000  0 10G 6G16G17G18G21G26G29G30G22G15
  20681281.2164    3042614.64549   2358560.40448                  20681278.9114
        50.5004         41.5004
  24148300.1854   -1184042.56649   -924916.65646                  24148298.0324
        39.2504         24.5004
  24490548.1464    6344003.18049   4909591.41746                  24490547.7714
        39.2504         19.0004
  21319470.7864   -2318617.48049  -1800449.13048                  21319467.1694
        51.0004         40.0004
  21327997.2394    -438752.15249   -346173.56547                  21327993.0244
        50.0004         39.0004
  21921014.2634      65013.30549     48564.47747                  21921011.9424
        46.7504         35.2504
  22799585.6464    2381341.54349   1842632.01847                  22799583.5634
        45.0004         31.5004
  24556233.6774    8723774.94549   6754517.94046                  24556231.9664
        43.0004         22.5004
  23514963.7944   -4604992.01649  -3586968.38847                  23514958.8174
        43.7504         27.7504
  24186442.0134   -2585560.33249  -2015252.97046                  24186439.1464
        42.5004         21.7504
 04  6 29 14 52  0.0010000  0 10G 6G16G17G18G21G26G29G30G22G15
  20684936.4664    3061823.63749   2373528.43948                  20684933.9114
        50.5004         41.5004
  24148028.1064   -1185478.31249   -926035.43046                  24148024.9154
        41.0004         25.5004
  24496295.0524    6374198.37149   4933120.09446                  24496294.0874
        40.5004         19.5004
  21317966.7714   -2326523.33649  -1806609.53448                  21317963.0634
        50.5004         40.7504
  21327656.9584    -440540.65249   -347567.20947                  21327652.6494
        50.5004         39.0004
  21922203.3804      71262.60549     53434.05547                  21922201.1814
        47.2504         35.0004
  22802750.4034    2397970.88749   1855589.93947                  22802748.1654
        44.5004         31.5004
  24564011.1924    8764643.68449   6786363.72346                  24564009.1144
        43.0004         22.0004
  23510916.7864   -4626259.38749  -3603540.39047                  23510911.9194
        44.0004         28.2504
  24183408.6384   -2601500.19149  -2027673.65946                  24183406.3024
        43.5004         24.0004
 04  6 29 14 52 10.0010000  0 10G 6G16G17G18G21G26G29G30G22G15
  20688601.5914    3081082.15249   2388535.05648                  20688598.7244
        50.7504         41.7504
  24147764.8414   -1186862.38349   -927113.87746                  24147761.3924
        40.7504         25.2504
  24502040.4664    6404395.52349   4956650.39346                  24502040.4974
        39.0004         21.5004
  21316470.1774   -2334388.37549  -1812738.14248                  21316466.4974
        51.0004         40.0004
  21327318.7784    -442318.37549   -348952.44147                  21327314.6424
        51.0004         38.7504
  21923405.5914      77579.66449     58356.44147                  21923403.5794
        48.0004         35.0004
  22805925.2634    2414655.93849   1868591.29047                  22805923.3214
        45.7504         31.5004
  24571785.5604    8805498.55549   6818198.61546                  24571783.8454
        43.0004         22.7504
  23506874.2084   -4647503.29349  -3620094.06047                  23506870.2594
        44.7504         29.5004
  24180374.9424   -2617442.39149  -2040096.12846                  24180372.1034
        43.7504         24.2504
 04  6 29 14 52 20.0010000  0 10G 6G16G17G18G21G26G29G30G22G15
  20692275.5994    3100389.46949   2403579.70948                  20692272.7984
        50.7504         41.0004
  24147510.5524   -1188195.41049   -928152.63346                  24147508.2044
        40.2504         24.5004
  24507786.8564    6434594.06649   4980181.67146                  24507787.1304
        36.0004         20.7504
  21314980.6384   -2342213.32049  -1818835.48848                  21314977.4274
        50.7504         40.0004
  21326982.3964    -444085.96949   -350329.79247                  21326978.0524
        50.5004         38.5004
  21924620.3024      83963.78549     63331.08747                  21924618.7244
        47.5004         35.2504
  22809110.8254    2431395.98049   1881635.47947                  22809108.5364
        45.0004         31.2504
  24579557.4034    8846338.81649   6850022.24146                  24579555.5284
        43.0004         22.2504
  23502835.7084   -4668724.40249  -3636629.96447                  23502832.8724
        44.2504         29.7504
  24177340.9584   -2633387.64549  -2052520.97246                  24177338.3494
        43.2504         24.2504
 04  6 29 14 52 30.0010000  0 10G 6G16G17G18G21G26G29G30G22G15
  20695958.8104    3119747.59049   2418663.95748                  20695956.6184
        50.5004         41.5004
  24147267.2244   -1189475.48049   -929150.09946                  24147264.3564
        40.7504         24.5004
  24513534.6924    6464795.95349   5003715.55246                  24513534.0404
        36.5004         19.0004
  21313499.7084   -2349996.13749  -1824900.01548                  21313496.2674
        50.7504         40.0004
  21326648.4034    -445841.56649   -351697.79447                  21326644.3454
        50.5004         38.5004
  21925848.3104      90417.02049     68359.57647                  21925846.9504
        48.0004         35.5004
  22812306.9354    2448193.03549   1894724.08847                  22812304.8684
        46.0004         30.7504
  24587326.3024    8887166.30549   6881835.82146                  24587324.7784
        43.5004         22.0004
  23498802.0054   -4689920.68749  -3653146.53047                  23498798.4194
        43.5004         29.2504
  24174306.3024   -2649334.01649  -2064946.72946                  24174304.2354
        43.2504         24.7504
 04  6 29 14 52 40.0010000  0 10G 6G16G17G18G21G26G29G30G22G15
  20699651.8644    3139153.27749   2433785.26348                  20699649.5054
        50.7504         41.5004
  24147033.0054   -1190705.79349   -930108.79246                  24147030.5674
        40.5004         25.0004
  24519282.1304    6494997.87549   5027249.44746                  24519280.7594
        38.5004         19.5004
  21312026.1774   -2357740.01649  -1830934.21448                  21312022.6424
        51.0004         40.2504
  21326315.9504    -447588.26649   -353058.85347                  21326311.3844
        50.0004         38.7504
  21927089.0054      96936.16449     73439.45047                  21927087.2284
        47.5004         35.7504
  22815513.5524    2465043.82049   1907854.55647                  22815511.3534
        46.2504         31.2504
  24595093.1464    8927977.72749   6913636.91846                  24595090.7164
        43.7504         22.0004
  23494772.6304   -4711095.31249  -3669646.24047                  23494768.1574
        43.5004         29.2504
  24171270.3564   -2665284.68449  -2077375.76246                  24171268.5324
        43.0004         22.7504
 04  6 29 14 52 50.0010000  0 10G 6G16G17G18G21G26G29G30G22G15
  20703354.0834    3158609.30149   2448945.80948                  20703351.9664
        50.2504         41.0004
  24146808.9194   -1191883.43449   -931026.42047                  24146806.5674
        41.0004         26.0004
  24525030.5054    6525202.67249   5050785.69846                  24525028.1144
        40.2504         20.5004
  21310560.2084   -2365442.24649  -1836935.93948                  21310557.0794
        51.0004         40.2504
  21325985.9274    -449323.26249   -354410.80747                  21325981.5284
        50.2504         38.5004
  21928342.6144     103523.99649     78572.82247                  21928340.5364
        49.2504         35.5004
  22818731.2554    2481951.12149   1921029.09047                  22818728.7784
        46.5004         31.7504
  24602856.0214    8968775.87549   6945427.66946                  24602854.6494
        43.5004         22.7504
  23490748.1224   -4732245.42649  -3686126.83247                  23490743.5524
        44.0004         30.0004
  24168235.2944   -2681236.92649  -2089806.09746                  24168233.4464
        42.5004         24.7504
 04  6 29 14 53  0.0010000  0 10G 6G16G17G18G21G26G29G30G22G15
  20707065.5214    3178112.85949   2464143.39848                  20707063.5524
        50.2504         41.5004
  24146594.3494   -1193011.27749   -931905.27646                  24146592.2594
        41.5004         23.5004
  24530778.2474    6555407.52749   5074321.97346                  24530777.0524
        39.5004         19.5004
  21309102.1384   -2373105.69949  -1842907.46348                  21309098.6734
        50.7504         40.0004
  21325657.2164    -451049.41849   -355755.86847                  21325652.6694
        50.2504         38.5004
  21929608.8254     110177.67649     83757.51947                  21929606.3214
        48.0004         35.5004
  22821958.6224    2498911.90649   1934245.27847                  22821956.3534
        45.5004         31.5004
  24610616.9194    9009557.66049   6977205.65646                  24610615.2284
        43.0004         22.7504
  23486727.2944   -4753373.83649  -3702590.53247                  23486723.4814
        43.0004         30.5004
  24165199.0214   -2697193.48449  -2102239.77346                  24165196.8764
        42.5004         24.5004
 04  6 29 14 53 10.0010000  0 10G 6G16G17G18G21G26G29G30G22G15
  20710786.3104    3197665.83649   2479379.48148                  20710784.4814
        50.5004         41.5004
  24146389.7944   -1194087.34449   -932743.76146                  24146387.2984
        41.5004         25.0004
  24536526.1464    6585614.47949   5097859.78846                  24536526.4114
        40.5004         21.2504
  21307651.9894   -2380728.30549  -1848847.16448                  21307648.2784
        51.0004         39.5004
  21325331.0444    -452764.78149   -357092.51247                  21325326.5094
        50.7504         38.5004
  21930888.1614     116899.34849     88995.17047                  21930886.1814
        48.5004         35.2504
  22825196.2784    2515928.37549   1947504.85647                  22825194.2824
        46.0004         32.2504
  24618374.5214    9050325.02749   7008972.43546                  24618373.2244
        42.5004         22.5004
  23482711.5674   -4774478.43749  -3719035.66247                  23482706.5604
        43.2504         29.0004
  24162161.6694   -2713152.44949  -2114675.30646                  24162159.9784
        42.2504         23.2504
 04  6 29 14 53 20.0010000  0 10G 6G16G17G18G21G26G29G30G22G15
  20714516.7244    3217269.24649   2494654.86848                  20714515.0834
        50.5004         41.2504
  24146194.7164   -1195110.68049   -933541.15846                  24146192.2434
        41.7504         24.7504
  24542274.2394    6615824.35949   5121399.99346                  24542276.0444
        39.5004         20.0004
  21306208.8494   -2388309.02349  -1854754.19948                  21306205.7864
        50.7504         40.2504
  21325006.8494    -454468.37949   -358420.00147                  21325002.4784
        50.0004         38.5004
  21932180.0914     123689.85249     94286.46747                  21932178.1534
        48.5004         36.0004
  22828445.4894    2533001.34449   1960808.48547                  22828443.7674
        45.0004         32.2504
  24626129.2554    9091078.81349   7040728.60846                  24626128.4384
        42.5004         22.5004
  23478699.5604   -4795558.32049  -3735461.54547                  23478695.5404
        44.5004         30.0004
  24159123.8414   -2729112.85249  -2127111.93346                  24159122.3254
        41.5004         22.7504
 04  6 29 14 53 30.0010000  0 10G 6G16G17G18G21G26G29G30G22G15
  20718256.8644    3236923.83649   2509970.12748                  20718254.9194
        50.7504         41.5004
  24146010.3334   -1196080.37949   -934296.77046                  24146008.4704
        41.2504         25.5004
  24548023.8804    6646038.14149   5144943.12646                  24548025.3104
        38.0004         20.0004
  21304774.5604   -2395847.16449  -1860628.07248                  21304771.3724
        50.0004         39.5004
  21324684.7004    -456159.23849   -359737.55147                  21324680.2984
        50.0004         38.7504
  21933485.7084     130550.07049     99632.11147                  21933483.9624
        49.0004         36.2504
  22831705.2714    2550131.61749   1974156.74447                  22831703.3254
        45.2504         32.2504
  24633882.5524    9131819.76249   7072474.81346                  24633881.5244
        42.2504         22.0004
  23474693.4584   -4816612.58649  -3751867.45547                  23474689.7474
        43.2504         30.2504
  24156086.7164   -2745073.91049  -2139549.12846                  24156084.7904
        42.5004         22.7504
 04  6 29 14 53 40.0010000  0 10G 6G16G17G18G21G26G29G30G22G15
  20722006.0604    3256626.75449   2525323.03248                  20722003.9704
        50.7504         41.7504
  24145835.5754   -1196999.40649   -935012.89947                  24145833.2124
        42.0004         27.0004
  24553774.3644    6676252.89849   5168487.11246                  24553773.3604
        38.5004         18.5004
  21303347.6464   -2403345.51249  -1866470.93748                  21303344.5094
        51.0004         40.0004
  21324365.1614    -457840.23449   -361047.41147                  21324360.4974
        50.7504         39.0004
  21934803.6854     137477.30949    105029.95747                  21934802.1854
        48.0004         36.0004
  22834975.4194    2567316.43449   1987547.51247                  22834973.2634
        44.5004         32.0004
  24641631.7554    9172544.91049   7104208.64246                  24641630.9744
        41.5004         21.7504
  23470691.4744   -4837644.11749  -3768255.63647                  23470686.8174
        44.7504         30.2504
  24153049.3104   -2761038.42649  -2151988.94346                  24153047.0054
        43.0004         22.2504
 04  6 29 14 53 50.0010000  0 10G 6G16G17G18G21G26G29G30G22G15
  20725765.3644    3276381.71949   2540716.49548                  20725763.4074
        50.0004         41.7504
  24145670.6464   -1197863.94149   -935686.60446                  24145668.8374
        41.7504         25.0004
  24559525.4034    6706472.34049   5192034.74046                  24559521.9504
        41.0004         19.2504
  21301929.0444   -2410800.34049  -1872279.89648                  21301925.2984
        50.7504         40.0004
  21324047.9114    -459507.65249   -362346.70647                  21324043.3454
        50.2504         38.7504
  21936135.4664     144475.09849    110482.78747                  21936133.6654
        48.0004         36.0004
  22838256.9034    2584559.24649   2000983.45347                  22838254.5754
        45.7504         31.7504
  24649380.1144    9213257.86749   7135932.99846                  24649378.3134
        41.2504         22.5004
  23466694.4424   -4858649.08249  -3784623.16747                  23466689.4814
        44.5004         29.5004
  24150010.8804   -2777002.71149  -2164428.67046                  24150008.4424
        43.2504         23.2504
 04  6 29 14 54  0.0010000  0 10G 6G16G17G18G21G26G29G30G22G15
  20729534.3964    3296186.74249   2556148.97348                  20729532.1534
        51.0004         41.7504
  24145516.3174   -1198675.95349   -936319.31346                  24145513.3214
        42.0004         25.5004
  24565275.4274    6736694.39149   5215584.41846                  24565272.7314
        40.7504         19.0004
  21300518.1774   -2418213.71949  -1878056.54248                  21300514.9274
        50.0004         40.2504
  21323732.8174    -461163.62949   -363637.07747                  21323728.1144
        50.5004         38.5004
  21937480.0604     151541.57049    115989.12447                  21937478.2784
        48.2504         36.0004
  22841548.5914    2601858.20349   2014463.16847                  22841546.4154
        46.0004         32.0004
  24657124.1614    9253956.46549   7167646.20346                  24657123.4314
        40.2504         22.0004
  23462701.4664   -4879629.50049  -3800971.51147                  23462698.2904
        45.2504         30.7504
  24146972.7944   -2792968.72749  -2176869.70846                  24146970.4934
        42.7504         23.5004
 04  6 29 14 54 10.0010000  0 10G 6G16G17G18G21G26G29G30G22G15
  20733311.4744    3316036.26649   2571616.13548                  20733309.3884
        51.2504         41.7504
  24145371.0914   -1199441.08249   -936915.52746                  24145368.2394
        42.0004         24.2504
  24571025.8024    6766913.67649   5239131.87246                  24571024.1144
        38.5004         20.5004
  21299114.3104   -2425591.09049  -1883805.13848                  21299110.9784
        50.7504         40.0004
  21323418.4744    -462813.62149   -364922.79247                  21323414.5714
        50.5004         39.0004
  21938836.4814     158671.09849    121544.59447                  21938834.8644
        48.7504         35.5004
  22844850.3494    2619207.62549   2027982.19847                  22844847.1854
        46.0004         31.2504
  24664865.3104    9294635.16049   7199343.93246                  24664864.1884
        41.7504         22.7504
  23458713.6464   -4900590.88749  -3817305.05047                  23458709.9664
        45.7504         31.7504
  24143933.1464   -2808942.07449  -2189316.44747                  24143930.9784
        43.0004         26.0004
 04  6 29 14 54 20.0010000  0 10G 6G16G17G18G21G26G29G30G22G15
  20737098.0994    3335934.66849   2587121.39248                  20737095.8644
        50.5004         41.5004
  24145235.4194   -1200154.82449   -937471.68246                  24145232.3374
        41.0004         24.5004
  24576775.5914    6797134.53549   5262680.53546                  24576775.6384
        36.2504         20.7504
  21297718.3494   -2432928.10249  -1889522.29648                  21297714.8104
        50.2504         40.2504
  21323106.6224    -464453.18049   -366200.36047                  21323102.7084
        50.2504         38.2504
  21940206.2714     165868.21549    127152.74547                  21940203.8214
        48.2504         35.7504
  22848161.9034    2636611.94149   2041544.01247                  22848159.5914
        46.2504         31.7504
  24672603.1224    9335298.13749   7231029.28046                  24672602.2474
        40.7504         22.5004
  23454728.6924   -4921528.69549  -3833620.22347                  23454724.8414
        45.0004         31.2504
  24140893.4974   -2824918.32449  -2201765.48947                  24140891.8174
        43.5004         25.7504
 04  6 29 14 54 30.0010000  0 10G 6G16G17G18G21G26G29G30G22G15
  20740894.2554    3355882.39149   2602665.06148                  20740892.0674
        50.7504         41.5004
  24145109.5524   -1200816.63349   -937987.39247                  24145106.6694
        40.7504         25.7504
  24582527.9974    6827357.60949   5286230.95846                  24582526.7634
        37.5004         19.2504
  21296329.6534   -2440224.29749  -1895207.64048                  21296326.3494
        50.5004         40.0004
  21322796.5914    -466081.82849   -367469.44647                  21322792.3924
        50.5004         38.5004
  21941589.2164     173133.46549    132813.98347                  21941586.4274
        48.5004         36.2504
  22851484.9424    2654071.68049   2055149.01847                  22851482.5174
        46.2504         31.5004
  24680338.0444    9375945.99649   7262702.93846                  24680337.3604
        41.2504         22.5004
  23450748.9354   -4942442.38749  -3849916.58247                  23450744.7204
        45.5004         30.7504
  24137852.3494   -2840896.94149  -2214216.34346                  24137850.7284
        42.5004         25.0004
 04  6 29 14 54 40.0010000  0 10G 6G16G17G18G21G26G29G30G22G15
  20744699.3494    3375877.60549   2618245.72848                  20744696.9314
        50.5004         42.0004
  24144992.9274   -1201428.41049   -938464.10346                  24144990.0754
        41.2504         24.0004
  24588279.6924    6857580.78949   5309781.47546                  24588277.8724
        40.5004         19.7504
  21294948.9664   -2447481.40649  -1900862.53148                  21294945.7394
        50.2504         40.0004
  21322488.4354    -467701.43449   -368731.48747                  21322484.1964
        50.0004         39.0004
  21942984.2244     180464.92649    138526.80747                  21942981.8254
        48.7504         36.5004
  22854817.2084    2671584.79349   2068795.58647                  22854814.8454
        46.5004         32.5004
  24688069.9194    9416576.60549   7294363.16746                  24688069.0714
        40.0004         22.5004
  23446773.5214   -4963333.83649  -3866195.64847                  23446769.6034
        45.0004         30.5004
  24134811.0754   -2856879.84849  -2226670.53846                  24134809.6144
        42.5004         22.7504
 04  6 29 14 54 50.0010000  0 10G 6G16G17G18G21G26G29G30G22G15
  20748512.8804    3395919.94149   2633863.11448                  20748510.7824
        50.5004         41.5004
  24144886.2634   -1201990.57049   -938902.16346                  24144882.8414
        40.5004         24.5004
  24594031.3564    6887803.84849   5333331.96246                  24594027.9384
        41.2504         19.2504
  21293575.5214   -2454699.77749  -1906487.23048                  21293571.9814
        50.5004         40.0004
  21322181.6774    -469312.30549   -369986.70147                  21322177.4464
        50.2504         38.7504
  21944392.0834     187862.26649    144290.97547                  21944389.8964
        49.0004         36.0004
  22858159.8334    2689151.03149   2082483.56447                  22858158.1064
        46.0004         32.5004
  24695798.5364    9457189.57449   7326009.63346                  24695797.4074
        40.5004         23.0004
  23442801.4274   -4984203.44149  -3882457.66147                  23442798.5914
        45.2504         31.0004
  24131769.0524   -2872867.44549  -2239128.39246                  24131767.1774
        42.2504         24.5004
 04  6 29 14 55  0.0010000  0 10G 6G16G17G18G21G26G29G30G22G15
  20752335.5214    3416009.31649   2649517.15748                  20752333.4274
        50.2504         41.5004
  24144788.1304   -1202503.15249   -939301.57146                  24144785.3604
        41.2504         24.0004
  24599782.0444    6918026.75449   5356882.26146                  24599779.4154
        40.0004         19.2504
  21292209.0214   -2461879.46149  -1912081.77948                  21292205.7204
        51.5004         40.0004
  21321876.9194    -470914.50449   -371235.16347                  21321872.8804
        50.2504         38.7504
  21945812.1064     195325.56649    150106.54747                  21945809.9544
        48.5004         35.7504
  22861512.3804    2706770.21549   2096212.78847                  22861510.5834
        45.5004         32.5004
  24703523.0914    9497784.75449   7357642.20446                  24703522.6734
        39.0004         22.5004
  23438835.0914   -5005051.02749  -3898702.52447                  23438831.8454
        45.7504         31.5004
  24128725.7164   -2888859.72349  -2251589.88046                  24128724.2674
        43.0004         25.0004
 04  6 29 14 55 10.0010000  0 10G 6G16G17G18G21G26G29G30G22G15
  20756168.0604    3436147.94549   2665209.57648                  20756165.4814
        50.0004         41.5004
  24144700.3414   -1202963.77049   -939660.50346                  24144697.2984
        41.2504         24.0004
  24605532.8414    6948251.75049   5380434.14646                  24605531.7244
        37.7504         20.0004
  21290850.5674   -2469018.22749  -1917644.45548                  21290847.2904
        50.7504         40.5004
  21321574.3104    -472505.67649   -372475.03947                  21321570.0094
        50.5004         38.5004
  21947245.2634     202856.99249    155975.17447                  21947242.9274
        48.5004         36.2504
  22864875.9354    2724444.72349   2109985.13447                  22864873.7554
        45.0004         32.0004
  24711245.8024    9538364.30549   7389262.60946                  24711244.6574
        40.0004         22.5004
  23434871.9894   -5025874.33249  -3914928.46247                  23434869.3174
        46.0004         31.7504
  24125681.7944   -2904854.43749  -2264053.31646                  24125680.9314
        43.7504         22.5004
 04  6 29 14 55 20.0010000  0 10G 6G16G17G18G21G26G29G30G22G15
  20760009.7164    3456336.23449   2680940.69248                  20760007.5714
        50.2504         41.5004
  24144623.2084   -1203372.10249   -939978.70446                  24144619.2314
        38.7504         23.0004
  24611285.4894    6978479.27349   5403988.07746                  24611284.2554
        38.7504         21.2504
  21289499.9354   -2476115.72349  -1923174.97648                  21289496.5714
        51.0004         40.5004
  21321273.6694    -474085.53949   -373706.10847                  21321269.4854
        50.5004         38.7504
  21948691.2634     210457.02049    161897.28547                  21948689.2244
        48.2504         35.2504
  22868249.7084    2742174.75449   2123800.75047                  22868247.1264
        44.7504         31.5004
  24718964.3104    9578928.51249   7420871.08146                  24718963.1734
        38.7504         21.7504
  23430914.3494   -5046673.00049  -3931135.21047                  23430910.6574
        45.0004         31.7504
  24122637.6144   -2920851.23449  -2276518.32646                  24122636.3564
        43.5004         24.5004
 04  6 29 14 55 30.0010000  0 10G 6G16G17G18G21G26G29G30G22G15
  20763861.2474    3476575.30549   2696711.39648                  20763859.1184
        50.5004         41.5004
  24144555.4974   -1203727.05549   -940255.32346                  24144552.0674
        39.7504         24.5004
  24617038.1534    7008710.34849   5427544.74146                  24617037.1344
        37.2504         20.2504
  21288157.5134   -2483170.81249  -1928672.44448                  21288153.9114
        51.2504         40.0004
  21320975.5754    -475653.07049   -374927.56747                  21320971.4974
        50.2504         39.2504
  21950151.3174     218126.65249    167873.62347                  21950148.6304
        48.7504         35.7504
  22871634.4744    2759961.41049   2137660.47447                  22871631.3994
        44.5004         30.7504
  24726680.5604    9619478.35549   7452468.35746                  24726679.9354
        40.5004         22.2504
  23426961.0444   -5067445.91449  -3947321.88747                  23426957.1064
        44.7504         30.5004
  24119593.5134   -2936849.10549  -2288984.19646                  24119592.0634
        43.5004         25.0004
 04  6 29 14 55 40.0010000  0 10G 6G16G17G18G21G26G29G30G22G15
  20767722.3804    3496866.45349   2712522.68848                  20767720.5834
        51.0004         41.7504
  24144497.9504   -1204027.28549   -940489.27046                  24144494.9424
        40.7504         25.2504
  24622792.3024    7038946.35549   5451105.18046                  24622791.1494
        39.0004         21.0004
  21286823.2004   -2490182.09849  -1934135.78948                  21286819.3024
        51.5004         40.2504
  21320679.9584    -477206.73049   -376138.20947                  21320675.3804
        50.0004         38.7504
  21951624.1064     225867.30149    173905.31047                  21951621.8994
        47.5004         35.5004
  22875030.2394    2777806.09449   2151565.43347                  22875027.4034
        44.5004         30.5004
  24734394.4894    9660015.03949   7484055.35446                  24734393.8994
        40.0004         22.5004
  23423014.0134   -5088191.58249  -3963487.31347                  23423009.1814
        46.7504         31.7504
  24116549.7004   -2952846.64549  -2301449.81746                  24116547.6034
        43.7504         23.7504
 04  6 29 14 55 50.0010000  0 10G 6G16G17G18G21G26G29G30G22G15
  20771593.6144    3517209.36349   2728374.30548                  20771591.4384
        50.5004         41.5004
  24144451.3104   -1204273.00449   -940680.76846                  24144448.3534
        41.2504         25.2504
  24628546.7164    7069186.94149   5474669.23146                  24628544.6104
        38.7504         19.7504
  21285497.3724   -2497149.95749  -1939565.28248                  21285493.9274
        51.0004         40.2504
  21320386.8494    -478747.00849   -377338.41847                  21320382.6344
        49.0004         39.0004
  21953110.4424     233678.75049    179992.14047                  21953107.7434
        47.0004         36.0004
  22878437.2784    2795708.33249   2165515.22747                  22878434.4544
        46.0004         30.7504
  24742105.6534    9700538.18849   7515631.87046                  24742104.5014
        40.2504         22.2504
  23419071.4424   -5108910.30149  -3979631.78947                  23419066.6064
        45.5004         32.0004
  24113505.0674   -2968844.16049  -2313915.36646                  24113503.0244
        43.7504         24.5004
 04  6 29 14 56  0.0010000  0 10G 6G16G17G18G21G26G29G30G22G15
  20775474.1694    3537600.84449   2744263.78348                  20775471.9664
        50.5004         41.5004
  24144414.2244   -1204467.43049   -940832.24946                  24144411.5214
        41.0004         24.2504
  24634301.2004    7099429.01249   5498234.56546                  24634299.4464
        36.2504         19.7504
  21284179.0214   -2504077.52049  -1944963.37548                  21284175.5914
        51.5004         40.5004
  21320095.3334    -480276.96549   -378530.59548                  21320091.2864
        49.2504         39.5004
  21954609.8174     241557.75049    186131.62547                  21954607.1734
        47.5004         36.5004
  22881854.2714    2813664.95749   2179507.39347                  22881851.7824
        43.5004         31.2504
  24749813.5284    9741044.56649   7547195.21946                  24749813.0094
        37.0004         22.2504
  23415132.5524   -5129605.34049  -3995757.76447                  23415128.9544
        44.5004         31.7504
  24110459.7004   -2984844.87949  -2326383.46046                  24110458.0484
        44.0004         23.7504
 04  6 29 14 56 10.0010000  0 10G 6G16G17G18G21G26G29G30G22G15
  20779363.9274    3558042.36749   2760192.24048                  20779361.5444
        51.0004         41.5004
  24144387.8104   -1204609.03149   -940942.61746                  24144384.6144
        41.7504         24.5004
  24640057.0604    7129674.08649   5521802.08646                  24640054.7474
        37.0004         20.5004
  21282868.6304   -2510963.30949  -1950328.92748                  21282865.3254
        51.2504         40.7504
  21319806.5214    -481795.05549   -379713.52148                  21319802.6774
        48.5004         39.5004
  21956122.0604     249505.87949    192324.99447                  21956120.1144
        45.5004         36.0004
  22885281.5524    2831677.55549   2193543.17047                  22885279.7044
        45.2504         32.0004
  24757519.4114    9781535.58649   7578746.63546                  24757518.0284
        38.7504         22.0004
  23411200.0054   -5150274.91449  -4011863.91647                  23411196.0174
        46.2504         33.0004
  24107415.1224   -3000847.15249  -2338852.75446                  24107412.8494
        43.7504         24.5004
 04  6 29 14 56 20.0010000  0 10G 6G16G17G18G21G26G29G30G22G15
  20783262.9814    3578532.77049   2776158.78448                  20783260.7084
        51.5004         42.0004
  24144370.4114   -1204698.91049   -941012.64746                  24144367.6344
        41.0004         22.5004
  24645812.2944    7159921.02349   5545371.15446                  24645811.7674
        37.0004         20.5004
  21281565.9744   -2517808.51649  -1955662.84448                  21281562.8174
        51.0004         41.0004
  21319519.6224    -483302.40249   -380888.07847                  21319515.8804
        49.0004         39.0004
  21957647.4894     257521.89549    198571.22847                  21957645.6064
        46.7504         36.0004
  22888720.0364    2849744.93849   2207621.66147                  22888718.1104
        43.7504         32.2504
  24765221.0214    9822009.93849   7610285.02146                  24765220.3994
        38.0004         22.0004
  23407271.2244   -5170920.34849  -4027951.25347                  23407266.7084
        46.7504         32.0004
  24104369.3644   -3016852.23049  -2351324.25546                  24104367.4074
        43.2504         23.7504
 04  6 29 14 56 30.0010000  0 10G 6G16G17G18G21G26G29G30G22G15
  20787171.3884    3599070.16849   2792161.92848                  20787168.5714
        51.2504         41.5004
  24144362.8024   -1204738.95749   -941043.87746                  24144359.9354
        41.7504         24.7504
  24651568.2944    7190167.99249   5568940.18546                  24651567.6614
        36.2504         19.5004
  21280270.8494   -2524614.85949  -1960966.49048                  21280267.3764
        51.0004         40.7504
  21319234.8334    -484800.82049   -382055.67147                  21319230.5174
        48.0004         39.0004
  21959185.5754     265604.15649    204869.09747                  21959183.4314
        45.5004         36.2504
  22892168.3334    2867865.14149   2221741.28747                  22892166.0444
        42.5004         31.5004
  24772919.8724    9862465.80949   7641809.15246                  24772919.0094
        38.7504         21.5004
  23403346.1304   -5191543.28949  -4044021.07047                  23403341.7354
        45.5004         31.2504
  24101322.9584   -3032861.89149  -2363799.29346                  24101320.3374
        42.0004         23.7504
 04  6 29 14 56 40.0010000  0 10G 6G16G17G18G21G26G29G30G22G15
  20791088.8964    3619658.18049   2808204.52448                  20791086.7984
        51.0004         41.2504
  24144364.8254   -1204725.62149   -941033.48046                  24144362.5714
        40.0004         23.5004
  24657324.7244    7220418.37948   5592511.86546                  24657324.4074
        35.0004         18.5004
  21278983.5994   -2531378.83649  -1966237.12548                  21278980.4704
        51.0004         41.0004
  21318951.7084    -486286.67249   -383213.48547                  21318947.8064
        48.2504         38.2504
  21960737.0214     273756.15249    211221.30047                  21960734.6424
        46.5004         35.7504
  22895626.4664    2886041.75449   2235904.88447                  22895624.9894
        43.5004         31.7504
  24780615.3174    9902906.49649   7673321.35446                  24780614.5994
        39.5004         21.2504
  23399426.6064   -5212140.16849  -4060070.57447                  23399422.9154
        46.5004         32.0004
  24098276.4584   -3048872.63749  -2376275.22446                  24098273.8534
        43.2504         25.5004
 04  6 29 14 56 50.0010000  0 10G 6G16G17G18G21G26G29G30G22G15
  20795016.6144    3640296.86749   2824286.62248                  20795014.1034
        50.7504         41.5004
  24144377.3804   -1204658.74249   -940981.38446                  24144375.2244
        40.2504         23.0004
  24663082.0444    7250672.60949   5616086.57046                  24663081.5174
        36.5004         18.5004
  21277704.5834   -2538100.32049  -1971474.63348                  21277701.2864
        50.5004         40.5004
  21318671.6304    -487759.98449   -384361.52247                  21318667.6654
        49.0004         39.0004
  21962301.6534     281977.99249    217627.92947                  21962299.1464
        47.0004         35.5004
  22899096.2164    2904274.74249   2250112.42247                  22899094.3804
        44.5004         31.2504
  24788308.5834    9943332.12949   7704821.87346                  24788307.1144
        38.2504         20.7504
  23395511.9664   -5232710.87149  -4076099.67647                  23395509.0484
        46.0004         31.5004
  24095228.9194   -3064884.42249  -2388751.95346                  24095226.9504
        40.7504         22.7504
 04  6 29 14 57  0.0010000  0 10G 6G16G17G18G21G26G29G30G22G15
  20798953.7394    3660986.49249   2840408.40348                  20798951.5954
        50.5004         41.5004
  24144401.1774   -1204538.01249   -940887.31946                  24144397.8534
        40.5004         22.5004
  24668840.9744    7280930.79749   5639664.32046                  24668838.4464
        38.7504         17.7504
  21276433.5444   -2544779.14849  -1976678.90948                  21276430.2674
        51.2504         40.5004
  21318393.8254    -489220.32049   -385499.44248                  21318389.8494
        49.2504         39.5004
  21963879.4354     290269.96949    224089.21347                  21963877.1694
        47.7504         35.5004
  22902577.0834    2922564.47349   2264364.13847                  22902574.2244
        45.5004         32.0004
  24795998.3414    9983742.80949   7736310.68146                  24795996.9314
        39.2504         22.2504
  23391602.9354   -5253255.09449  -4092108.15447                  23391599.0634
        45.7504         31.0004
  24092181.8804   -3080896.91849  -2401229.14946                  24092179.9074
        42.5004         23.0004
 04  6 29 14 57 10.0010000  0 10G 6G16G17G18G21G26G29G30G22G15
  20802900.4114    3681726.28549   2856569.28348                  20802898.1264
        51.0004         42.0004
  24144434.5364   -1204364.21949   -940751.91146                  24144431.0634
        39.5004         22.7504
  24674598.3804    7311192.10549   5663244.53946                  24674596.1184
        37.5004         17.7504
  21275170.9974   -2551416.00449  -1981850.48948                  21275167.3564
        51.0004         40.7504
  21318117.8494    -490668.73849   -386628.08047                  21318114.2084
        49.5004         39.0004
  21965470.1694     298631.32449    230604.54647                  21965468.3564
        47.0004         35.0004
  22906067.7244    2940909.98849   2278659.35847                  22906065.4894
        44.5004         31.7504
  24803684.8724   10024137.69549   7767787.20246                  24803684.1464
        39.2504         21.7504
  23387698.3644   -5273773.62149  -4108096.60947                  23387694.0094
        46.0004         30.7504
  24089134.7784   -3096910.96149  -2413707.63946                  24089132.5874
        41.5004         23.2504
 04  6 29 14 57 20.0010000  0 10G 6G16G17G18G21G26G29G30G22G15
  20806855.6384    3702513.11349   2872766.81248                  20806853.8844
        50.2504         42.2504
  24144476.5914   -1204140.40649   -940577.53846                  24144473.7244
        39.5004         22.7504
  24680357.9814    7341453.52749   5686824.83546                  24680354.2044
        37.7504         19.0004
  21273915.5134   -2558013.91049  -1986991.71348                  21273911.8104
        50.7504         40.7504
  21317844.1304    -492108.12149   -387749.66647                  21317840.4744
        50.0004         39.2504
  21967074.3564     307059.00849    237171.57747                  21967071.9814
        48.0004         35.0004
  22909568.5994    2959308.39149   2292995.76547                  22909566.4274
        46.0004         32.0004
  24811368.4194   10064513.66849   7799248.98846                  24811367.5444
        37.5004         21.7504
  23383798.5134   -5294269.34849  -4124067.30947                  23383794.3104
        46.0004         31.5004
  24086086.3494   -3112929.50449  -2426189.56946                  24086084.4894
        42.5004         24.7504
 04  6 29 14 57 30.0010000  0 10G 6G16G17G18G21G26G29G30G22G15
  20810820.2554    3723346.80149   2889000.85648                  20810818.1494
        51.0004         42.0004
  24144528.3024   -1203866.81649   -940364.34046                  24144525.8564
        40.0004         24.2504
  24686115.9974    7371715.02349   5710405.21446                  24686113.1344
        37.0004         19.0004
  21272667.2714   -2564573.02049  -1992102.70548                  21272663.7714
        51.0004         41.0004
  21317571.7394    -493538.64849   -388864.37947                  21317567.6424
        50.5004         38.5004
  21968690.4194     315552.86349    243790.18647                  21968688.1614
        48.0004         35.7504
  22913080.1694    2977759.38749   2307373.18547                  22913077.2864
        45.5004         31.2504
  24819048.2244   10104870.40249   7830695.78146                  24819047.5794
        38.0004         22.0004
  23379902.7084   -5314742.39849  -4140020.31747                  23379898.9504
        46.2504         31.5004
  24083037.4194   -3128952.74249  -2438675.23346                  24083035.9814
        42.2504         22.7504
 04  6 29 14 57 40.0010000  0 10G 6G16G17G18G21G26G29G30G22G15
  20814793.8884    3744228.10249   2905272.00648                  20814791.6694
        51.0004         42.0004
  24144590.6384   -1203542.67249   -940111.71746                  24144587.4854
        40.5004         23.7504
  24691874.9194    7401977.20349   5733986.01046                  24691873.1964
        36.0004         19.2504
  21271426.7164   -2571092.62549  -1997182.91048                  21271423.4154
        51.0004         41.0004
  21317301.6694    -494959.55549   -389971.57347                  21317297.7244
        50.2504         39.0004
  21970319.2864     324113.65649    250460.93747                  21970317.2904
        48.0004         35.5004
  22916600.8724    2996263.58649   2321792.04647                  22916598.4314
        44.2504         30.5004
  24826724.2634   10145208.55149   7862128.04646                  24826724.0994
        38.5004         21.2504
  23376011.0674   -5335192.03149  -4155955.09847                  23376006.8764
        45.0004         31.5004
  24079987.3494   -3144979.98849  -2451163.97946                  24079986.1814
        43.0004         25.2504
 04  6 29 14 57 50.0010000  0 10G 6G16G17G18G21G26G29G30G22G15
  20818777.0444    3765160.13749   2921582.66848                  20818775.1964
        51.0004         41.7504
  24144662.4354   -1203164.73449   -939817.26646                  24144659.1734
        41.0004         24.2504
  24697634.2784    7432243.27049   5757570.00646                  24697633.7244
        37.0004         19.7504
  21270194.1694   -2577569.54349  -2002229.86448                  21270190.7714
        50.5004         40.7504
  21317033.2864    -496367.59849   -391068.75347                  21317029.6614
        49.7504         38.5004
  21971961.9504     332744.58649    257186.34847                  21971959.6424
        48.0004         36.0004
  22920133.6774    3014824.25449   2336254.91047                  22920130.9034
        44.5004         31.0004
  24834396.7004   10185531.23849   7893548.32546                  24834397.0564
        36.5004         21.5004
  23372124.2084   -5355615.10249  -4171869.16047                  23372120.5404
        45.0004         31.0004
  24076937.2004   -3161007.99649  -2463653.31347                  24076935.8174
        39.0004         25.7504
 04  6 29 14 58  0.0010000  0 10G 6G16G17G18G21G26G29G30G22G15
  20822770.1064    3786143.28149   2937933.16848                  20822767.7824
        51.2504         41.7504
  24144745.0754   -1202732.72349   -939480.63046                  24144741.8764
        41.7504         24.2504
  24703394.8334    7462513.60948   5781157.23746                  24703393.8964
        35.7504         19.2504
  21268969.4584   -2584003.35249  -2007243.21448                  21268966.3454
        50.0004         41.0004
  21316768.1534    -497762.44149   -392155.63847                  21316764.0954
        50.5004         39.0004
  21973618.1224     341446.01249    263966.69147                  21973615.7084
        47.7504         35.5004
  22923675.6774    3033441.64549   2350761.96847                  22923674.1654
        43.7504         30.7504
  24842067.4894   10225838.69949   7924956.71946                  24842066.9744
        38.2504         20.2504
  23368243.5364   -5376011.16449  -4187762.16147                  23368239.8494
        46.5004         31.5004
  24073886.9194   -3177036.45749  -2476143.00446                  24073885.5914
        39.0004         23.7504
 04  6 29 14 58 10.0010000  0 10G 6G16G17G18G21G26G29G30G22G15
  20826772.2944    3807174.16049   2954320.85948                  20826769.8454
        51.2504         41.5004
  24144836.1064   -1202249.87149   -939104.38546                  24144834.1424
        41.2504         23.2504
  24709155.7314    7492784.85549   5804745.18846                  24709154.5214
        38.5004         19.2504
  21267753.0754   -2590397.45349  -2012225.61948                  21267749.7674
        50.5004         41.0004
  21316504.4194    -499147.52349   -393234.92747                  21316500.5324
        48.7504         38.5004
  21975286.2474     350214.61749    270799.36447                  21975284.2044
        46.2504         35.5004
  22927228.9584    3052112.56649   2365310.74947                  22927227.5284
        44.2504         30.7504
  24849733.4274   10266127.43849   7956350.50346                  24849733.6614
        37.5004         20.2504
  23364367.1064   -5396383.39549  -4203636.64847                  23364362.6654
        46.2504         32.2504
  24070836.8254   -3193068.76249  -2488635.72646                  24070834.3644
        40.0004         24.2504
 04  6 29 14 58 20.0010000  0 10G 6G16G17G18G21G26G29G30G22G15
  20830783.5834    3828254.69949   2970747.25148                  20830781.3214
        51.7504         41.5004
  24144938.3174   -1201714.34849   -938687.11546                  24144935.7244
        40.7504         22.2504
  24714916.2394    7523058.92249   5828335.36346                  24714914.5674
        38.5004         20.2504
  21266544.2004   -2596749.96549  -2017175.63648                  21266540.8254
        50.2504         40.7504
  21316243.2244    -500520.75049   -394304.98147                  21316239.0914
        48.5004         38.5004
  21976968.0054     359052.32049    277685.88247                  21976965.8534
        45.5004         35.5004
  22930792.4274    3070838.66449   2379902.47047                  22930790.8294
        44.2504         30.7504
  24857397.3104   10306399.32049   7987731.16146                  24857396.8214
        37.2504         20.5004
  23360494.2554   -5416730.02349  -4219491.16147                  23360490.2244
        45.2504         30.7504
  24067785.2554   -3209103.00049  -2501129.89446                  24067782.8804
        38.5004         24.5004
 04  6 29 14 58 30.0010000  0 10G 6G16G17G18G21G26G29G30G22G15
  20834804.7164    3849385.34449   2987212.68148                  20834802.3174
        51.0004         41.5004
  24145050.5834   -1201125.62949   -938228.37446                  24145048.0244
        40.0004         24.5004
  24720677.5214    7553336.40249   5851928.23046                  24720675.5994
        39.5004         19.5004
  21265343.2004   -2603060.30949  -2022092.78548                  21265339.9354
        50.2504         40.5004
  21315984.0914    -501881.66449   -395365.44147                  21315979.9154
        49.0004         39.0004
  21978663.1224     367959.61349    284626.63647                  21978660.8994
        46.0004         35.5004
  22934365.9274    3089620.52349   2394537.69747                  22934364.9314
        44.2504         31.2504
  24865058.1064   10346654.80949   8019099.03946                  24865057.1344
        38.0004         19.7504
  23356627.9814   -5437050.47349  -4235325.24047                  23356623.8064
        45.5004         32.5004
  24064733.8254   -3225138.57849  -2513625.15346                  24064731.1034
        40.5004         24.7504
 04  6 29 14 58 40.0010000  0 10G 6G16G17G18G21G26G29G30G22G15
  20838835.1854    3870564.93449   3003716.24148                  20838832.8454
        51.0004         41.2504
  24145172.0524   -1200484.80549   -937729.06346                  24145169.9194
        40.2504         22.2504
  24726440.1224    7583616.16449   5875522.80846                  24726437.0674
        39.0004         20.7504
  21264150.0754   -2609329.64549  -2026977.97648                  21264146.9974
        50.5004         40.0004
  21315727.3564    -503231.34049   -396417.13147                  21315723.1964
        49.5004         38.5004
  21980371.1144     376935.38349    291620.74947                  21980369.3174
        47.0004         36.0004
  22937950.4974    3108456.89149   2409215.38347                  22937949.0874
        43.5004         30.2504
  24872714.7244   10386892.56649   8050453.13946                  24872714.1534
        38.7504         20.2504
  23352765.5834   -5457345.81649  -4251139.79547                  23352761.1574
        45.2504         32.5004
  24061681.8724   -3241176.74649  -2526122.45246                  24061678.8764
        42.0004         22.7504
 04  6 29 14 58 50.0010000  0 10G 6G16G17G18G21G26G29G30G22G15
  20842875.1144    3891795.92249   3020259.85348                  20842872.7124
        51.0004         41.5004
  24145304.4424   -1199789.43749   -937187.21346                  24145302.1694
        40.0004         22.2504
  24732202.6924    7613900.59049   5899121.04646                  24732200.5014
        38.5004         19.5004
  21262965.3884   -2615555.48449  -2031829.26848                  21262962.2594
        50.0004         40.0004
  21315473.2714    -504567.43049   -397458.23847                  21315469.0484
        48.7504         39.0004
  21982092.4194     385982.11349    298670.15747                  21982090.9544
        46.2504         36.5004
  22941546.1464    3127350.27049   2423937.49647                  22941543.8994
        43.5004         30.5004
  24880368.9744   10427115.05149   8081795.36646                  24880367.9624
        40.0004         21.5004
  23348908.6384   -5477613.49649  -4266932.77447                  23348904.9504
        45.0004         31.2504
  24058629.7784   -3257214.94949  -2538619.70546                  24058626.4814
        40.2504         22.7504
 04  6 29 14 59  0.0010000  0 10G 6G16G17G18G21G26G29G30G22G15
  20846924.8024    3913077.49249   3036842.87548                  20846922.1814
        50.7504         41.2504
  24145446.5444   -1199040.32849   -936603.49546                  24145444.1144
        40.7504         22.7504
  24737965.9814    7644188.93449   5922722.33246                  24737964.3964
        38.7504         19.5004
  21261788.6854   -2621738.71949  -2036647.37848                  21261785.4074
        50.2504         40.5004
  21315221.3884    -505890.77349   -398489.42147                  21315217.2004
        49.2504         38.7504
  21983827.4584     395098.94549    305774.17247                  21983825.6384
        46.2504         36.5004
  22945152.2394    3146299.81349   2438703.37047                  22945150.2554
        44.0004         30.5004
  24888019.9584   10467321.27749   8113124.85546                  24888019.1854
        40.0004         22.0004
  23345057.0754   -5497854.35549  -4282704.85147                  23345053.4784
        43.5004         31.5004
  24055578.0524   -3273254.05549  -2551117.71246                  24055575.5444
        42.0004         24.5004
 04  6 29 14 59 10.0010000  0 10G 6G16G17G18G21G26G29G30G22G15
  20850984.2004    3934409.02049   3053464.83848                  20850981.8294
        51.2504         41.2504
  24145599.9424   -1198238.06649   -935978.37146                  24145597.3724
        40.2504         23.0004
  24743731.3804    7674480.58249   5946326.17146                  24743729.2514
        39.5004         19.0004
  21260620.0134   -2627879.89149  -2041432.70148                  21260616.6574
        50.0004         40.2504
  21314971.9894    -507201.90249   -399511.08147                  21314967.7514
        49.5004         38.5004
  21985575.6694     404285.30949    312932.37147                  21985573.1184
        47.7504         36.2504
  22948768.6304    3165304.74649   2453512.39747                  22948766.9424
        44.5004         31.0004
  24895668.1924   10507510.62149   8144441.20946                  24895666.8964
        40.7504         21.7504
  23341210.2714   -5518068.87549  -4298456.39547                  23341206.2824
        45.5004         31.5004
  24052525.1384   -3289294.62949  -2563616.86946                  24052522.5484
        39.2504         24.0004
 04  6 29 14 59 20.0010000  0 10G 6G16G17G18G21G26G29G30G22G15
  20855052.9744    3955791.30549   3070126.35448                  20855050.3804
        50.7504         41.7504
  24145762.5604   -1197381.80949   -935311.14246                  24145760.2354
        40.5004         22.5004
  24749495.6614    7704776.30949   5969933.25546                  24749494.3724
        39.2504         19.0004
  21259459.5674   -2633978.15249  -2046184.58848                  21259456.1184
        50.5004         40.0004
  21314724.8254    -508499.77749   -400522.42247                  21314720.9114
        49.2504         39.0004
  21987337.0134     413542.18849    320145.53647                  21987334.8534
        46.0004         36.0004
  22952395.3414    3184365.99249   2468365.32847                  22952394.6104
        43.7504         30.7504
  24903312.5284   10547683.74649   8175744.98246                  24903311.4894
        40.5004         21.5004
  23337369.0674   -5538256.20749  -4314186.77847                  23337364.3534
        46.2504         32.0004
  24049472.8024   -3305335.81649  -2576116.48246                  24049469.7284
        41.5004         23.0004
 04  6 29 14 59 30.0010000  0 10G 6G16G17G18G21G26G29G30G22G15
  20859130.7944    3977220.86349   3086824.71348                  20859128.6384
        50.7504         41.7504
  24145935.7314   -1196475.02049   -934604.58246                  24145932.5484
        40.7504         23.7504
  24755260.6774    7735072.77049   5993540.82346                  24755259.3414
        40.5004         19.0004
  21258306.5364   -2640036.95749  -2050905.72848                  21258303.2984
        50.2504         39.7504
  21314479.6694    -509788.03149   -401526.25847                  21314475.5954
        49.5004         39.0004
  21989111.0214     422865.98049    327410.81647                  21989109.1614
        46.5004         36.0004
  22956033.2784    3203480.03549   2483259.39147                  22956031.6224
        43.2504         31.5004
  24910954.3494   10587837.19149   8207033.32746                  24910952.8294
        40.5004         22.0004
  23333531.3964   -5558419.78949  -4329898.66147                  23333527.1924
        44.0004         31.7504
  24046419.1534   -3321381.14149  -2588619.30046                  24046417.0134
        42.0004         24.0004
 04  6 29 14 59 40.0010000  0 10G 6G16G17G18G21G26G29G30G22G15
  20863218.6384    3998701.11749   3103562.57548                  20863216.4194
        51.2504         41.0004
  24146118.2004   -1195514.37549   -933856.00847                  24146115.2084
        41.5004         25.7504
  24761026.6854    7765373.35549   6017151.66046                  24761025.0054
        39.7504         18.2504
  21257161.7944   -2646052.98449  -2055593.54948                  21257158.3374
        50.5004         39.7504
  21314237.1534    -511063.28949   -402519.95947                  21314232.8294
        49.7504         39.0004
  21990899.2944     432260.06649    334730.89247                  21990896.9274
        46.5004         35.7504
  22959680.8804    3222650.29749   2498197.23847                  22959679.8024
        43.5004         30.7504
  24918591.8334   10627974.09449   8238308.82446                  24918590.8064
        40.5004         21.5004
  23329699.5134   -5578556.28949  -4345589.40647                  23329695.5484
        44.2504         31.5004
  24043366.0914   -3337427.23449  -2601122.73146                  24043363.2284
        40.7504         24.2504
 04  6 29 14 59 50.0010000  0 10G 6G16G17G18G21G26G29G30G22G15
  20867315.5134    4020230.30149   3120338.55948                  20867313.4974
        50.2504         41.7504
  24146311.3564   -1194501.54049   -933066.77646                  24146308.2744
        42.5004         24.5004
  24766793.4584    7795676.26649   6040764.37646                  24766791.0914
        39.5004         18.2504
  21256024.9504   -2652027.92649  -2060249.33148                  21256021.2744
        50.2504         40.2504
  21313996.5914    -512327.12949   -403504.77548                  21313992.5444
        49.0004         39.5004
  21992699.4194     441722.82849    342104.47947                  21992697.7314
        46.5004         35.5004
  22963339.1304    3241874.83249   2513177.40247                  22963337.5954
        43.0004         30.5004
  24926226.2314   10668092.75449   8269570.08446                  24926224.9354
        41.5004         22.2504
  23325872.6144   -5598667.31249  -4361260.33947                  23325868.8254
        44.0004         32.5004
  24040312.2714   -3353475.79749  -2613628.12946                  24040309.8924
        40.5004         24.5004
 04  6 29 15  0  0.0010000  0  9G 6G16G18G21G26G29G30G22G15
  20871422.0284    4041810.64549   3137154.40948                  20871420.1304
        50.5004         41.7504
  24146514.5134   -1193434.19549   -932235.11346                  24146511.1614
        42.7504         25.0004
  21254895.9894   -2657959.51249  -2064871.35548                  21254892.6654
        49.7504         40.0004
  21313758.5914    -513577.40249   -404479.02347                  21313754.3494
        50.2504         39.2504
  21994513.5524     451256.49649    349533.31347                  21994511.8564
        47.7504         36.5004
  22967008.4584    3261156.04749   2528201.71847                  22967006.8724
        43.0004         31.2504
  24933857.5524   10708195.27049   8300818.85246                  24933856.0444
        40.7504         23.5004
  23322051.3564   -5618750.50449  -4376909.58547                  23322047.5564
        44.5004         31.7504
  24037257.8494   -3369524.55949  -2626133.62946                  24037256.0324
        38.0004         24.7504
 04  6 29 15  0 10.0010000  0  9G 6G16G18G21G26G29G30G22G15
  20875538.4504    4063441.57849   3154009.66848                  20875536.1494
        51.0004         42.0004
  24146727.3254   -1192312.85249   -931361.32546                  24146724.6464
        42.7504         25.5004
  21253775.5284   -2663848.18449  -2069459.92048                  21253771.9544
        50.0004         40.2504
  21313523.2634    -514814.51649   -405443.00647                  21313518.8414
        49.7504         39.0004
  21996341.2864     460860.63349    357017.05847                  21996339.3844
        48.0004         36.0004
  22970688.0134    3280493.44149   2543269.80347                  22970686.3964
        42.0004         30.7504
  24941485.3104   10748281.22749   8332054.65846                  24941484.3844
        40.5004         22.2504
  23318234.4034   -5638806.34449  -4392537.49247                  23318230.7784
        45.0004         31.5004
  24034203.3494   -3385574.00849  -2638639.71446                  24034201.7864
        41.0004         24.7504
 04  6 29 15  0 20.0010000  0  9G 6G16G18G21G26G29G30G22G15
  20879664.0834    4085122.79749   3170904.11348                  20879661.8604
        50.5004         41.7504
  24146951.5054   -1191137.93049   -930445.79946                  24146948.3294
        41.5004         25.0004
  21252663.2634   -2669694.39149  -2074015.40748                  21252659.4234
        50.0004         40.2504
  21313290.2084    -516038.93449   -406397.08947                  21313285.8844
        49.5004         38.5004
  21998182.1924     470534.83649    364555.39547                  21998180.1464
        47.0004         35.5004
  22974378.3724    3299886.47349   2558381.26047                  22974377.2864
        41.5004         30.2504
  24949110.2864   10788349.99249   8363277.02546                  24949109.4274
        38.7504         22.0004
  23314423.5214   -5658835.23849  -4408144.40847                  23314419.4624
        44.5004         31.7504
  24031149.2314   -3401624.59849  -2651146.63746                  24031147.8334
        38.0004         25.2504
 04  6 29 15  0 30.0010000  0  9G 6G16G18G21G26G29G30G22G15
  20883799.3024    4106853.87549   3187837.41248                  20883797.0134
        50.7504         41.5004
  24147185.0444   -1189909.80949   -929488.82547                  24147181.7284
        42.5004         25.7504
  21251558.3964   -2675498.47349  -2078538.06448                  21251555.1694
        50.7504         40.2504
  21313059.3884    -517250.87949   -407341.46747                  21313055.4504
        50.7504         39.0004
  22000036.5994     480278.75449    372148.06247                  22000034.4744
        48.0004         35.2504
  22978079.2864    3319334.84049   2573535.81847                  22978078.0754
        42.2504         31.2504
  24956731.4744   10828401.13349   8394485.68746                  24956730.9934
        38.7504         22.5004
  23310616.5834   -5678837.35549  -4423730.46947                  23310613.2594
        44.2504         31.0004
  24028094.7244   -3417676.50849  -2663654.60346                  24028093.2744
        41.2504         24.2504
 04  6 29 15  0 40.0010000  0  9G 6G16G18G21G26G29G30G22G15
  20887944.1384    4128634.52749   3204809.35648                  20887941.5674
        51.5004         41.5004
  24147428.8104   -1188628.77049   -928490.60646                  24147425.6694
        42.2504         24.5004
  21250462.1534   -2681260.69149  -2083028.11048                  21250458.3454
        50.7504         40.5004
  21312831.2714    -518450.75449   -408276.43348                  21312827.4424
        50.7504         39.5004
  22001904.1064     490092.04349    379794.77747                  22001901.8494
        47.5004         35.7504
  22981790.2864    3338838.07049   2588733.14947                  22981789.5714
        41.5004         30.5004
  24964349.7944   10868434.24649   8425680.31946                  24964349.2784
        38.5004         22.0004
  23306815.7084   -5698813.10249  -4439295.97447                  23306811.1494
        45.0004         31.2504
  24025040.3564   -3433730.18749  -2676163.97246                  24025038.2204
        40.5004         25.5004
 04  6 29 15  0 50.0010000  0  9G 6G16G18G21G26G29G30G22G15
  20892098.5214    4150465.38349   3221820.39848                  20892096.3374
        51.0004         41.5004
  24147682.9114   -1187293.98849   -927450.51047                  24147679.5094
        43.2504         26.5004
  21249373.6064   -2686980.39149  -2087485.00548                  21249370.1104
        50.5004         41.0004
  21312605.4194    -519637.69549   -409201.33247                  21312601.5834
        50.2504         39.0004
  22003784.9424     499975.47749    387496.15547                  22003782.6424
        47.5004         35.5004
  22985512.7314    3358396.94949   2603973.83047                  22985511.1694
        41.5004         31.0004
  24971964.5214   10908450.01649   8456861.38446                  24971963.8534
        39.0004         22.0004
  23303019.8494   -5718761.63749  -4454840.25547                  23303015.8254
        45.2504         31.7504
  24021984.4584   -3449784.92249  -2688674.07646                  24021983.1304
        40.5004         24.0004
 04  6 29 15  1  0.0010000  0  9G 6G16G18G21G26G29G30G22G15
  20896262.4354    4172347.88749   3238871.69948                  20896260.4154
        51.7504         42.0004
  24147947.1774   -1185904.15249   -926367.54247                  24147944.2744
        43.7504         26.7504
  21248293.6534   -2692656.14149  -2091907.66948                  21248290.1064
        50.2504         41.0004
  21312381.9354    -520810.46549   -410115.17348                  21312378.3684
        49.7504         39.5004
  22005679.3804     509930.41049    395253.23747                  22005676.9894
        47.5004         35.2504
  22989245.4114    3378012.78949   2619258.89247                  22989243.8064
        42.2504         30.5004
  24979576.3104   10948449.66849   8488029.92846                  24979575.0284
        38.0004         22.5004
  23299228.8564   -5738681.59049  -4470362.28447                  23299225.6494
        45.0004         31.0004
  24018929.9504   -3465839.31649  -2701184.02947                  24018927.8764
        41.2504         26.0004
 04  6 29 15  1 10.0010000  0  9G 6G16G18G21G26G29G30G22G15
  20900436.3414    4194280.41449   3255961.97548                  20900434.0754
        51.0004         42.0004
  24148221.5134   -1184460.84049   -925242.86647                  24148218.8294
        41.5004         26.2504
  21247221.7084   -2698289.49249  -2096297.29648                  21247217.9974
        50.7504         40.5004
  21312161.5994    -521970.50449   -411019.11048                  21312157.8924
        50.7504         39.7504
  22007587.1774     519955.28149    403064.81847                  22007584.6464
        48.5004         35.5004
  22992988.8254    3397683.92649   2634587.04447                  22992987.1574
        41.7504         31.5004
  24987184.1224   10988431.57449   8519184.64446                  24987183.6034
        38.5004         21.7504
  23295444.1384   -5758574.45349  -4485863.23047                  23295439.4854
        46.5004         31.7504
  24015874.2784   -3481894.94949  -2713694.88146                  24015872.8534
        41.7504         25.2504
 04  6 29 15  1 20.0010000  0  9G 6G16G18G21G26G29G30G22G15
  20904619.2164    4216261.68049   3273090.25448                  20904616.8494
        50.2504         42.0004
  24148506.4354   -1182965.32049   -924077.49947                  24148503.5634
        42.7504         25.7504
  21246157.5054   -2703881.63749  -2100654.80548                  21246153.9194
        51.0004         40.2504
  21311942.7714    -523118.99249   -411914.03148                  21311939.0484
        50.5004         39.7504
  22009507.5674     530048.97349    410930.04047                  22009505.5604
        47.7504         35.5004
  22996742.7474    3417409.23849   2649957.42047                  22996741.2124
        42.0004         31.0004
  24994789.6534   11028394.49649   8550324.59846                  24994788.2984
        37.5004         21.7504
  23291663.2084   -5778441.42649  -4501343.98047                  23291659.2864
        45.5004         32.2504
  24012818.9894   -3497953.04749  -2726207.69546                  24012816.7164
        41.7504         24.2504
 04  6 29 15  1 30.0010000  0  9G 6G16G18G21G26G29G30G22G15
  20908811.3494    4238292.53149   3290257.13648                  20908809.1494
        52.0004         42.2504
  24148801.3724   -1181416.71949   -922870.82646                  24148797.8104
        40.7504         25.2504
  21245101.3104   -2709431.89549  -2104979.68348                  21245097.4504
        50.7504         40.2504
  21311726.4974    -524255.21149   -412799.39148                  21311722.6734
        50.5004         39.5004
  22011441.6064     540212.17249    418849.42447                  22011439.7004
        47.7504         35.7504
  23000505.8964    3437189.36349   2665370.50247                  23000505.0634
        42.2504         31.2504
  25002390.4194   11068338.91049   8581450.06646                  25002389.4464
        37.5004         22.0004
  23287887.9194   -5798281.76649  -4516803.97247                  23287884.0174
        47.0004         33.2504
  24009762.8334   -3514012.80549  -2738721.76347                  24009760.6224
        42.0004         26.5004
 04  6 29 15  1 40.0010000  0  9G 6G16G18G21G26G29G30G22G15
  20913013.8104    4260375.13349   3307464.35748                  20913011.4504
        51.2504         42.2504
  24149106.0284   -1179812.89549   -921621.06946                  24149103.3064
        41.2504         25.2504
  21244053.5834   -2714938.08249  -2109270.21848                  21244049.7784
        51.0004         40.5004
  21311512.9274    -525376.91449   -413673.44248                  21311509.5834
        50.7504         39.5004
  22013389.4894     550447.18849    426824.74447                  22013387.0404
        48.2504         36.0004
  23004281.4424    3457026.55949   2680828.03747                  23004280.3064
        43.2504         30.7504
  25009988.9354   11108267.11349   8612562.99846                  25009987.6064
        38.5004         21.7504
  23284117.9584   -5818093.12949  -4532241.39147                  23284114.3564
        46.0004         32.2504
  24006707.0524   -3530072.03549  -2751235.43447                  24006704.8924
        43.0004         25.7504
 04  6 29 15  1 50.0010000  0  9G 6G16G18G21G26G29G30G22G15
  20917225.4194    4282507.55149   3324710.38648                  20917222.9664
        51.0004         41.7504
  24149421.3334   -1178155.65649   -920329.72946                  24149418.8964
        41.0004         25.5004
  21243014.1304   -2720401.96549  -2113527.78948                  21243010.3024
        50.5004         41.0004
  21311302.1854    -526486.02049   -414537.68847                  21311298.2714
        49.7504         39.0004
  22015350.4744     560752.05149    434854.51047                  22015347.9074
        47.7504         35.7504
  23008066.5834    3476918.78949   2696328.46147                  23008065.6774
        41.2504         30.5004
  25017583.1694   11148177.11749   8643661.64546                  25017582.7084
        39.0004         21.5004
  23280352.7314   -5837877.32849  -4547657.62147                  23280349.3024
        45.2504         32.0004
  24003650.6304   -3546132.56249  -2763750.13347                  24003647.9784
        43.0004         26.7504
 04  6 29 15  2  0.0010000  0  9G 6G16G18G21G26G29G30G22G15
  20921447.1064    4304692.28549   3341997.19548                  20921444.1924
        51.7504         42.2504
  24149747.7164   -1176442.53149   -918994.84446                  24149744.5674
        41.5004         25.5004
  21241982.7554   -2725821.11349  -2117750.49848                  21241979.1654
        50.7504         40.5004
  21311093.9424    -527579.94149   -415390.08947                  21311090.1184
        50.5004         38.7504
  22017325.4114     571129.30149    442940.68647                  22017322.9894
        49.2504         35.7504
  23011863.1144    3496868.61349   2711873.78047                  23011861.2904
        43.5004         31.5004
  25025175.0674   11188071.25449   8674747.96146                  25025174.2474
        38.7504         21.5004
  23276594.0834   -5857631.85549  -4563050.71747                  23276589.6574
        46.7504         31.5004
  24000594.6854   -3562191.88349  -2776263.83747                  24000591.9974
        42.0004         27.0004
 04  6 29 15  2 10.0010000  0  9G 6G16G18G21G26G29G30G22G15
  20925677.4664    4326924.50449   3359320.99748                  20925675.0754
        51.5004         41.7504
  24150083.7474   -1174678.34449   -917620.13247                  24150081.2864
        41.0004         25.7504
  21240958.9974   -2731200.31249  -2121942.07748                  21240955.5564
        50.7504         40.5004
  21310887.6064    -528663.53549   -416234.44448                  21310884.1534
        50.5004         39.5004
  22019312.9034     581574.14149    451079.52547                  22019310.6064
        48.5004         35.5004
  23015669.2944    3516871.11349   2727460.14347                  23015667.4234
        43.5004         30.7504
  25032762.7244   11227944.67649   8705818.18546                  25032761.9504
        38.5004         21.5004
  23272839.6064   -5877361.50449  -4578424.50647                  23272834.7284
        46.7504         31.0004
  23997537.7004   -3578254.89849  -2788780.49547                  23997535.6104
        43.7504         26.5004
 04  6 29 15  2 20.0010000  0  9G 6G16G18G21G26G29G30G22G15
  20929917.7944    4349206.09849   3376683.27148                  20929915.2084
        51.2504         41.7504
  24150428.9584   -1172861.11749   -916204.13747                  24150426.7474
        42.2504         27.0004
  21239943.5054   -2736537.47349  -2126100.90548                  21239939.9544
        51.0004         40.5004
  21310683.5754    -529734.92649   -417069.30148                  21310679.9544
        50.2504         39.5004
  22021313.8174     592088.54749    459272.55747                  22021311.9154
        48.2504         36.0004
  23019486.1304    3536928.35549   2743089.16947                  23019484.3254
        43.0004         30.0004
  25040346.2084   11267799.32049   8736873.72046                  25040345.9664
        38.7504         21.0004
  23269090.6534   -5897064.26249  -4593777.29547                  23269085.7124
        46.0004         32.0004
  23994480.7864   -3594319.54349  -2801298.38147                  23994479.0404
        42.7504         26.0004
 04  6 29 15  2 30.0010000  0  9G 6G16G18G21G26G29G30G22G15
  20934166.7784    4371536.40249   3394083.50148                  20934164.6964
        51.2504         42.2504
  24150784.8564   -1170991.48049   -914747.23646                  24150782.3644
        41.2504         25.0004
  21238935.7714   -2741833.39149  -2130227.59048                  21238932.0754
        51.2504         40.7504
  21310482.0604    -530794.56649   -417894.99547                  21310478.1654
        50.5004         39.2504
  22023327.7474     602671.78949    467519.25147                  22023325.2674
        47.2504         36.0004
  23023313.0054    3557039.37549   2758760.07647                  23023311.9354
        42.0004         30.5004
  25047926.6774   11307634.19149   8767913.91046                  25047926.0834
        39.0004         20.2504
  23265345.8564   -5916740.76249  -4609109.62747                  23265342.3644
        45.7504         33.0004
  23991423.2944   -3610386.60549  -2813818.16047                  23991422.1694
        43.5004         26.2504
 04  6 29 15  2 40.0010000  0  9G 6G16G18G21G26G29G30G22G15
  20938426.3024    4393919.36749   3411524.75748                  20938424.0524
        51.5004         41.7504
  24151151.4664   -1169065.50449   -913246.49847                  24151148.8414
        42.2504         26.2504
  21237936.2784   -2747084.09049  -2134319.04448                  21237932.6424
        51.7504         40.5004
  21310283.2784    -531838.53949   -418708.47347                  21310279.6104
        50.0004         39.2504
  22025355.2784     613327.85949    475822.67547                  22025352.9464
        47.7504         36.0004
  23027150.9424    3577208.29749   2774476.10547                  23027150.1614
        41.2504         31.0004
  25055503.7864   11347453.41449   8798941.79146                  25055503.4894
        37.5004         20.2504
  23261607.0364   -5936386.99649  -4624418.37147                  23261602.8294
        46.2504         32.2504
  23988366.4504   -3626452.05549  -2826336.67647                  23988364.9894
        43.5004         27.0004
 04  6 29 15  2 50.0010000  0  9G 6G16G18G21G26G29G30G22G15
  20942695.1694    4416351.69149   3429004.47348                  20942692.7674
        51.5004         41.7504
  24151528.3254   -1167086.43049   -911704.37547                  24151525.4234
        42.2504         26.0004
  21236945.2474   -2752292.82049  -2138377.79148                  21236941.4894
        51.5004         40.5004
  21310087.4034    -532870.01649   -419512.23447                  21310083.3374
        50.5004         39.2504
  22027395.9974     624053.55949    484180.37247                  22027393.8564
        48.5004         35.5004
  23030999.7474    3597431.70749   2790234.59447                  23030998.3884
        43.5004         32.0004
  25063077.7084   11387253.52749   8829954.91546                  25063076.8294
        38.7504         20.0004
  23257873.7944   -5956006.16849  -4639706.03847                  23257869.3994
        46.2504         32.2504
  23985308.3254   -3642519.13749  -2838856.48147                  23985306.8414
        43.7504         27.5004
 04  6 29 15  3  0.0010000  0  9G 6G16G18G21G26G29G30G22G15
  20946973.6694    4438835.08249   3446524.00048                  20946971.2084
        51.7504         41.7504
  24151915.2634   -1165052.63349   -910119.62546                  24151912.0284
        41.5004         25.2504
  21235962.5214   -2757457.90249  -2142402.52248                  21235958.8414
        51.2504         40.7504
  21309893.6694    -533887.35249   -420304.96047                  21309889.7634
        51.2504         39.2504
  22029450.7314     634850.51249    492593.58247                  22029448.4234
        47.0004         35.5004
  23034858.7634    3617711.34849   2806036.91947                  23034857.4314
        42.5004         31.0004
  25070648.1774   11427036.10849   8860954.33846                  25070646.8024
        38.5004         19.7504
  23254145.9114   -5975596.54349  -4654971.26547                  23254141.6424
        45.5004         32.5004
  23982251.2714   -3658586.14849  -2851376.23547                  23982249.5914
        44.0004         27.2504
 04  6 29 15  3 10.0010000  0  9G 6G16G18G21G26G29G30G22G15
  20951261.0754    4461366.89549   3464081.25248                  20951258.4624
        51.5004         41.7504
  24152311.8334   -1162966.72749   -908494.24647                  24152308.9384
        41.0004         26.7504
  21234987.3414   -2762582.05549  -2146395.36748                  21234983.6424
        51.0004         41.0004
  21309702.3494    -534893.28149   -421088.80447                  21309698.2864
        50.5004         39.0004
  22031518.2634     645716.09449    501060.25647                  22031516.2354
        48.0004         35.5004
  23038728.0604    3638044.51649   2821880.92947                  23038726.1694
        43.5004         30.5004
  25078215.1924   11466798.52349   8891937.89346                  25078213.6614
        38.7504         18.5004
  23250422.6854   -5995160.80549  -4670216.13347                  23250419.1144
        46.5004         33.0004
  23979193.0674   -3674655.76249  -2863897.98347                  23979191.6344
        44.5004         27.5004
 04  6 29 15  3 20.0010000  0  9G 6G16G18G21G26G29G30G22G15
  20955558.5754    4483948.96149   3481677.64948                  20955556.1104
        51.5004         41.7504
  24152718.8644   -1160826.79749   -906826.75547                  24152716.6424
        41.5004         25.7504
  21234020.3254   -2767663.14849  -2150354.65848                  21234016.7674
        51.7504         41.5004
  21309513.4504    -535885.80149   -421862.19247                  21309509.6104
        50.0004         39.0004
  22033599.5444     656652.32049    509582.00147                  22033597.0524
        48.2504         35.5004
  23042608.1534    3658433.07449   2837768.11647                  23042606.1304
        43.5004         31.0004
  25085777.7244   11506542.53549   8922907.27046                  25085776.8764
        38.5004         18.5004
  23246705.7244   -6014696.91049  -4685439.04247                  23246701.2634
        46.0004         32.2504
  23976135.1774   -3690726.11749  -2876420.30247                  23976133.9704
        43.7504         27.0004
 04  6 29 15  3 30.0010000  0  8G 6G16G18G21G26G29G22G15
  20959865.1854    4506580.14849   3499312.34748                  20959862.4744
        51.2504         41.5004
  24153135.9274   -1158634.01249   -905118.10347                  24153133.4664
        38.2504         25.7504
  21233061.3024   -2772702.53549  -2154281.45948                  21233057.8104
        51.0004         41.0004
  21309326.7784    -536865.94949   -422625.94948                  21309322.9814
        51.0004         39.5004
  22035693.8644     667657.89549    518157.76547                  22035691.9504
        48.0004         35.7504
  23046498.3884    3678875.82849   2853697.51247                  23046496.4074
        43.5004         30.5004
  23242992.9744   -6034205.97349  -4700640.92847                  23242988.0874
        46.2504         31.5004
  23973076.8104   -3706798.30549  -2888944.08447                  23973075.0404
        45.0004         27.5004
 04  6 29 15  3 40.0010000  0  8G 6G16G18G21G26G29G22G15
  20964180.0214    4529257.35249   3516982.88748                  20964177.7824
        51.0004         41.5004
  24153562.7314   -1156391.49649   -903370.67847                  24153560.2004
        39.7504         26.5004
  21232110.1854   -2777703.26649  -2158178.12748                  21232106.1694
        50.7504         41.2504
  21309142.3254    -537836.82449   -423382.47647                  21309138.2124
        51.0004         39.2504
  22037800.8884     678729.83249    526785.24847                  22037798.6924
        47.5004         35.5004
  23050398.0444    3699369.65249   2869666.73147                  23050396.6734
        42.5004         30.5004
  23239284.7554   -6053691.15249  -4715824.17347                  23239279.9624
        46.0004         30.7504
  23970017.7474   -3722875.39849  -2901471.69347                  23970016.1064
        45.2504         27.0004
 04  6 29 15  3 50.0010000  0  8G 6G16G18G21G26G29G22G15
  20968505.5134    4551986.72349   3534694.09148                  20968503.1884
        51.0004         41.5004
  24154000.3104   -1154092.83249   -901579.51746                  24153997.7004
        39.5004         25.0004
  21231166.7474   -2782659.05549  -2162039.78048                  21231162.8334
        50.7504         41.5004
  21308960.9354    -538792.15249   -424126.88548                  21308956.5994
        50.5004         39.5004
  22039921.9814     689874.37949    535469.31147                  22039919.7004
        48.0004         35.5004
  23054308.9114    3719920.78549   2885680.59947                  23054308.0444
        44.2504         31.5004
  23235582.6694   -6073146.00449  -4730983.79647                  23235579.0914
        46.0004         31.7504
  23966958.0914   -3738951.14849  -2913998.23247                  23966956.4704
        44.5004         27.0004
 04  6 29 15  4  0.0010000  0  8G 6G16G18G21G26G29G22G15
  20972841.0214    4574768.67649   3552446.26448                  20972838.4704
        52.0004         41.7504
  24154448.3414   -1151737.77749   -899744.44447                  24154445.9814
        40.5004         25.7504
  21230231.8724   -2787569.60549  -2165866.17948                  21230228.5674
        50.5004         41.0004
  21308781.8644    -539731.60549   -424858.93148                  21308777.6964
        50.2504         39.7504
  22042055.7314     701091.84449    544210.18347                  22042054.2784
        47.2504         35.5004
  23058230.3884    3740529.55149   2901739.36347                  23058229.4074
        42.7504         32.2504
  23231885.9974   -6092570.21549  -4746119.52447                  23231883.1384
        46.0004         33.0004
  23963899.4114   -3755025.18449  -2926523.45447                  23963897.3764
        44.7504         26.5004
 04  6 29 15  4 10.0010000  0  8G 6G16G18G21G26G29G22G15
  20977185.9584    4597602.24249   3570238.65548                  20977183.2004
        51.0004         41.5004
  24154907.4354   -1149327.32049   -897866.15347                  24154904.3334
        41.5004         27.0004
  21229306.4974   -2792435.96549  -2169658.14148                  21229302.5214
        50.5004         41.2504
  21308605.6534    -540656.20749   -425579.39848                  21308601.7164
        50.7504         39.5004
  22044204.3334     712381.28549    553007.16047                  22044202.6104
        47.2504         36.0004
  23062163.2004    3761194.78949   2917842.13747                  23062161.8334
        44.5004         31.7504
  23228195.9194   -6111964.78549  -4761232.15747                  23228192.3414
        46.5004         33.0004
  23960841.0754   -3771098.43449  -2939048.04647                  23960839.1464
        44.2504         26.5004
 04  6 29 15  4 20.0010000  0  8G 6G16G18G21G26G29G22G15
  20981541.1774    4620488.54749   3588072.14248                  20981538.5094
        51.0004         41.2504
  24155377.2474   -1146860.23049   -895943.75547                  24155374.0954
        42.0004         27.7504
  21228388.6064   -2797256.90249  -2173414.70848                  21228384.9424
        50.2504         40.7504
  21308432.9194    -541564.81649   -426287.41248                  21308428.8964
        51.0004         39.5004
  22046366.3564     723743.87549    561861.12547                  22046364.6614
        47.7504         35.5004
  23066105.6614    3781917.71149   2933989.87047                  23066104.5524
        44.5004         31.2504
  23224510.7864   -6131328.42649  -4776320.70847                  23224506.8454
        46.7504         31.5004
  23957782.9034   -3787169.84449  -2951571.22447                  23957780.6614
        44.7504         26.0004
 04  6 29 15  4 30.0010000  0  8G 6G16G18G21G26G29G22G15
  20985905.6924    4643425.09049   3605944.77348                  20985902.9034
        51.2504         41.2504
  24155856.4744   -1144338.98449   -893979.14347                  24155854.3174
        38.2504         27.0004
  21227479.6144   -2802034.69549  -2177137.66948                  21227475.9624
        50.7504         40.0004
  21308262.5054    -542459.73449   -426984.74948                  21308258.6224
        50.5004         39.7504
  22048542.3174     735177.19549    570770.20347                  22048540.4934
        48.5004         35.7504
  23070060.0674    3802695.98449   2950180.73847                  23070058.6614
        43.5004         30.7504
  23220831.3334   -6150663.56649  -4791387.05247                  23220827.3024
        47.5004         31.7504
  23954724.2164   -3803241.73449  -2964094.78646                  23954722.1924
        44.5004         25.2504
 04  6 29 15  4 40.0010000  0  8G 6G16G18G21G26G29G22G15
  20990280.2164    4666412.75049   3623857.24248                  20990277.2044
        51.5004         41.0004
  24156347.0364   -1141762.69949   -891971.67347                  24156344.4584
        41.5004         26.0004
  21226578.9274   -2806768.49649  -2180826.34548                  21226575.2434
        50.5004         40.7504
  21308095.2244    -543340.03949   -427670.69248                  21308091.1104
        51.0004         39.5004
  22050731.4814     746682.10549    579735.07547                  22050729.5994
        48.5004         35.5004
  23074024.7714    3823530.38749   2966415.31647                  23074023.6694
        43.5004         31.5004
  23217157.8104   -6169969.19949  -4806430.38947                  23217153.5484
        46.5004         32.2504
  23951665.8884   -3819313.27049  -2976618.00347                  23951663.4194
        44.5004         26.5004
 04  6 29 15  4 50.0010000  0  8G 6G16G18G21G26G29G22G15
  20994663.7944    4689449.27049   3641807.76548                  20994660.9424
        51.2504         40.7504
  24156847.0914   -1139133.59849   -889923.00647                  24156844.8994
        40.7504         27.5004
  21225685.8334   -2811460.47749  -2184482.43348                  21225682.5994
        50.2504         40.2504
  21307930.0214    -544207.82849   -428346.89848                  21307925.8764
        50.5004         39.5004
  22052933.8644     758256.47349    588754.06247                  22052931.9784
        48.0004         35.0004
  23077999.7004    3844418.55949   2982691.80547                  23077998.4314
        43.0004         30.7504
  23213488.9744   -6189247.44549  -4821452.39747                  23213484.9234
        46.2504         31.7504
  23948606.8644   -3835386.65249  -2989142.73647                  23948605.2124
        43.7504         26.7504
 04  6 29 15  5  0.0010000  0  8G 6G16G18G21G26G29G22G15
  20999057.0214    4712536.53949   3659797.85048                  20999054.1964
        51.5004         41.0004
  24157358.1224   -1136449.78149   -887831.75347                  24157355.4274
        41.7504         26.7504
  21224801.5914   -2816108.86349  -2188104.54548                  21224798.1734
        51.0004         40.5004
  21307767.7004    -545061.34849   -429011.98648                  21307763.3534
        51.0004         39.5004
  22055149.9814     769902.04749    597828.53047                  22055147.8684
        47.0004         34.5004
  23081985.4114    3865362.37949   2999011.64947                  23081984.2864
        43.0004         32.2504
  23209826.2554   -6208496.49649  -4836451.63747                  23209821.5054
        46.0004         31.5004
  23945548.1694   -3851460.07849  -3001667.49047                  23945546.0324
        44.2504         26.7504
 04  6 29 15  5 10.0010000  0  8G 6G16G18G21G26G29G22G15
  21003459.6534    4735672.00449   3677825.47548                  21003457.0914
        51.5004         41.0004
  24157878.2864   -1133713.76649   -885699.76847                  24157875.9934
        40.2504         26.5004
  21223924.7164   -2820716.21949  -2191694.68448                  21223921.0794
        51.0004         41.0004
  21307607.1924    -545903.05149   -429667.85748                  21307603.1184
        50.7504         39.7504
  22057379.5994     781616.33649    606956.53447                  22057376.5714
        48.2504         34.7504
  23085980.7164    3886359.28549   3015372.87447                  23085979.2864
        43.2504         32.2504
  23206168.1694   -6227718.75049  -4851430.01547                  23206163.9354
        46.5004         32.2504
  23942489.8254   -3867535.98049  -3014194.18547                  23942487.3254
        43.5004         26.2504
 04  6 29 15  5 20.0010000  0  8G 6G16G18G21G26G29G22G15
  21007871.0604    4758854.93049   3695890.08448                  21007868.6034
        50.7504         41.0004
  24158409.0134   -1130926.28149   -883527.73647                  24158406.5834
        41.2504         27.5004
  21223055.4274   -2825283.16449  -2195253.34648                  21223052.1534
        50.5004         40.7504
  21307449.1064    -546733.66849   -430315.09048                  21307445.4974
        50.2504         40.0004
  22059620.9894     793398.70349    616137.60747                  22059619.0834
        47.5004         35.2504
  23089986.4354    3907408.60249   3031774.93047                  23089985.3604
        43.0004         31.0004
  23202515.4274   -6246914.88749  -4866388.04947                  23202511.0484
        46.0004         32.0004
  23939429.4504   -3883615.07849  -3026723.34546                  23939427.4314
        43.2504         25.5004
 04  6 29 15  5 30.0010000  0  8G 6G16G18G21G26G29G22G15
  21012291.9274    4782085.80549   3713992.06448                  21012289.6104
        51.0004         41.0004
  24158949.7004   -1128086.78549   -881315.13347                  24158947.1104
        42.0004         27.7504
  21222194.1774   -2829809.15249  -2198780.08148                  21222190.9664
        50.7504         41.0004
  21307293.0754    -547552.60949   -430953.23548                  21307289.6064
        50.7504         39.7504
  22061876.2314     805249.65649    625372.11647                  22061874.3764
        47.7504         34.5004
  23094002.1384    3928510.74249   3048218.15847                  23094000.5524
        44.5004         31.7504
  23198867.7944   -6266084.40649  -4881325.34547                  23198863.4354
        46.7504         32.5004
  23936368.5914   -3899696.84849  -3039254.53847                  23936367.0754
        42.5004         27.2504
 04  6 29 15  5 40.0010000  0  8G 6G16G18G21G26G29G22G15
  21016722.4584    4805369.29749   3732135.05548                  21016720.1104
        50.7504         40.7504
  24159500.5914   -1125190.56649   -879058.36347                  24159498.0794
        42.0004         27.0004
  21221341.8334   -2834289.58649  -2202271.33348                  21221338.3724
        51.0004         41.0004
  21307140.5674    -548355.26649   -431578.68348                  21307136.9424
        50.2504         39.5004
  22064145.5444     817173.82049    634663.67047                  22064143.4464
        48.0004         35.0004
  23098028.5674    3949670.41849   3064706.20347                  23098027.6574
        43.5004         31.7504
  23195225.9354   -6285222.61749  -4896238.21247                  23195221.6064
        45.5004         33.0004
  23933308.9664   -3915776.57049  -3051784.22346                  23933307.3454
        42.5004         24.2504
